<?xml version="1.0" encoding="UTF-8" standalone="no" ?>
<gpx xmlns="http://www.topografix.com/GPX/1/1" xmlns:xsi="http://www.w3.org/2001/XMLSchema-instance" xsi:schemaLocation="http://www.topografix.com/GPX/1/1 http://www.topografix.com/GPX/1/1/gpx.xsd" version="1.1" creator="VisuGPX - https://www.visugpx.com">
  <metadata>
    <name>GR441 Kevin</name>
  </metadata>
  <wpt lat="45.86793" lon="2.95388">
    <ele>900.5</ele>
    <name><![CDATA[Bivy 1]]></name>
    <type><![CDATA[camping]]></type>
  </wpt>
  <wpt lat="45.77933" lon="2.86085">
    <ele>758</ele>
    <name><![CDATA[Bivy 2]]></name>
    <desc><![CDATA[Bivouac 2]]></desc>
    <type><![CDATA[camping]]></type>
  </wpt>
  <wpt lat="45.64793" lon="2.85852">
    <ele>1207.1</ele>
    <name><![CDATA[Bivy 3]]></name>
    <type><![CDATA[camping]]></type>
  </wpt>
  <wpt lat="45.71022" lon="2.94378">
    <ele>1043.6</ele>
    <name><![CDATA[Bivy 4]]></name>
    <type><![CDATA[camping]]></type>
  </wpt>
  <wpt lat="45.7932" lon="2.9464">
    <ele>1028.1</ele>
    <name><![CDATA[Bivy 5]]></name>
    <type><![CDATA[camping]]></type>
  </wpt>
  <wpt lat="45.86932" lon="2.98248">
    <ele>807</ele>
    <name><![CDATA[Bivy 6a]]></name>
    <type><![CDATA[camping]]></type>
  </wpt>
  <wpt lat="45.88162" lon="3.03012">
    <ele>659.4</ele>
    <name><![CDATA[Bivy 6b]]></name>
    <type><![CDATA[camping]]></type>
  </wpt>
  <wpt lat="45.90557" lon="2.99635">
    <ele>720.2</ele>
    <name><![CDATA[Départ / Arrivée1]]></name>
    <type><![CDATA[user]]></type>
  </wpt>
  <trk>
    <name><![CDATA[J1]]></name>
    <extensions>
      <line xmlns="http://www.topografix.com/GPX/gpx_style/0/2">
        <color>0000FF</color>
        <width>4</width>
      </line>
    </extensions>
    <trkseg>
      <trkpt lat="45.90557" lon="2.99636">
        <ele>726.897798</ele>
        <time>2022-03-05T16:43:38Z</time>
      </trkpt>
      <trkpt lat="45.9056" lon="2.99612">
        <ele>726.743629</ele>
        <time>2022-03-05T16:43:55Z</time>
      </trkpt>
      <trkpt lat="45.90551" lon="2.99517">
        <ele>726.876787</ele>
        <time>2022-03-05T16:45:03Z</time>
      </trkpt>
      <trkpt lat="45.90548" lon="2.9951">
        <ele>727.090348</ele>
        <time>2022-03-05T16:45:08Z</time>
      </trkpt>
      <trkpt lat="45.90506" lon="2.99443">
        <ele>729.603945</ele>
        <time>2022-03-05T16:46:17Z</time>
      </trkpt>
      <trkpt lat="45.90497" lon="2.99419">
        <ele>730.366764</ele>
        <time>2022-03-05T16:46:40Z</time>
      </trkpt>
      <trkpt lat="45.90464" lon="2.99381">
        <ele>732.036624</ele>
        <time>2022-03-05T16:47:30Z</time>
      </trkpt>
      <trkpt lat="45.90432" lon="2.99328">
        <ele>734.363048</ele>
        <time>2022-03-05T16:48:30Z</time>
      </trkpt>
      <trkpt lat="45.9035" lon="2.99081">
        <ele>746.985885</ele>
        <time>2022-03-05T16:52:24Z</time>
      </trkpt>
      <trkpt lat="45.90316" lon="2.99015">
        <ele>750.574351</ele>
        <time>2022-03-05T16:53:35Z</time>
      </trkpt>
      <trkpt lat="45.90293" lon="2.98953">
        <ele>753.591125</ele>
        <time>2022-03-05T16:54:34Z</time>
      </trkpt>
      <trkpt lat="45.90285" lon="2.98926">
        <ele>754.848313</ele>
        <time>2022-03-05T16:54:59Z</time>
      </trkpt>
      <trkpt lat="45.90265" lon="2.98788">
        <ele>759.453305</ele>
        <time>2022-03-05T16:56:56Z</time>
      </trkpt>
      <trkpt lat="45.90234" lon="2.98703">
        <ele>762.149614</ele>
        <time>2022-03-05T16:58:11Z</time>
      </trkpt>
      <trkpt lat="45.90236" lon="2.9869">
        <ele>762.512792</ele>
        <time>2022-03-05T16:58:21Z</time>
      </trkpt>
      <trkpt lat="45.90239" lon="2.98662">
        <ele>763.328911</ele>
        <time>2022-03-05T16:58:42Z</time>
      </trkpt>
      <trkpt lat="45.9027" lon="2.98583">
        <ele>765.066115</ele>
        <time>2022-03-05T16:59:51Z</time>
      </trkpt>
      <trkpt lat="45.90296" lon="2.98554">
        <ele>765.837302</ele>
        <time>2022-03-05T17:00:26Z</time>
      </trkpt>
      <trkpt lat="45.90323" lon="2.98545">
        <ele>766.48821</ele>
        <time>2022-03-05T17:00:55Z</time>
      </trkpt>
      <trkpt lat="45.90331" lon="2.98521">
        <ele>766.910904</ele>
        <time>2022-03-05T17:01:14Z</time>
      </trkpt>
      <trkpt lat="45.90332" lon="2.98488">
        <ele>767.463798</ele>
        <time>2022-03-05T17:01:41Z</time>
      </trkpt>
      <trkpt lat="45.90351" lon="2.98437">
        <ele>768.576908</ele>
        <time>2022-03-05T17:02:24Z</time>
      </trkpt>
      <trkpt lat="45.90365" lon="2.98361">
        <ele>770.826841</ele>
        <time>2022-03-05T17:03:25Z</time>
      </trkpt>
      <trkpt lat="45.90367" lon="2.98344">
        <ele>771.311703</ele>
        <time>2022-03-05T17:03:39Z</time>
      </trkpt>
      <trkpt lat="45.9038" lon="2.9829">
        <ele>772.928094</ele>
        <time>2022-03-05T17:04:25Z</time>
      </trkpt>
      <trkpt lat="45.9039" lon="2.98202">
        <ele>775.484304</ele>
        <time>2022-03-05T17:05:38Z</time>
      </trkpt>
      <trkpt lat="45.90409" lon="2.9811">
        <ele>777.832668</ele>
        <time>2022-03-05T17:06:56Z</time>
      </trkpt>
      <trkpt lat="45.90366" lon="2.98072">
        <ele>779.585197</ele>
        <time>2022-03-05T17:07:51Z</time>
      </trkpt>
      <trkpt lat="45.90323" lon="2.98016">
        <ele>781.640701</ele>
        <time>2022-03-05T17:08:56Z</time>
      </trkpt>
      <trkpt lat="45.90257" lon="2.97905">
        <ele>782.845772</ele>
        <time>2022-03-05T17:10:43Z</time>
      </trkpt>
      <trkpt lat="45.9017" lon="2.97789">
        <ele>783.882725</ele>
        <time>2022-03-05T17:12:43Z</time>
      </trkpt>
      <trkpt lat="45.90154" lon="2.97762">
        <ele>783.999479</ele>
        <time>2022-03-05T17:13:07Z</time>
      </trkpt>
      <trkpt lat="45.90138" lon="2.97714">
        <ele>784.176287</ele>
        <time>2022-03-05T17:13:45Z</time>
      </trkpt>
      <trkpt lat="45.90105" lon="2.97601">
        <ele>784.609643</ele>
        <time>2022-03-05T17:15:10Z</time>
      </trkpt>
      <trkpt lat="45.9007" lon="2.97461">
        <ele>787.625646</ele>
        <time>2022-03-05T17:17:05Z</time>
      </trkpt>
      <trkpt lat="45.90071" lon="2.97425">
        <ele>788.363708</ele>
        <time>2022-03-05T17:17:34Z</time>
      </trkpt>
      <trkpt lat="45.90126" lon="2.97376">
        <ele>790.11805</ele>
        <time>2022-03-05T17:18:46Z</time>
      </trkpt>
      <trkpt lat="45.90141" lon="2.97369">
        <ele>790.4591</ele>
        <time>2022-03-05T17:19:05Z</time>
      </trkpt>
      <trkpt lat="45.90212" lon="2.97387">
        <ele>791.952364</ele>
        <time>2022-03-05T17:20:25Z</time>
      </trkpt>
      <trkpt lat="45.90238" lon="2.97383">
        <ele>792.493591</ele>
        <time>2022-03-05T17:20:52Z</time>
      </trkpt>
      <trkpt lat="45.90319" lon="2.97312">
        <ele>793.552267</ele>
        <time>2022-03-05T17:22:28Z</time>
      </trkpt>
      <trkpt lat="45.90369" lon="2.97285">
        <ele>793.535591</ele>
        <time>2022-03-05T17:23:23Z</time>
      </trkpt>
      <trkpt lat="45.90436" lon="2.97202">
        <ele>793.762273</ele>
        <time>2022-03-05T17:24:52Z</time>
      </trkpt>
      <trkpt lat="45.90456" lon="2.97157">
        <ele>795.425457</ele>
        <time>2022-03-05T17:25:32Z</time>
      </trkpt>
      <trkpt lat="45.90457" lon="2.9714">
        <ele>795.9624</ele>
        <time>2022-03-05T17:25:45Z</time>
      </trkpt>
      <trkpt lat="45.90457" lon="2.9713">
        <ele>796.274558</ele>
        <time>2022-03-05T17:25:53Z</time>
      </trkpt>
      <trkpt lat="45.90391" lon="2.96998">
        <ele>801.340104</ele>
        <time>2022-03-05T17:28:10Z</time>
      </trkpt>
      <trkpt lat="45.90374" lon="2.9694">
        <ele>803.072226</ele>
        <time>2022-03-05T17:29:04Z</time>
      </trkpt>
      <trkpt lat="45.90344" lon="2.96891">
        <ele>804.823208</ele>
        <time>2022-03-05T17:29:58Z</time>
      </trkpt>
      <trkpt lat="45.90278" lon="2.96857">
        <ele>807.542884</ele>
        <time>2022-03-05T17:31:17Z</time>
      </trkpt>
      <trkpt lat="45.9026" lon="2.96843">
        <ele>808.319719</ele>
        <time>2022-03-05T17:31:38Z</time>
      </trkpt>
      <trkpt lat="45.90239" lon="2.96819">
        <ele>808.251344</ele>
        <time>2022-03-05T17:32:05Z</time>
      </trkpt>
      <trkpt lat="45.90233" lon="2.96787">
        <ele>807.981952</ele>
        <time>2022-03-05T17:32:28Z</time>
      </trkpt>
      <trkpt lat="45.90254" lon="2.96744">
        <ele>807.551621</ele>
        <time>2022-03-05T17:33:07Z</time>
      </trkpt>
      <trkpt lat="45.90292" lon="2.96704">
        <ele>806.996931</ele>
        <time>2022-03-05T17:33:56Z</time>
      </trkpt>
      <trkpt lat="45.90352" lon="2.96608">
        <ele>806.433074</ele>
        <time>2022-03-05T17:35:29Z</time>
      </trkpt>
      <trkpt lat="45.90357" lon="2.96588">
        <ele>806.451776</ele>
        <time>2022-03-05T17:35:44Z</time>
      </trkpt>
      <trkpt lat="45.90357" lon="2.96567">
        <ele>806.470648</ele>
        <time>2022-03-05T17:35:59Z</time>
      </trkpt>
      <trkpt lat="45.90335" lon="2.96491">
        <ele>806.542419</ele>
        <time>2022-03-05T17:36:56Z</time>
      </trkpt>
      <trkpt lat="45.90283" lon="2.96456">
        <ele>806.62965</ele>
        <time>2022-03-05T17:37:57Z</time>
      </trkpt>
      <trkpt lat="45.90175" lon="2.96417">
        <ele>807.301897</ele>
        <time>2022-03-05T17:39:52Z</time>
      </trkpt>
      <trkpt lat="45.90142" lon="2.96397">
        <ele>807.515216</ele>
        <time>2022-03-05T17:40:28Z</time>
      </trkpt>
      <trkpt lat="45.90086" lon="2.96347">
        <ele>807.767208</ele>
        <time>2022-03-05T17:41:34Z</time>
      </trkpt>
      <trkpt lat="45.9004" lon="2.96347">
        <ele>807.857358</ele>
        <time>2022-03-05T17:42:21Z</time>
      </trkpt>
      <trkpt lat="45.90038" lon="2.96349">
        <ele>807.862509</ele>
        <time>2022-03-05T17:42:24Z</time>
      </trkpt>
      <trkpt lat="45.89992" lon="2.96378">
        <ele>807.959231</ele>
        <time>2022-03-05T17:43:14Z</time>
      </trkpt>
      <trkpt lat="45.89956" lon="2.96397">
        <ele>808.035229</ele>
        <time>2022-03-05T17:43:54Z</time>
      </trkpt>
      <trkpt lat="45.89862" lon="2.96405">
        <ele>809.158071</ele>
        <time>2022-03-05T17:45:32Z</time>
      </trkpt>
      <trkpt lat="45.89788" lon="2.96398">
        <ele>810.09219</ele>
        <time>2022-03-05T17:46:50Z</time>
      </trkpt>
      <trkpt lat="45.89775" lon="2.96327">
        <ele>810.771146</ele>
        <time>2022-03-05T17:47:44Z</time>
      </trkpt>
      <trkpt lat="45.89723" lon="2.96141">
        <ele>812.646976</ele>
        <time>2022-03-05T17:50:10Z</time>
      </trkpt>
      <trkpt lat="45.89721" lon="2.96081">
        <ele>813.357337</ele>
        <time>2022-03-05T17:50:53Z</time>
      </trkpt>
      <trkpt lat="45.89739" lon="2.96004">
        <ele>814.364239</ele>
        <time>2022-03-05T17:51:53Z</time>
      </trkpt>
      <trkpt lat="45.89742" lon="2.95923">
        <ele>815.37234</ele>
        <time>2022-03-05T17:52:54Z</time>
      </trkpt>
      <trkpt lat="45.89739" lon="2.95854">
        <ele>816.590998</ele>
        <time>2022-03-05T17:53:46Z</time>
      </trkpt>
      <trkpt lat="45.89736" lon="2.95814">
        <ele>817.728571</ele>
        <time>2022-03-05T17:54:16Z</time>
      </trkpt>
      <trkpt lat="45.89706" lon="2.9573">
        <ele>820.423767</ele>
        <time>2022-03-05T17:55:29Z</time>
      </trkpt>
      <trkpt lat="45.89705" lon="2.9567">
        <ele>822.123205</ele>
        <time>2022-03-05T17:56:18Z</time>
      </trkpt>
      <trkpt lat="45.89685" lon="2.95581">
        <ele>826.357699</ele>
        <time>2022-03-05T17:57:36Z</time>
      </trkpt>
      <trkpt lat="45.89684" lon="2.95563">
        <ele>827.440022</ele>
        <time>2022-03-05T17:57:53Z</time>
      </trkpt>
      <trkpt lat="45.89605" lon="2.95455">
        <ele>836.714509</ele>
        <time>2022-03-05T18:00:18Z</time>
      </trkpt>
      <trkpt lat="45.89577" lon="2.95462">
        <ele>838.857025</ele>
        <time>2022-03-05T18:00:54Z</time>
      </trkpt>
      <trkpt lat="45.89564" lon="2.95457">
        <ele>839.498407</ele>
        <time>2022-03-05T18:01:15Z</time>
      </trkpt>
      <trkpt lat="45.89569" lon="2.95421">
        <ele>840.618809</ele>
        <time>2022-03-05T18:01:46Z</time>
      </trkpt>
      <trkpt lat="45.89596" lon="2.95341">
        <ele>843.41774</ele>
        <time>2022-03-05T18:03:01Z</time>
      </trkpt>
      <trkpt lat="45.89588" lon="2.95278">
        <ele>845.431171</ele>
        <time>2022-03-05T18:03:51Z</time>
      </trkpt>
      <trkpt lat="45.89577" lon="2.95232">
        <ele>846.482115</ele>
        <time>2022-03-05T18:04:26Z</time>
      </trkpt>
      <trkpt lat="45.89563" lon="2.95231">
        <ele>846.015301</ele>
        <time>2022-03-05T18:04:40Z</time>
      </trkpt>
      <trkpt lat="45.89547" lon="2.95191">
        <ele>844.895659</ele>
        <time>2022-03-05T18:05:15Z</time>
      </trkpt>
      <trkpt lat="45.89487" lon="2.95142">
        <ele>842.527962</ele>
        <time>2022-03-05T18:06:29Z</time>
      </trkpt>
      <trkpt lat="45.89495" lon="2.95106">
        <ele>841.610719</ele>
        <time>2022-03-05T18:06:59Z</time>
      </trkpt>
      <trkpt lat="45.89496" lon="2.95066">
        <ele>840.640591</ele>
        <time>2022-03-05T18:07:29Z</time>
      </trkpt>
      <trkpt lat="45.89471" lon="2.95057">
        <ele>839.722511</ele>
        <time>2022-03-05T18:07:57Z</time>
      </trkpt>
      <trkpt lat="45.89313" lon="2.95045">
        <ele>834.226601</ele>
        <time>2022-03-05T18:10:47Z</time>
      </trkpt>
      <trkpt lat="45.89318" lon="2.94884">
        <ele>830.813897</ele>
        <time>2022-03-05T18:12:45Z</time>
      </trkpt>
      <trkpt lat="45.89271" lon="2.9489">
        <ele>829.389304</ele>
        <time>2022-03-05T18:13:35Z</time>
      </trkpt>
      <trkpt lat="45.8926" lon="2.94859">
        <ele>828.666806</ele>
        <time>2022-03-05T18:14:02Z</time>
      </trkpt>
      <trkpt lat="45.89263" lon="2.94791">
        <ele>827.744676</ele>
        <time>2022-03-05T18:14:52Z</time>
      </trkpt>
      <trkpt lat="45.89252" lon="2.94764">
        <ele>827.323998</ele>
        <time>2022-03-05T18:15:14Z</time>
      </trkpt>
      <trkpt lat="45.89236" lon="2.94753">
        <ele>826.977645</ele>
        <time>2022-03-05T18:15:33Z</time>
      </trkpt>
      <trkpt lat="45.89209" lon="2.94706">
        <ele>826.167928</ele>
        <time>2022-03-05T18:16:16Z</time>
      </trkpt>
      <trkpt lat="45.89192" lon="2.94691">
        <ele>825.76613</ele>
        <time>2022-03-05T18:16:37Z</time>
      </trkpt>
      <trkpt lat="45.89155" lon="2.94672">
        <ele>825.163549</ele>
        <time>2022-03-05T18:17:18Z</time>
      </trkpt>
      <trkpt lat="45.89114" lon="2.94677">
        <ele>824.957467</ele>
        <time>2022-03-05T18:17:59Z</time>
      </trkpt>
      <trkpt lat="45.89102" lon="2.94668">
        <ele>824.889095</ele>
        <time>2022-03-05T18:18:13Z</time>
      </trkpt>
      <trkpt lat="45.89116" lon="2.94642">
        <ele>824.771817</ele>
        <time>2022-03-05T18:18:36Z</time>
      </trkpt>
      <trkpt lat="45.89124" lon="2.94587">
        <ele>824.571707</ele>
        <time>2022-03-05T18:19:16Z</time>
      </trkpt>
      <trkpt lat="45.89102" lon="2.94558">
        <ele>824.421178</ele>
        <time>2022-03-05T18:19:46Z</time>
      </trkpt>
      <trkpt lat="45.89096" lon="2.94545">
        <ele>824.367158</ele>
        <time>2022-03-05T18:19:56Z</time>
      </trkpt>
      <trkpt lat="45.89086" lon="2.94519">
        <ele>824.40487</ele>
        <time>2022-03-05T18:20:17Z</time>
      </trkpt>
      <trkpt lat="45.89053" lon="2.94388">
        <ele>825.531457</ele>
        <time>2022-03-05T18:21:56Z</time>
      </trkpt>
      <trkpt lat="45.89035" lon="2.94336">
        <ele>826.003831</ele>
        <time>2022-03-05T18:22:39Z</time>
      </trkpt>
      <trkpt lat="45.89009" lon="2.94218">
        <ele>827.913443</ele>
        <time>2022-03-05T18:24:13Z</time>
      </trkpt>
      <trkpt lat="45.88959" lon="2.94131">
        <ele>830.181344</ele>
        <time>2022-03-05T18:25:40Z</time>
      </trkpt>
      <trkpt lat="45.88913" lon="2.9408">
        <ele>831.82855</ele>
        <time>2022-03-05T18:26:45Z</time>
      </trkpt>
      <trkpt lat="45.88876" lon="2.94058">
        <ele>832.85296</ele>
        <time>2022-03-05T18:27:30Z</time>
      </trkpt>
      <trkpt lat="45.88724" lon="2.9406">
        <ele>836.277929</ele>
        <time>2022-03-05T18:30:15Z</time>
      </trkpt>
      <trkpt lat="45.88642" lon="2.94071">
        <ele>836.651187</ele>
        <time>2022-03-05T18:31:41Z</time>
      </trkpt>
      <trkpt lat="45.886" lon="2.94064">
        <ele>836.843712</ele>
        <time>2022-03-05T18:32:24Z</time>
      </trkpt>
      <trkpt lat="45.88597" lon="2.94036">
        <ele>836.934006</ele>
        <time>2022-03-05T18:32:44Z</time>
      </trkpt>
      <trkpt lat="45.88574" lon="2.94018">
        <ele>836.727373</ele>
        <time>2022-03-05T18:33:11Z</time>
      </trkpt>
      <trkpt lat="45.88597" lon="2.94036">
        <ele>836.13655</ele>
        <time>2022-03-05T18:33:38Z</time>
      </trkpt>
      <trkpt lat="45.886" lon="2.94064">
        <ele>835.684853</ele>
        <time>2022-03-05T18:33:59Z</time>
      </trkpt>
      <trkpt lat="45.88601" lon="2.94082">
        <ele>835.411359</ele>
        <time>2022-03-05T18:34:11Z</time>
      </trkpt>
      <trkpt lat="45.8862" lon="2.94106">
        <ele>834.827009</ele>
        <time>2022-03-05T18:34:38Z</time>
      </trkpt>
      <trkpt lat="45.88617" lon="2.94125">
        <ele>834.512718</ele>
        <time>2022-03-05T18:34:53Z</time>
      </trkpt>
      <trkpt lat="45.88625" lon="2.94153">
        <ele>834.022326</ele>
        <time>2022-03-05T18:35:15Z</time>
      </trkpt>
      <trkpt lat="45.88623" lon="2.94172">
        <ele>833.729246</ele>
        <time>2022-03-05T18:35:29Z</time>
      </trkpt>
      <trkpt lat="45.88618" lon="2.94201">
        <ele>833.25238</ele>
        <time>2022-03-05T18:35:51Z</time>
      </trkpt>
      <trkpt lat="45.88596" lon="2.94205">
        <ele>832.727272</ele>
        <time>2022-03-05T18:36:15Z</time>
      </trkpt>
      <trkpt lat="45.88588" lon="2.94194">
        <ele>832.423813</ele>
        <time>2022-03-05T18:36:27Z</time>
      </trkpt>
      <trkpt lat="45.88547" lon="2.94231">
        <ele>831.125523</ele>
        <time>2022-03-05T18:37:18Z</time>
      </trkpt>
      <trkpt lat="45.88543" lon="2.94251">
        <ele>830.75013</ele>
        <time>2022-03-05T18:37:33Z</time>
      </trkpt>
      <trkpt lat="45.88521" lon="2.94287">
        <ele>829.836225</ele>
        <time>2022-03-05T18:38:08Z</time>
      </trkpt>
      <trkpt lat="45.88433" lon="2.94365">
        <ele>827.288842</ele>
        <time>2022-03-05T18:39:57Z</time>
      </trkpt>
      <trkpt lat="45.88412" lon="2.94412">
        <ele>826.476442</ele>
        <time>2022-03-05T18:40:38Z</time>
      </trkpt>
      <trkpt lat="45.88389" lon="2.94455">
        <ele>825.687577</ele>
        <time>2022-03-05T18:41:17Z</time>
      </trkpt>
      <trkpt lat="45.88366" lon="2.94486">
        <ele>825.01915</ele>
        <time>2022-03-05T18:41:50Z</time>
      </trkpt>
      <trkpt lat="45.88315" lon="2.9453">
        <ele>824.490622</ele>
        <time>2022-03-05T18:42:52Z</time>
      </trkpt>
      <trkpt lat="45.88285" lon="2.94503">
        <ele>824.764282</ele>
        <time>2022-03-05T18:43:28Z</time>
      </trkpt>
      <trkpt lat="45.88177" lon="2.94503">
        <ele>825.590432</ele>
        <time>2022-03-05T18:45:21Z</time>
      </trkpt>
      <trkpt lat="45.88124" lon="2.94484">
        <ele>827.009565</ele>
        <time>2022-03-05T18:46:22Z</time>
      </trkpt>
      <trkpt lat="45.88122" lon="2.94484">
        <ele>827.07092</ele>
        <time>2022-03-05T18:46:25Z</time>
      </trkpt>
      <trkpt lat="45.88071" lon="2.94476">
        <ele>828.626041</ele>
        <time>2022-03-05T18:47:22Z</time>
      </trkpt>
      <trkpt lat="45.88058" lon="2.9443">
        <ele>829.681714</ele>
        <time>2022-03-05T18:48:01Z</time>
      </trkpt>
      <trkpt lat="45.87993" lon="2.9434">
        <ele>831.811224</ele>
        <time>2022-03-05T18:49:40Z</time>
      </trkpt>
      <trkpt lat="45.8792" lon="2.94274">
        <ele>833.150647</ele>
        <time>2022-03-05T18:51:11Z</time>
      </trkpt>
      <trkpt lat="45.87931" lon="2.94226">
        <ele>833.696611</ele>
        <time>2022-03-05T18:51:46Z</time>
      </trkpt>
      <trkpt lat="45.87908" lon="2.9415">
        <ele>834.787276</ele>
        <time>2022-03-05T18:52:45Z</time>
      </trkpt>
      <trkpt lat="45.87907" lon="2.94132">
        <ele>835.043817</ele>
        <time>2022-03-05T18:52:58Z</time>
      </trkpt>
      <trkpt lat="45.87911" lon="2.94113">
        <ele>835.316053</ele>
        <time>2022-03-05T18:53:12Z</time>
      </trkpt>
      <trkpt lat="45.87908" lon="2.94091">
        <ele>835.631637</ele>
        <time>2022-03-05T18:53:29Z</time>
      </trkpt>
      <trkpt lat="45.87863" lon="2.94013">
        <ele>837.072286</ele>
        <time>2022-03-05T18:54:46Z</time>
      </trkpt>
      <trkpt lat="45.87825" lon="2.94">
        <ele>838.115783</ele>
        <time>2022-03-05T18:55:30Z</time>
      </trkpt>
      <trkpt lat="45.87803" lon="2.93991">
        <ele>839.036181</ele>
        <time>2022-03-05T18:55:55Z</time>
      </trkpt>
      <trkpt lat="45.8778" lon="2.93982">
        <ele>840.020464</ele>
        <time>2022-03-05T18:56:23Z</time>
      </trkpt>
      <trkpt lat="45.87734" lon="2.93946">
        <ele>842.162034</ele>
        <time>2022-03-05T18:57:23Z</time>
      </trkpt>
      <trkpt lat="45.87711" lon="2.93936">
        <ele>843.174853</ele>
        <time>2022-03-05T18:57:52Z</time>
      </trkpt>
      <trkpt lat="45.87635" lon="2.93922">
        <ele>845.917609</ele>
        <time>2022-03-05T18:59:20Z</time>
      </trkpt>
      <trkpt lat="45.87578" lon="2.93896">
        <ele>847.669945</ele>
        <time>2022-03-05T19:00:26Z</time>
      </trkpt>
      <trkpt lat="45.87538" lon="2.93968">
        <ele>849.533434</ele>
        <time>2022-03-05T19:01:36Z</time>
      </trkpt>
      <trkpt lat="45.87531" lon="2.93995">
        <ele>850.107041</ele>
        <time>2022-03-05T19:01:57Z</time>
      </trkpt>
      <trkpt lat="45.8754" lon="2.94091">
        <ele>851.857861</ele>
        <time>2022-03-05T19:03:10Z</time>
      </trkpt>
      <trkpt lat="45.87555" lon="2.94137">
        <ele>852.757757</ele>
        <time>2022-03-05T19:03:47Z</time>
      </trkpt>
      <trkpt lat="45.87551" lon="2.94191">
        <ele>853.719495</ele>
        <time>2022-03-05T19:04:28Z</time>
      </trkpt>
      <trkpt lat="45.87513" lon="2.94346">
        <ele>858.828088</ele>
        <time>2022-03-05T19:06:38Z</time>
      </trkpt>
      <trkpt lat="45.87475" lon="2.94425">
        <ele>862.528808</ele>
        <time>2022-03-05T19:07:59Z</time>
      </trkpt>
      <trkpt lat="45.87395" lon="2.94552">
        <ele>870.233307</ele>
        <time>2022-03-05T19:10:29Z</time>
      </trkpt>
      <trkpt lat="45.87333" lon="2.94685">
        <ele>877.701657</ele>
        <time>2022-03-05T19:12:47Z</time>
      </trkpt>
      <trkpt lat="45.873" lon="2.94855">
        <ele>883.588278</ele>
        <time>2022-03-05T19:15:09Z</time>
      </trkpt>
      <trkpt lat="45.87276" lon="2.94892">
        <ele>885.272414</ele>
        <time>2022-03-05T19:15:50Z</time>
      </trkpt>
      <trkpt lat="45.8725" lon="2.94952">
        <ele>887.63389</ele>
        <time>2022-03-05T19:16:45Z</time>
      </trkpt>
      <trkpt lat="45.87231" lon="2.94978">
        <ele>888.918736</ele>
        <time>2022-03-05T19:17:16Z</time>
      </trkpt>
      <trkpt lat="45.87173" lon="2.95054">
        <ele>892.739465</ele>
        <time>2022-03-05T19:18:49Z</time>
      </trkpt>
      <trkpt lat="45.87123" lon="2.95091">
        <ele>895.414629</ele>
        <time>2022-03-05T19:19:56Z</time>
      </trkpt>
      <trkpt lat="45.87074" lon="2.95116">
        <ele>897.714033</ele>
        <time>2022-03-05T19:20:56Z</time>
      </trkpt>
      <trkpt lat="45.87011" lon="2.95107">
        <ele>900.568804</ele>
        <time>2022-03-05T19:22:09Z</time>
      </trkpt>
      <trkpt lat="45.86922" lon="2.95166">
        <ele>904.851733</ele>
        <time>2022-03-05T19:24:01Z</time>
      </trkpt>
      <trkpt lat="45.86889" lon="2.95173">
        <ele>906.262438</ele>
        <time>2022-03-05T19:24:39Z</time>
      </trkpt>
      <trkpt lat="45.86806" lon="2.95301">
        <ele>910.730096</ele>
        <time>2022-03-05T19:27:00Z</time>
      </trkpt>
      <trkpt lat="45.8679" lon="2.95387">
        <ele>911.614924</ele>
        <time>2022-03-05T19:28:10Z</time>
      </trkpt>
    </trkseg>
  </trk>
  <trk>
    <name><![CDATA[J2]]></name>
    <extensions>
      <line xmlns="http://www.topografix.com/GPX/gpx_style/0/2">
        <color>00f900</color>
        <width>4</width>
      </line>
    </extensions>
    <trkseg>
      <trkpt lat="45.8679" lon="2.95387">
        <ele>911.614924</ele>
        <time>2022-03-05T19:28:10Z</time>
      </trkpt>
      <trkpt lat="45.86782" lon="2.95299">
        <ele>912.496163</ele>
        <time>2022-03-05T19:29:13Z</time>
      </trkpt>
      <trkpt lat="45.86771" lon="2.95237">
        <ele>912.185254</ele>
        <time>2022-03-05T19:29:58Z</time>
      </trkpt>
      <trkpt lat="45.86768" lon="2.95166">
        <ele>909.732002</ele>
        <time>2022-03-05T19:30:53Z</time>
      </trkpt>
      <trkpt lat="45.86786" lon="2.94976">
        <ele>902.750419</ele>
        <time>2022-03-05T19:33:22Z</time>
      </trkpt>
      <trkpt lat="45.86788" lon="2.94972">
        <ele>902.530589</ele>
        <time>2022-03-05T19:33:26Z</time>
      </trkpt>
      <trkpt lat="45.86825" lon="2.94858">
        <ele>896.242768</ele>
        <time>2022-03-05T19:35:07Z</time>
      </trkpt>
      <trkpt lat="45.86799" lon="2.94643">
        <ele>885.700803</ele>
        <time>2022-03-05T19:38:01Z</time>
      </trkpt>
      <trkpt lat="45.868" lon="2.94556">
        <ele>881.613432</ele>
        <time>2022-03-05T19:39:10Z</time>
      </trkpt>
      <trkpt lat="45.86728" lon="2.94494">
        <ele>877.394541</ele>
        <time>2022-03-05T19:40:44Z</time>
      </trkpt>
      <trkpt lat="45.86658" lon="2.94444">
        <ele>874.590745</ele>
        <time>2022-03-05T19:42:08Z</time>
      </trkpt>
      <trkpt lat="45.86602" lon="2.94378">
        <ele>872.459723</ele>
        <time>2022-03-05T19:43:23Z</time>
      </trkpt>
      <trkpt lat="45.86469" lon="2.94179">
        <ele>870.760891</ele>
        <time>2022-03-05T19:46:38Z</time>
      </trkpt>
      <trkpt lat="45.86383" lon="2.94076">
        <ele>869.264153</ele>
        <time>2022-03-05T19:48:33Z</time>
      </trkpt>
      <trkpt lat="45.86349" lon="2.94023">
        <ele>868.639131</ele>
        <time>2022-03-05T19:49:25Z</time>
      </trkpt>
      <trkpt lat="45.86322" lon="2.9399">
        <ele>868.292446</ele>
        <time>2022-03-05T19:50:02Z</time>
      </trkpt>
      <trkpt lat="45.86293" lon="2.93936">
        <ele>867.839324</ele>
        <time>2022-03-05T19:50:51Z</time>
      </trkpt>
      <trkpt lat="45.86292" lon="2.93903">
        <ele>867.614869</ele>
        <time>2022-03-05T19:51:14Z</time>
      </trkpt>
      <trkpt lat="45.86373" lon="2.93497">
        <ele>868.366038</ele>
        <time>2022-03-05T19:56:12Z</time>
      </trkpt>
      <trkpt lat="45.86289" lon="2.93209">
        <ele>872.856634</ele>
        <time>2022-03-05T20:00:06Z</time>
      </trkpt>
      <trkpt lat="45.86257" lon="2.93187">
        <ele>873.825966</ele>
        <time>2022-03-05T20:00:46Z</time>
      </trkpt>
      <trkpt lat="45.86192" lon="2.9319">
        <ele>875.551818</ele>
        <time>2022-03-05T20:01:59Z</time>
      </trkpt>
      <trkpt lat="45.86173" lon="2.93205">
        <ele>876.023088</ele>
        <time>2022-03-05T20:02:23Z</time>
      </trkpt>
      <trkpt lat="45.86093" lon="2.93239">
        <ele>877.8047</ele>
        <time>2022-03-05T20:03:53Z</time>
      </trkpt>
      <trkpt lat="45.86023" lon="2.9322">
        <ele>879.26877</ele>
        <time>2022-03-05T20:05:08Z</time>
      </trkpt>
      <trkpt lat="45.86004" lon="2.93155">
        <ele>879.703615</ele>
        <time>2022-03-05T20:05:59Z</time>
      </trkpt>
      <trkpt lat="45.86026" lon="2.93014">
        <ele>880.588639</ele>
        <time>2022-03-05T20:07:42Z</time>
      </trkpt>
      <trkpt lat="45.86044" lon="2.92859">
        <ele>881.465925</ele>
        <time>2022-03-05T20:09:35Z</time>
      </trkpt>
      <trkpt lat="45.86012" lon="2.92592">
        <ele>882.734512</ele>
        <time>2022-03-05T20:12:49Z</time>
      </trkpt>
      <trkpt lat="45.86012" lon="2.92542">
        <ele>882.930238</ele>
        <time>2022-03-05T20:13:24Z</time>
      </trkpt>
      <trkpt lat="45.86018" lon="2.92505">
        <ele>883.080814</ele>
        <time>2022-03-05T20:13:52Z</time>
      </trkpt>
      <trkpt lat="45.86017" lon="2.92459">
        <ele>883.253253</ele>
        <time>2022-03-05T20:14:24Z</time>
      </trkpt>
      <trkpt lat="45.86006" lon="2.92418">
        <ele>883.387143</ele>
        <time>2022-03-05T20:14:55Z</time>
      </trkpt>
      <trkpt lat="45.85982" lon="2.92388">
        <ele>883.521827</ele>
        <time>2022-03-05T20:15:27Z</time>
      </trkpt>
      <trkpt lat="45.85963" lon="2.9227">
        <ele>883.885763</ele>
        <time>2022-03-05T20:16:52Z</time>
      </trkpt>
      <trkpt lat="45.85964" lon="2.92214">
        <ele>884.281829</ele>
        <time>2022-03-05T20:17:33Z</time>
      </trkpt>
      <trkpt lat="45.85952" lon="2.92136">
        <ele>885.463118</ele>
        <time>2022-03-05T20:18:32Z</time>
      </trkpt>
      <trkpt lat="45.85944" lon="2.92114">
        <ele>885.81992</ele>
        <time>2022-03-05T20:18:50Z</time>
      </trkpt>
      <trkpt lat="45.85938" lon="2.92109">
        <ele>885.975439</ele>
        <time>2022-03-05T20:18:58Z</time>
      </trkpt>
      <trkpt lat="45.85888" lon="2.92128">
        <ele>887.074507</ele>
        <time>2022-03-05T20:19:54Z</time>
      </trkpt>
      <trkpt lat="45.85848" lon="2.9214">
        <ele>887.91963</ele>
        <time>2022-03-05T20:20:39Z</time>
      </trkpt>
      <trkpt lat="45.85822" lon="2.92169">
        <ele>888.609485</ele>
        <time>2022-03-05T20:21:16Z</time>
      </trkpt>
      <trkpt lat="45.85774" lon="2.92206">
        <ele>889.763584</ele>
        <time>2022-03-05T20:22:16Z</time>
      </trkpt>
      <trkpt lat="45.85679" lon="2.92249">
        <ele>891.565911</ele>
        <time>2022-03-05T20:24:01Z</time>
      </trkpt>
      <trkpt lat="45.85535" lon="2.91975">
        <ele>890.507271</ele>
        <time>2022-03-05T20:28:03Z</time>
      </trkpt>
      <trkpt lat="45.85507" lon="2.91948">
        <ele>890.189281</ele>
        <time>2022-03-05T20:28:37Z</time>
      </trkpt>
      <trkpt lat="45.85428" lon="2.91798">
        <ele>888.698759</ele>
        <time>2022-03-05T20:30:52Z</time>
      </trkpt>
      <trkpt lat="45.8541" lon="2.91765">
        <ele>888.296164</ele>
        <time>2022-03-05T20:31:22Z</time>
      </trkpt>
      <trkpt lat="45.85403" lon="2.91764">
        <ele>888.198847</ele>
        <time>2022-03-05T20:31:29Z</time>
      </trkpt>
      <trkpt lat="45.85391" lon="2.91707">
        <ele>887.621752</ele>
        <time>2022-03-05T20:32:12Z</time>
      </trkpt>
      <trkpt lat="45.85379" lon="2.91593">
        <ele>886.240239</ele>
        <time>2022-03-05T20:33:35Z</time>
      </trkpt>
      <trkpt lat="45.85361" lon="2.91584">
        <ele>885.82552</ele>
        <time>2022-03-05T20:33:55Z</time>
      </trkpt>
      <trkpt lat="45.85332" lon="2.91542">
        <ele>884.961301</ele>
        <time>2022-03-05T20:34:37Z</time>
      </trkpt>
      <trkpt lat="45.85309" lon="2.91488">
        <ele>884.022159</ele>
        <time>2022-03-05T20:35:23Z</time>
      </trkpt>
      <trkpt lat="45.85269" lon="2.91427">
        <ele>882.638119</ele>
        <time>2022-03-05T20:36:26Z</time>
      </trkpt>
      <trkpt lat="45.85261" lon="2.91406">
        <ele>882.179955</ele>
        <time>2022-03-05T20:36:43Z</time>
      </trkpt>
      <trkpt lat="45.85257" lon="2.91374">
        <ele>881.539534</ele>
        <time>2022-03-05T20:37:07Z</time>
      </trkpt>
      <trkpt lat="45.85244" lon="2.91345">
        <ele>880.863433</ele>
        <time>2022-03-05T20:37:33Z</time>
      </trkpt>
      <trkpt lat="45.85239" lon="2.91324">
        <ele>880.417854</ele>
        <time>2022-03-05T20:37:50Z</time>
      </trkpt>
      <trkpt lat="45.85237" lon="2.91317">
        <ele>880.277387</ele>
        <time>2022-03-05T20:37:55Z</time>
      </trkpt>
      <trkpt lat="45.85166" lon="2.91273">
        <ele>878.09309</ele>
        <time>2022-03-05T20:39:17Z</time>
      </trkpt>
      <trkpt lat="45.85143" lon="2.91266">
        <ele>877.58138</ele>
        <time>2022-03-05T20:39:41Z</time>
      </trkpt>
      <trkpt lat="45.85103" lon="2.91273">
        <ele>876.670538</ele>
        <time>2022-03-05T20:40:24Z</time>
      </trkpt>
      <trkpt lat="45.85018" lon="2.91237">
        <ele>874.662862</ele>
        <time>2022-03-05T20:41:57Z</time>
      </trkpt>
      <trkpt lat="45.84989" lon="2.91229">
        <ele>874.010904</ele>
        <time>2022-03-05T20:42:27Z</time>
      </trkpt>
      <trkpt lat="45.84967" lon="2.9123">
        <ele>873.41553</ele>
        <time>2022-03-05T20:42:51Z</time>
      </trkpt>
      <trkpt lat="45.84903" lon="2.9122">
        <ele>871.734417</ele>
        <time>2022-03-05T20:43:58Z</time>
      </trkpt>
      <trkpt lat="45.84858" lon="2.91196">
        <ele>870.488871</ele>
        <time>2022-03-05T20:44:48Z</time>
      </trkpt>
      <trkpt lat="45.84833" lon="2.91161">
        <ele>869.576846</ele>
        <time>2022-03-05T20:45:26Z</time>
      </trkpt>
      <trkpt lat="45.84806" lon="2.9107">
        <ele>866.587716</ele>
        <time>2022-03-05T20:46:41Z</time>
      </trkpt>
      <trkpt lat="45.84706" lon="2.9103">
        <ele>861.908935</ele>
        <time>2022-03-05T20:48:35Z</time>
      </trkpt>
      <trkpt lat="45.84638" lon="2.91019">
        <ele>858.956605</ele>
        <time>2022-03-05T20:49:51Z</time>
      </trkpt>
      <trkpt lat="45.84644" lon="2.90881">
        <ele>854.894007</ele>
        <time>2022-03-05T20:51:36Z</time>
      </trkpt>
      <trkpt lat="45.84619" lon="2.90783">
        <ele>852.121294</ele>
        <time>2022-03-05T20:52:53Z</time>
      </trkpt>
      <trkpt lat="45.84618" lon="2.90766">
        <ele>851.712071</ele>
        <time>2022-03-05T20:53:05Z</time>
      </trkpt>
      <trkpt lat="45.84628" lon="2.90683">
        <ele>849.644762</ele>
        <time>2022-03-05T20:54:08Z</time>
      </trkpt>
      <trkpt lat="45.84615" lon="2.90623">
        <ele>848.096838</ele>
        <time>2022-03-05T20:54:55Z</time>
      </trkpt>
      <trkpt lat="45.84617" lon="2.90599">
        <ele>847.49709</ele>
        <time>2022-03-05T20:55:13Z</time>
      </trkpt>
      <trkpt lat="45.84634" lon="2.90529">
        <ele>844.990401</ele>
        <time>2022-03-05T20:56:09Z</time>
      </trkpt>
      <trkpt lat="45.84639" lon="2.90493">
        <ele>843.72221</ele>
        <time>2022-03-05T20:56:37Z</time>
      </trkpt>
      <trkpt lat="45.84631" lon="2.90377">
        <ele>839.674626</ele>
        <time>2022-03-05T20:58:07Z</time>
      </trkpt>
      <trkpt lat="45.84624" lon="2.90338">
        <ele>838.272177</ele>
        <time>2022-03-05T20:58:40Z</time>
      </trkpt>
      <trkpt lat="45.84588" lon="2.90243">
        <ele>834.525618</ele>
        <time>2022-03-05T21:00:03Z</time>
      </trkpt>
      <trkpt lat="45.84562" lon="2.90152">
        <ele>831.088413</ele>
        <time>2022-03-05T21:01:18Z</time>
      </trkpt>
      <trkpt lat="45.84649" lon="2.90089">
        <ele>826.564092</ele>
        <time>2022-03-05T21:03:04Z</time>
      </trkpt>
      <trkpt lat="45.84648" lon="2.90079">
        <ele>826.266086</ele>
        <time>2022-03-05T21:03:12Z</time>
      </trkpt>
      <trkpt lat="45.84645" lon="2.90067">
        <ele>825.863996</ele>
        <time>2022-03-05T21:03:21Z</time>
      </trkpt>
      <trkpt lat="45.84675" lon="2.89998">
        <ele>823.365992</ele>
        <time>2022-03-05T21:04:22Z</time>
      </trkpt>
      <trkpt lat="45.84679" lon="2.89978">
        <ele>822.743636</ele>
        <time>2022-03-05T21:04:38Z</time>
      </trkpt>
      <trkpt lat="45.84676" lon="2.89927">
        <ele>821.128545</ele>
        <time>2022-03-05T21:05:18Z</time>
      </trkpt>
      <trkpt lat="45.84713" lon="2.8988">
        <ele>818.718986</ele>
        <time>2022-03-05T21:06:12Z</time>
      </trkpt>
      <trkpt lat="45.8472" lon="2.89862">
        <ele>818.03201</ele>
        <time>2022-03-05T21:06:28Z</time>
      </trkpt>
      <trkpt lat="45.84725" lon="2.89852">
        <ele>817.603647</ele>
        <time>2022-03-05T21:06:38Z</time>
      </trkpt>
      <trkpt lat="45.84753" lon="2.8981">
        <ele>815.639396</ele>
        <time>2022-03-05T21:07:23Z</time>
      </trkpt>
      <trkpt lat="45.84781" lon="2.89785">
        <ele>814.039364</ele>
        <time>2022-03-05T21:07:59Z</time>
      </trkpt>
      <trkpt lat="45.84825" lon="2.8976">
        <ele>812.502374</ele>
        <time>2022-03-05T21:08:51Z</time>
      </trkpt>
      <trkpt lat="45.84837" lon="2.89759">
        <ele>812.417491</ele>
        <time>2022-03-05T21:09:04Z</time>
      </trkpt>
      <trkpt lat="45.84828" lon="2.89671">
        <ele>811.987495</ele>
        <time>2022-03-05T21:10:08Z</time>
      </trkpt>
      <trkpt lat="45.84826" lon="2.89633">
        <ele>811.797772</ele>
        <time>2022-03-05T21:10:36Z</time>
      </trkpt>
      <trkpt lat="45.84868" lon="2.89484">
        <ele>812.020295</ele>
        <time>2022-03-05T21:12:34Z</time>
      </trkpt>
      <trkpt lat="45.84884" lon="2.89435">
        <ele>812.497962</ele>
        <time>2022-03-05T21:13:16Z</time>
      </trkpt>
      <trkpt lat="45.84892" lon="2.89384">
        <ele>812.957297</ele>
        <time>2022-03-05T21:13:54Z</time>
      </trkpt>
      <trkpt lat="45.84878" lon="2.89359">
        <ele>813.231788</ele>
        <time>2022-03-05T21:14:17Z</time>
      </trkpt>
      <trkpt lat="45.84865" lon="2.89303">
        <ele>813.443597</ele>
        <time>2022-03-05T21:14:59Z</time>
      </trkpt>
      <trkpt lat="45.84861" lon="2.89269">
        <ele>812.89899</ele>
        <time>2022-03-05T21:15:23Z</time>
      </trkpt>
      <trkpt lat="45.84872" lon="2.89252">
        <ele>812.520402</ele>
        <time>2022-03-05T21:15:40Z</time>
      </trkpt>
      <trkpt lat="45.84883" lon="2.89193">
        <ele>811.539049</ele>
        <time>2022-03-05T21:16:25Z</time>
      </trkpt>
      <trkpt lat="45.84889" lon="2.891">
        <ele>810.0498</ele>
        <time>2022-03-05T21:17:34Z</time>
      </trkpt>
      <trkpt lat="45.84906" lon="2.89002">
        <ele>807.98333</ele>
        <time>2022-03-05T21:18:50Z</time>
      </trkpt>
      <trkpt lat="45.84798" lon="2.88838">
        <ele>803.056437</ele>
        <time>2022-03-05T21:21:38Z</time>
      </trkpt>
      <trkpt lat="45.84803" lon="2.88826">
        <ele>802.798232</ele>
        <time>2022-03-05T21:21:48Z</time>
      </trkpt>
      <trkpt lat="45.84792" lon="2.88746">
        <ele>801.293603</ele>
        <time>2022-03-05T21:22:47Z</time>
      </trkpt>
      <trkpt lat="45.84737" lon="2.88524">
        <ele>796.618757</ele>
        <time>2022-03-05T21:25:41Z</time>
      </trkpt>
      <trkpt lat="45.84733" lon="2.88506">
        <ele>796.206547</ele>
        <time>2022-03-05T21:25:55Z</time>
      </trkpt>
      <trkpt lat="45.84714" lon="2.88476">
        <ele>795.33931</ele>
        <time>2022-03-05T21:26:25Z</time>
      </trkpt>
      <trkpt lat="45.84651" lon="2.88288">
        <ele>791.339262</ele>
        <time>2022-03-05T21:29:00Z</time>
      </trkpt>
      <trkpt lat="45.84637" lon="2.88206">
        <ele>789.863373</ele>
        <time>2022-03-05T21:30:02Z</time>
      </trkpt>
      <trkpt lat="45.84637" lon="2.88092">
        <ele>788.13702</ele>
        <time>2022-03-05T21:31:24Z</time>
      </trkpt>
      <trkpt lat="45.84667" lon="2.87923">
        <ele>785.855013</ele>
        <time>2022-03-05T21:33:29Z</time>
      </trkpt>
      <trkpt lat="45.84678" lon="2.87801">
        <ele>783.65891</ele>
        <time>2022-03-05T21:35:00Z</time>
      </trkpt>
      <trkpt lat="45.84685" lon="2.87724">
        <ele>782.176088</ele>
        <time>2022-03-05T21:35:58Z</time>
      </trkpt>
      <trkpt lat="45.84688" lon="2.87613">
        <ele>780.293729</ele>
        <time>2022-03-05T21:37:19Z</time>
      </trkpt>
      <trkpt lat="45.84684" lon="2.87559">
        <ele>779.687597</ele>
        <time>2022-03-05T21:38:00Z</time>
      </trkpt>
      <trkpt lat="45.84689" lon="2.87352">
        <ele>777.460176</ele>
        <time>2022-03-05T21:40:28Z</time>
      </trkpt>
      <trkpt lat="45.84669" lon="2.87232">
        <ele>776.317347</ele>
        <time>2022-03-05T21:41:54Z</time>
      </trkpt>
      <trkpt lat="45.84634" lon="2.86971">
        <ele>771.000735</ele>
        <time>2022-03-05T21:45:09Z</time>
      </trkpt>
      <trkpt lat="45.84663" lon="2.86757">
        <ele>762.825422</ele>
        <time>2022-03-05T21:47:59Z</time>
      </trkpt>
      <trkpt lat="45.84666" lon="2.86696">
        <ele>759.999413</ele>
        <time>2022-03-05T21:48:48Z</time>
      </trkpt>
      <trkpt lat="45.8472" lon="2.8661">
        <ele>754.629692</ele>
        <time>2022-03-05T21:50:20Z</time>
      </trkpt>
      <trkpt lat="45.84675" lon="2.86519">
        <ele>749.475123</ele>
        <time>2022-03-05T21:51:49Z</time>
      </trkpt>
      <trkpt lat="45.84626" lon="2.86441">
        <ele>744.606888</ele>
        <time>2022-03-05T21:53:12Z</time>
      </trkpt>
      <trkpt lat="45.846" lon="2.86396">
        <ele>743.286784</ele>
        <time>2022-03-05T21:53:57Z</time>
      </trkpt>
      <trkpt lat="45.84595" lon="2.86381">
        <ele>742.915812</ele>
        <time>2022-03-05T21:54:10Z</time>
      </trkpt>
      <trkpt lat="45.84588" lon="2.86363">
        <ele>742.467766</ele>
        <time>2022-03-05T21:54:25Z</time>
      </trkpt>
      <trkpt lat="45.84533" lon="2.86361">
        <ele>740.666798</ele>
        <time>2022-03-05T21:55:24Z</time>
      </trkpt>
      <trkpt lat="45.84506" lon="2.86355">
        <ele>739.779122</ele>
        <time>2022-03-05T21:55:53Z</time>
      </trkpt>
      <trkpt lat="45.84472" lon="2.86301">
        <ele>738.877518</ele>
        <time>2022-03-05T21:56:44Z</time>
      </trkpt>
      <trkpt lat="45.8443" lon="2.86273">
        <ele>739.072867</ele>
        <time>2022-03-05T21:57:32Z</time>
      </trkpt>
      <trkpt lat="45.84367" lon="2.86257">
        <ele>739.343244</ele>
        <time>2022-03-05T21:58:39Z</time>
      </trkpt>
      <trkpt lat="45.84299" lon="2.86218">
        <ele>739.732717</ele>
        <time>2022-03-05T21:59:53Z</time>
      </trkpt>
      <trkpt lat="45.84274" lon="2.86209">
        <ele>739.934095</ele>
        <time>2022-03-05T22:00:19Z</time>
      </trkpt>
      <trkpt lat="45.84144" lon="2.86188">
        <ele>740.943839</ele>
        <time>2022-03-05T22:02:33Z</time>
      </trkpt>
      <trkpt lat="45.84102" lon="2.86203">
        <ele>741.982819</ele>
        <time>2022-03-05T22:03:19Z</time>
      </trkpt>
      <trkpt lat="45.84086" lon="2.86221">
        <ele>742.454521</ele>
        <time>2022-03-05T22:03:40Z</time>
      </trkpt>
      <trkpt lat="45.84068" lon="2.86253">
        <ele>743.133187</ele>
        <time>2022-03-05T22:04:12Z</time>
      </trkpt>
      <trkpt lat="45.84053" lon="2.86306">
        <ele>744.078642</ele>
        <time>2022-03-05T22:04:56Z</time>
      </trkpt>
      <trkpt lat="45.8404" lon="2.86323">
        <ele>744.50333</ele>
        <time>2022-03-05T22:05:16Z</time>
      </trkpt>
      <trkpt lat="45.8398" lon="2.8634">
        <ele>745.852781</ele>
        <time>2022-03-05T22:06:24Z</time>
      </trkpt>
      <trkpt lat="45.83967" lon="2.86324">
        <ele>746.205258</ele>
        <time>2022-03-05T22:06:43Z</time>
      </trkpt>
      <trkpt lat="45.83948" lon="2.86302">
        <ele>746.708528</ele>
        <time>2022-03-05T22:07:09Z</time>
      </trkpt>
      <trkpt lat="45.83937" lon="2.86302">
        <ele>746.925863</ele>
        <time>2022-03-05T22:07:21Z</time>
      </trkpt>
      <trkpt lat="45.8389" lon="2.8635">
        <ele>748.108732</ele>
        <time>2022-03-05T22:08:23Z</time>
      </trkpt>
      <trkpt lat="45.83867" lon="2.86351">
        <ele>748.588508</ele>
        <time>2022-03-05T22:08:48Z</time>
      </trkpt>
      <trkpt lat="45.83791" lon="2.86401">
        <ele>747.421491</ele>
        <time>2022-03-05T22:10:12Z</time>
      </trkpt>
      <trkpt lat="45.83735" lon="2.86469">
        <ele>745.840926</ele>
        <time>2022-03-05T22:11:29Z</time>
      </trkpt>
      <trkpt lat="45.83697" lon="2.86495">
        <ele>744.775452</ele>
        <time>2022-03-05T22:12:16Z</time>
      </trkpt>
      <trkpt lat="45.83672" lon="2.8648">
        <ele>742.944162</ele>
        <time>2022-03-05T22:12:47Z</time>
      </trkpt>
      <trkpt lat="45.83649" lon="2.86485">
        <ele>741.438974</ele>
        <time>2022-03-05T22:13:12Z</time>
      </trkpt>
      <trkpt lat="45.8363" lon="2.86499">
        <ele>740.010098</ele>
        <time>2022-03-05T22:13:37Z</time>
      </trkpt>
      <trkpt lat="45.83594" lon="2.86511">
        <ele>737.561558</ele>
        <time>2022-03-05T22:14:19Z</time>
      </trkpt>
      <trkpt lat="45.83566" lon="2.86501">
        <ele>735.635562</ele>
        <time>2022-03-05T22:14:53Z</time>
      </trkpt>
      <trkpt lat="45.83533" lon="2.86506">
        <ele>733.412207</ele>
        <time>2022-03-05T22:15:31Z</time>
      </trkpt>
      <trkpt lat="45.83498" lon="2.86478">
        <ele>731.670099</ele>
        <time>2022-03-05T22:16:16Z</time>
      </trkpt>
      <trkpt lat="45.83499" lon="2.86445">
        <ele>730.749961</ele>
        <time>2022-03-05T22:16:43Z</time>
      </trkpt>
      <trkpt lat="45.83492" lon="2.86474">
        <ele>729.903438</ele>
        <time>2022-03-05T22:17:06Z</time>
      </trkpt>
      <trkpt lat="45.83487" lon="2.86466">
        <ele>729.600652</ele>
        <time>2022-03-05T22:17:15Z</time>
      </trkpt>
      <trkpt lat="45.83476" lon="2.8638">
        <ele>727.217838</ele>
        <time>2022-03-05T22:18:18Z</time>
      </trkpt>
      <trkpt lat="45.83467" lon="2.86346">
        <ele>726.202224</ele>
        <time>2022-03-05T22:18:45Z</time>
      </trkpt>
      <trkpt lat="45.83459" lon="2.86334">
        <ele>725.919945</ele>
        <time>2022-03-05T22:18:57Z</time>
      </trkpt>
      <trkpt lat="45.83449" lon="2.86288">
        <ele>725.602291</ele>
        <time>2022-03-05T22:19:32Z</time>
      </trkpt>
      <trkpt lat="45.83386" lon="2.86125">
        <ele>724.389846</ele>
        <time>2022-03-05T22:21:44Z</time>
      </trkpt>
      <trkpt lat="45.83373" lon="2.86051">
        <ele>725.017496</ele>
        <time>2022-03-05T22:22:37Z</time>
      </trkpt>
      <trkpt lat="45.83324" lon="2.8606">
        <ele>725.879202</ele>
        <time>2022-03-05T22:23:28Z</time>
      </trkpt>
      <trkpt lat="45.83286" lon="2.86">
        <ele>726.867775</ele>
        <time>2022-03-05T22:24:30Z</time>
      </trkpt>
      <trkpt lat="45.83264" lon="2.86048">
        <ele>727.842506</ele>
        <time>2022-03-05T22:25:16Z</time>
      </trkpt>
      <trkpt lat="45.83222" lon="2.86083">
        <ele>730.316107</ele>
        <time>2022-03-05T22:26:13Z</time>
      </trkpt>
      <trkpt lat="45.83202" lon="2.8611">
        <ele>731.680248</ele>
        <time>2022-03-05T22:26:45Z</time>
      </trkpt>
      <trkpt lat="45.83159" lon="2.86135">
        <ele>734.050645</ele>
        <time>2022-03-05T22:27:41Z</time>
      </trkpt>
      <trkpt lat="45.83148" lon="2.86153">
        <ele>734.88289</ele>
        <time>2022-03-05T22:28:01Z</time>
      </trkpt>
      <trkpt lat="45.83096" lon="2.86248">
        <ele>738.6299</ele>
        <time>2022-03-05T22:29:41Z</time>
      </trkpt>
      <trkpt lat="45.83091" lon="2.8632">
        <ele>740.667987</ele>
        <time>2022-03-05T22:30:38Z</time>
      </trkpt>
      <trkpt lat="45.83067" lon="2.86345">
        <ele>741.856411</ele>
        <time>2022-03-05T22:31:11Z</time>
      </trkpt>
      <trkpt lat="45.83027" lon="2.86364">
        <ele>743.566909</ele>
        <time>2022-03-05T22:31:58Z</time>
      </trkpt>
      <trkpt lat="45.82992" lon="2.86406">
        <ele>744.738599</ele>
        <time>2022-03-05T22:32:49Z</time>
      </trkpt>
      <trkpt lat="45.82867" lon="2.8643">
        <ele>747.649498</ele>
        <time>2022-03-05T22:35:04Z</time>
      </trkpt>
      <trkpt lat="45.82838" lon="2.86484">
        <ele>748.284092</ele>
        <time>2022-03-05T22:35:55Z</time>
      </trkpt>
      <trkpt lat="45.82761" lon="2.86483">
        <ele>748.979333</ele>
        <time>2022-03-05T22:37:16Z</time>
      </trkpt>
      <trkpt lat="45.8267" lon="2.86632">
        <ele>750.004071</ele>
        <time>2022-03-05T22:39:35Z</time>
      </trkpt>
      <trkpt lat="45.82612" lon="2.86676">
        <ele>750.387527</ele>
        <time>2022-03-05T22:40:42Z</time>
      </trkpt>
      <trkpt lat="45.82577" lon="2.86671">
        <ele>750.596221</ele>
        <time>2022-03-05T22:41:18Z</time>
      </trkpt>
      <trkpt lat="45.82554" lon="2.86685">
        <ele>750.995388</ele>
        <time>2022-03-05T22:41:44Z</time>
      </trkpt>
      <trkpt lat="45.82532" lon="2.86691">
        <ele>751.498167</ele>
        <time>2022-03-05T22:42:07Z</time>
      </trkpt>
      <trkpt lat="45.82512" lon="2.86681">
        <ele>751.978142</ele>
        <time>2022-03-05T22:42:29Z</time>
      </trkpt>
      <trkpt lat="45.82459" lon="2.86577">
        <ele>754.031765</ele>
        <time>2022-03-05T22:44:05Z</time>
      </trkpt>
      <trkpt lat="45.82445" lon="2.86564">
        <ele>754.41505</ele>
        <time>2022-03-05T22:44:24Z</time>
      </trkpt>
      <trkpt lat="45.82393" lon="2.86552">
        <ele>756.653431</ele>
        <time>2022-03-05T22:45:26Z</time>
      </trkpt>
      <trkpt lat="45.82365" lon="2.86557">
        <ele>758.116744</ele>
        <time>2022-03-05T22:45:59Z</time>
      </trkpt>
      <trkpt lat="45.8232" lon="2.86589">
        <ele>760.675744</ele>
        <time>2022-03-05T22:46:59Z</time>
      </trkpt>
      <trkpt lat="45.82279" lon="2.86574">
        <ele>762.800558</ele>
        <time>2022-03-05T22:47:49Z</time>
      </trkpt>
      <trkpt lat="45.82244" lon="2.86574">
        <ele>764.451206</ele>
        <time>2022-03-05T22:48:31Z</time>
      </trkpt>
      <trkpt lat="45.82214" lon="2.86586">
        <ele>765.626998</ele>
        <time>2022-03-05T22:49:07Z</time>
      </trkpt>
      <trkpt lat="45.8219" lon="2.86588">
        <ele>766.563892</ele>
        <time>2022-03-05T22:49:36Z</time>
      </trkpt>
      <trkpt lat="45.82158" lon="2.86615">
        <ele>767.978965</ele>
        <time>2022-03-05T22:50:19Z</time>
      </trkpt>
      <trkpt lat="45.8215" lon="2.86638">
        <ele>768.672621</ele>
        <time>2022-03-05T22:50:39Z</time>
      </trkpt>
      <trkpt lat="45.82107" lon="2.86684">
        <ele>770.707842</ele>
        <time>2022-03-05T22:51:36Z</time>
      </trkpt>
      <trkpt lat="45.82084" lon="2.86689">
        <ele>771.235683</ele>
        <time>2022-03-05T22:52:02Z</time>
      </trkpt>
      <trkpt lat="45.82011" lon="2.86637">
        <ele>772.835464</ele>
        <time>2022-03-05T22:53:28Z</time>
      </trkpt>
      <trkpt lat="45.81963" lon="2.86609">
        <ele>773.851873</ele>
        <time>2022-03-05T22:54:24Z</time>
      </trkpt>
      <trkpt lat="45.81946" lon="2.86557">
        <ele>774.643639</ele>
        <time>2022-03-05T22:55:07Z</time>
      </trkpt>
      <trkpt lat="45.8192" lon="2.86498">
        <ele>775.605069</ele>
        <time>2022-03-05T22:55:59Z</time>
      </trkpt>
      <trkpt lat="45.81875" lon="2.86433">
        <ele>776.872698</ele>
        <time>2022-03-05T22:57:07Z</time>
      </trkpt>
      <trkpt lat="45.81836" lon="2.86431">
        <ele>777.660717</ele>
        <time>2022-03-05T22:57:50Z</time>
      </trkpt>
      <trkpt lat="45.81796" lon="2.86456">
        <ele>778.365666</ele>
        <time>2022-03-05T22:58:36Z</time>
      </trkpt>
      <trkpt lat="45.81775" lon="2.86484">
        <ele>778.779087</ele>
        <time>2022-03-05T22:59:06Z</time>
      </trkpt>
      <trkpt lat="45.81746" lon="2.86524">
        <ele>779.364582</ele>
        <time>2022-03-05T22:59:49Z</time>
      </trkpt>
      <trkpt lat="45.81718" lon="2.86523">
        <ele>779.763902</ele>
        <time>2022-03-05T23:00:18Z</time>
      </trkpt>
      <trkpt lat="45.81691" lon="2.86562">
        <ele>780.322227</ele>
        <time>2022-03-05T23:00:58Z</time>
      </trkpt>
      <trkpt lat="45.81669" lon="2.86559">
        <ele>780.618686</ele>
        <time>2022-03-05T23:01:21Z</time>
      </trkpt>
      <trkpt lat="45.81628" lon="2.86575">
        <ele>781.064327</ele>
        <time>2022-03-05T23:02:05Z</time>
      </trkpt>
      <trkpt lat="45.81576" lon="2.86561">
        <ele>781.629043</ele>
        <time>2022-03-05T23:02:59Z</time>
      </trkpt>
      <trkpt lat="45.81516" lon="2.86525">
        <ele>782.315683</ele>
        <time>2022-03-05T23:04:07Z</time>
      </trkpt>
      <trkpt lat="45.81523" lon="2.86547">
        <ele>782.517454</ele>
        <time>2022-03-05T23:04:25Z</time>
      </trkpt>
      <trkpt lat="45.81532" lon="2.86632">
        <ele>783.447224</ele>
        <time>2022-03-05T23:05:28Z</time>
      </trkpt>
      <trkpt lat="45.81532" lon="2.86638">
        <ele>783.514248</ele>
        <time>2022-03-05T23:05:32Z</time>
      </trkpt>
      <trkpt lat="45.8155" lon="2.86696">
        <ele>784.211961</ele>
        <time>2022-03-05T23:06:20Z</time>
      </trkpt>
      <trkpt lat="45.8154" lon="2.86832">
        <ele>785.429365</ele>
        <time>2022-03-05T23:08:00Z</time>
      </trkpt>
      <trkpt lat="45.81522" lon="2.86837">
        <ele>785.544446</ele>
        <time>2022-03-05T23:08:20Z</time>
      </trkpt>
      <trkpt lat="45.81468" lon="2.86869">
        <ele>785.901865</ele>
        <time>2022-03-05T23:09:20Z</time>
      </trkpt>
      <trkpt lat="45.81452" lon="2.86873">
        <ele>786.001199</ele>
        <time>2022-03-05T23:09:36Z</time>
      </trkpt>
      <trkpt lat="45.81428" lon="2.86836">
        <ele>786.219167</ele>
        <time>2022-03-05T23:10:12Z</time>
      </trkpt>
      <trkpt lat="45.81407" lon="2.8683">
        <ele>786.348535</ele>
        <time>2022-03-05T23:10:33Z</time>
      </trkpt>
      <trkpt lat="45.81371" lon="2.86846">
        <ele>786.136636</ele>
        <time>2022-03-05T23:11:10Z</time>
      </trkpt>
      <trkpt lat="45.81337" lon="2.86851">
        <ele>785.911454</ele>
        <time>2022-03-05T23:11:46Z</time>
      </trkpt>
      <trkpt lat="45.81289" lon="2.86837">
        <ele>785.600075</ele>
        <time>2022-03-05T23:12:35Z</time>
      </trkpt>
      <trkpt lat="45.8128" lon="2.86825">
        <ele>785.517785</ele>
        <time>2022-03-05T23:12:48Z</time>
      </trkpt>
      <trkpt lat="45.81236" lon="2.86795">
        <ele>785.203662</ele>
        <time>2022-03-05T23:13:38Z</time>
      </trkpt>
      <trkpt lat="45.81192" lon="2.86793">
        <ele>784.705573</ele>
        <time>2022-03-05T23:14:22Z</time>
      </trkpt>
      <trkpt lat="45.81176" lon="2.86765">
        <ele>784.425402</ele>
        <time>2022-03-05T23:14:47Z</time>
      </trkpt>
      <trkpt lat="45.8117" lon="2.86693">
        <ele>783.851039</ele>
        <time>2022-03-05T23:15:39Z</time>
      </trkpt>
      <trkpt lat="45.81139" lon="2.86643">
        <ele>783.323922</ele>
        <time>2022-03-05T23:16:27Z</time>
      </trkpt>
      <trkpt lat="45.81129" lon="2.86598">
        <ele>782.813948</ele>
        <time>2022-03-05T23:17:01Z</time>
      </trkpt>
      <trkpt lat="45.81106" lon="2.86568">
        <ele>782.237967</ele>
        <time>2022-03-05T23:17:34Z</time>
      </trkpt>
      <trkpt lat="45.81106" lon="2.86524">
        <ele>781.669357</ele>
        <time>2022-03-05T23:18:06Z</time>
      </trkpt>
      <trkpt lat="45.81082" lon="2.86485">
        <ele>781.008281</ele>
        <time>2022-03-05T23:18:44Z</time>
      </trkpt>
      <trkpt lat="45.80992" lon="2.86379">
        <ele>779.270464</ele>
        <time>2022-03-05T23:20:45Z</time>
      </trkpt>
      <trkpt lat="45.80976" lon="2.86318">
        <ele>778.781765</ele>
        <time>2022-03-05T23:21:31Z</time>
      </trkpt>
      <trkpt lat="45.80943" lon="2.86304">
        <ele>778.404973</ele>
        <time>2022-03-05T23:22:06Z</time>
      </trkpt>
      <trkpt lat="45.80845" lon="2.86303">
        <ele>777.719666</ele>
        <time>2022-03-05T23:23:46Z</time>
      </trkpt>
      <trkpt lat="45.80834" lon="2.86284">
        <ele>777.66134</ele>
        <time>2022-03-05T23:24:02Z</time>
      </trkpt>
      <trkpt lat="45.80819" lon="2.8622">
        <ele>777.492684</ele>
        <time>2022-03-05T23:24:49Z</time>
      </trkpt>
      <trkpt lat="45.80803" lon="2.86206">
        <ele>777.425018</ele>
        <time>2022-03-05T23:25:08Z</time>
      </trkpt>
      <trkpt lat="45.80796" lon="2.86191">
        <ele>777.380416</ele>
        <time>2022-03-05T23:25:21Z</time>
      </trkpt>
      <trkpt lat="45.80792" lon="2.86143">
        <ele>777.256563</ele>
        <time>2022-03-05T23:25:55Z</time>
      </trkpt>
      <trkpt lat="45.80783" lon="2.86112">
        <ele>776.995923</ele>
        <time>2022-03-05T23:26:19Z</time>
      </trkpt>
      <trkpt lat="45.80758" lon="2.86065">
        <ele>776.538493</ele>
        <time>2022-03-05T23:27:01Z</time>
      </trkpt>
      <trkpt lat="45.80734" lon="2.86003">
        <ele>775.991402</ele>
        <time>2022-03-05T23:27:51Z</time>
      </trkpt>
      <trkpt lat="45.80718" lon="2.85985">
        <ele>775.765105</ele>
        <time>2022-03-05T23:28:12Z</time>
      </trkpt>
      <trkpt lat="45.80693" lon="2.85945">
        <ele>775.354839</ele>
        <time>2022-03-05T23:28:50Z</time>
      </trkpt>
      <trkpt lat="45.80675" lon="2.85889">
        <ele>774.105195</ele>
        <time>2022-03-05T23:29:36Z</time>
      </trkpt>
      <trkpt lat="45.80686" lon="2.85873">
        <ele>773.611532</ele>
        <time>2022-03-05T23:29:52Z</time>
      </trkpt>
      <trkpt lat="45.8068" lon="2.8584">
        <ele>772.846738</ele>
        <time>2022-03-05T23:30:17Z</time>
      </trkpt>
      <trkpt lat="45.80665" lon="2.85801">
        <ele>771.838023</ele>
        <time>2022-03-05T23:30:51Z</time>
      </trkpt>
      <trkpt lat="45.80651" lon="2.85779">
        <ele>771.166149</ele>
        <time>2022-03-05T23:31:14Z</time>
      </trkpt>
      <trkpt lat="45.80626" lon="2.85764">
        <ele>770.308311</ele>
        <time>2022-03-05T23:31:42Z</time>
      </trkpt>
      <trkpt lat="45.80601" lon="2.85758">
        <ele>769.48131</ele>
        <time>2022-03-05T23:32:10Z</time>
      </trkpt>
      <trkpt lat="45.8059" lon="2.85673">
        <ele>766.835196</ele>
        <time>2022-03-05T23:33:16Z</time>
      </trkpt>
      <trkpt lat="45.8058" lon="2.85506">
        <ele>761.690423</ele>
        <time>2022-03-05T23:35:25Z</time>
      </trkpt>
      <trkpt lat="45.80565" lon="2.85465">
        <ele>760.567781</ele>
        <time>2022-03-05T23:35:59Z</time>
      </trkpt>
      <trkpt lat="45.80547" lon="2.85444">
        <ele>759.773464</ele>
        <time>2022-03-05T23:36:23Z</time>
      </trkpt>
      <trkpt lat="45.80522" lon="2.85424">
        <ele>758.792376</ele>
        <time>2022-03-05T23:36:54Z</time>
      </trkpt>
      <trkpt lat="45.80526" lon="2.85368">
        <ele>757.439004</ele>
        <time>2022-03-05T23:37:35Z</time>
      </trkpt>
      <trkpt lat="45.8053" lon="2.85213">
        <ele>751.988206</ele>
        <time>2022-03-05T23:39:32Z</time>
      </trkpt>
      <trkpt lat="45.8053" lon="2.85187">
        <ele>750.689624</ele>
        <time>2022-03-05T23:39:52Z</time>
      </trkpt>
      <trkpt lat="45.80515" lon="2.85131">
        <ele>747.802539</ele>
        <time>2022-03-05T23:40:38Z</time>
      </trkpt>
      <trkpt lat="45.80491" lon="2.84779">
        <ele>723.714396</ele>
        <time>2022-03-05T23:45:37Z</time>
      </trkpt>
      <trkpt lat="45.80482" lon="2.84755">
        <ele>721.676094</ele>
        <time>2022-03-05T23:46:00Z</time>
      </trkpt>
      <trkpt lat="45.80449" lon="2.8474">
        <ele>717.929979</ele>
        <time>2022-03-05T23:46:43Z</time>
      </trkpt>
      <trkpt lat="45.80387" lon="2.84742">
        <ele>711.269313</ele>
        <time>2022-03-05T23:47:59Z</time>
      </trkpt>
      <trkpt lat="45.80378" lon="2.84734">
        <ele>710.149041</ele>
        <time>2022-03-05T23:48:11Z</time>
      </trkpt>
      <trkpt lat="45.80372" lon="2.84717">
        <ele>708.750173</ele>
        <time>2022-03-05T23:48:27Z</time>
      </trkpt>
      <trkpt lat="45.80372" lon="2.84696">
        <ele>707.192682</ele>
        <time>2022-03-05T23:48:45Z</time>
      </trkpt>
      <trkpt lat="45.80379" lon="2.8468">
        <ele>705.841552</ele>
        <time>2022-03-05T23:49:00Z</time>
      </trkpt>
      <trkpt lat="45.80391" lon="2.84665">
        <ele>704.063073</ele>
        <time>2022-03-05T23:49:20Z</time>
      </trkpt>
      <trkpt lat="45.80406" lon="2.84656">
        <ele>702.839385</ele>
        <time>2022-03-05T23:49:39Z</time>
      </trkpt>
      <trkpt lat="45.8042" lon="2.84634">
        <ele>701.256824</ele>
        <time>2022-03-05T23:50:04Z</time>
      </trkpt>
      <trkpt lat="45.80536" lon="2.84541">
        <ele>691.275728</ele>
        <time>2022-03-05T23:52:35Z</time>
      </trkpt>
      <trkpt lat="45.80543" lon="2.8452">
        <ele>690.212933</ele>
        <time>2022-03-05T23:52:53Z</time>
      </trkpt>
      <trkpt lat="45.80538" lon="2.84496">
        <ele>689.344383</ele>
        <time>2022-03-05T23:53:13Z</time>
      </trkpt>
      <trkpt lat="45.80488" lon="2.84529">
        <ele>686.630806</ele>
        <time>2022-03-05T23:54:14Z</time>
      </trkpt>
      <trkpt lat="45.80441" lon="2.84542">
        <ele>684.283956</ele>
        <time>2022-03-05T23:55:08Z</time>
      </trkpt>
      <trkpt lat="45.80365" lon="2.84577">
        <ele>681.455175</ele>
        <time>2022-03-05T23:56:33Z</time>
      </trkpt>
      <trkpt lat="45.80276" lon="2.84298">
        <ele>683.569932</ele>
        <time>2022-03-06T00:00:08Z</time>
      </trkpt>
      <trkpt lat="45.80258" lon="2.84292">
        <ele>684.551595</ele>
        <time>2022-03-06T00:00:30Z</time>
      </trkpt>
      <trkpt lat="45.80199" lon="2.84231">
        <ele>688.378895</ele>
        <time>2022-03-06T00:02:01Z</time>
      </trkpt>
      <trkpt lat="45.80133" lon="2.84256">
        <ele>693.743193</ele>
        <time>2022-03-06T00:03:32Z</time>
      </trkpt>
      <trkpt lat="45.80069" lon="2.84255">
        <ele>699.941515</ele>
        <time>2022-03-06T00:05:02Z</time>
      </trkpt>
      <trkpt lat="45.79971" lon="2.84284">
        <ele>708.980368</ele>
        <time>2022-03-06T00:07:11Z</time>
      </trkpt>
      <trkpt lat="45.79955" lon="2.84284">
        <ele>710.126491</ele>
        <time>2022-03-06T00:07:33Z</time>
      </trkpt>
      <trkpt lat="45.79915" lon="2.84309">
        <ele>713.137607</ele>
        <time>2022-03-06T00:08:26Z</time>
      </trkpt>
      <trkpt lat="45.79905" lon="2.84309">
        <ele>713.839566</ele>
        <time>2022-03-06T00:08:38Z</time>
      </trkpt>
      <trkpt lat="45.79893" lon="2.84301">
        <ele>714.80044</ele>
        <time>2022-03-06T00:08:55Z</time>
      </trkpt>
      <trkpt lat="45.79882" lon="2.84281">
        <ele>716.005947</ele>
        <time>2022-03-06T00:09:17Z</time>
      </trkpt>
      <trkpt lat="45.79901" lon="2.84266">
        <ele>717.542348</ele>
        <time>2022-03-06T00:09:45Z</time>
      </trkpt>
      <trkpt lat="45.79902" lon="2.84265">
        <ele>717.596665</ele>
        <time>2022-03-06T00:09:46Z</time>
      </trkpt>
      <trkpt lat="45.7992" lon="2.84256">
        <ele>718.945277</ele>
        <time>2022-03-06T00:10:09Z</time>
      </trkpt>
      <trkpt lat="45.79968" lon="2.84227">
        <ele>721.581882</ele>
        <time>2022-03-06T00:11:10Z</time>
      </trkpt>
      <trkpt lat="45.80001" lon="2.84204">
        <ele>723.263568</ele>
        <time>2022-03-06T00:11:53Z</time>
      </trkpt>
      <trkpt lat="45.80018" lon="2.84173">
        <ele>724.519904</ele>
        <time>2022-03-06T00:12:26Z</time>
      </trkpt>
      <trkpt lat="45.80026" lon="2.84157">
        <ele>725.136235</ele>
        <time>2022-03-06T00:12:42Z</time>
      </trkpt>
      <trkpt lat="45.80058" lon="2.84149">
        <ele>726.588648</ele>
        <time>2022-03-06T00:13:18Z</time>
      </trkpt>
      <trkpt lat="45.80084" lon="2.84142">
        <ele>727.779759</ele>
        <time>2022-03-06T00:13:47Z</time>
      </trkpt>
      <trkpt lat="45.80094" lon="2.84142">
        <ele>727.914535</ele>
        <time>2022-03-06T00:13:58Z</time>
      </trkpt>
      <trkpt lat="45.80106" lon="2.84139">
        <ele>727.8029</ele>
        <time>2022-03-06T00:14:13Z</time>
      </trkpt>
      <trkpt lat="45.80109" lon="2.84133">
        <ele>727.760461</ele>
        <time>2022-03-06T00:14:18Z</time>
      </trkpt>
      <trkpt lat="45.80107" lon="2.84088">
        <ele>727.48353</ele>
        <time>2022-03-06T00:14:52Z</time>
      </trkpt>
      <trkpt lat="45.80105" lon="2.8408">
        <ele>727.430661</ele>
        <time>2022-03-06T00:14:59Z</time>
      </trkpt>
      <trkpt lat="45.801" lon="2.84069">
        <ele>727.35249</ele>
        <time>2022-03-06T00:15:08Z</time>
      </trkpt>
      <trkpt lat="45.80093" lon="2.84065">
        <ele>727.281457</ele>
        <time>2022-03-06T00:15:16Z</time>
      </trkpt>
      <trkpt lat="45.8004" lon="2.84065">
        <ele>726.817682</ele>
        <time>2022-03-06T00:16:10Z</time>
      </trkpt>
      <trkpt lat="45.80025" lon="2.84058">
        <ele>726.683621</ele>
        <time>2022-03-06T00:16:26Z</time>
      </trkpt>
      <trkpt lat="45.80021" lon="2.84059">
        <ele>726.642096</ele>
        <time>2022-03-06T00:16:31Z</time>
      </trkpt>
      <trkpt lat="45.79941" lon="2.84068">
        <ele>721.767137</ele>
        <time>2022-03-06T00:18:03Z</time>
      </trkpt>
      <trkpt lat="45.79936" lon="2.84075">
        <ele>721.136263</ele>
        <time>2022-03-06T00:18:11Z</time>
      </trkpt>
      <trkpt lat="45.79929" lon="2.84158">
        <ele>715.879622</ele>
        <time>2022-03-06T00:19:17Z</time>
      </trkpt>
      <trkpt lat="45.79913" lon="2.84147">
        <ele>714.320866</ele>
        <time>2022-03-06T00:19:39Z</time>
      </trkpt>
      <trkpt lat="45.799" lon="2.84117">
        <ele>712.105186</ele>
        <time>2022-03-06T00:20:08Z</time>
      </trkpt>
      <trkpt lat="45.79897" lon="2.84097">
        <ele>710.815539</ele>
        <time>2022-03-06T00:20:27Z</time>
      </trkpt>
      <trkpt lat="45.79903" lon="2.84038">
        <ele>706.840654</ele>
        <time>2022-03-06T00:21:20Z</time>
      </trkpt>
      <trkpt lat="45.79892" lon="2.83982">
        <ele>702.934369</ele>
        <time>2022-03-06T00:22:11Z</time>
      </trkpt>
      <trkpt lat="45.79878" lon="2.83971">
        <ele>701.40474</ele>
        <time>2022-03-06T00:22:31Z</time>
      </trkpt>
      <trkpt lat="45.79867" lon="2.83973">
        <ele>700.337087</ele>
        <time>2022-03-06T00:22:45Z</time>
      </trkpt>
      <trkpt lat="45.79838" lon="2.83992">
        <ele>697.274425</ele>
        <time>2022-03-06T00:23:20Z</time>
      </trkpt>
      <trkpt lat="45.79836" lon="2.83996">
        <ele>696.915759</ele>
        <time>2022-03-06T00:23:24Z</time>
      </trkpt>
      <trkpt lat="45.79831" lon="2.83991">
        <ele>696.31039</ele>
        <time>2022-03-06T00:23:31Z</time>
      </trkpt>
      <trkpt lat="45.79826" lon="2.83967">
        <ele>694.643481</ele>
        <time>2022-03-06T00:23:50Z</time>
      </trkpt>
      <trkpt lat="45.79817" lon="2.83982">
        <ele>693.284806</ele>
        <time>2022-03-06T00:24:05Z</time>
      </trkpt>
      <trkpt lat="45.79791" lon="2.83982">
        <ele>692.849814</ele>
        <time>2022-03-06T00:24:33Z</time>
      </trkpt>
      <trkpt lat="45.79775" lon="2.83975">
        <ele>692.964495</ele>
        <time>2022-03-06T00:24:52Z</time>
      </trkpt>
      <trkpt lat="45.79737" lon="2.8394">
        <ele>693.274326</ele>
        <time>2022-03-06T00:25:41Z</time>
      </trkpt>
      <trkpt lat="45.79729" lon="2.83939">
        <ele>693.334063</ele>
        <time>2022-03-06T00:25:51Z</time>
      </trkpt>
      <trkpt lat="45.79725" lon="2.83924">
        <ele>693.411793</ele>
        <time>2022-03-06T00:26:03Z</time>
      </trkpt>
      <trkpt lat="45.79704" lon="2.83899">
        <ele>693.598058</ele>
        <time>2022-03-06T00:26:34Z</time>
      </trkpt>
      <trkpt lat="45.79625" lon="2.83848">
        <ele>696.195615</ele>
        <time>2022-03-06T00:28:22Z</time>
      </trkpt>
      <trkpt lat="45.79563" lon="2.83833">
        <ele>700.171515</ele>
        <time>2022-03-06T00:29:39Z</time>
      </trkpt>
      <trkpt lat="45.79617" lon="2.83858">
        <ele>703.771138</ele>
        <time>2022-03-06T00:30:48Z</time>
      </trkpt>
      <trkpt lat="45.79658" lon="2.83893">
        <ele>706.514793</ele>
        <time>2022-03-06T00:31:44Z</time>
      </trkpt>
      <trkpt lat="45.79683" lon="2.83933">
        <ele>708.528812</ele>
        <time>2022-03-06T00:32:30Z</time>
      </trkpt>
      <trkpt lat="45.79683" lon="2.83956">
        <ele>709.349308</ele>
        <time>2022-03-06T00:32:49Z</time>
      </trkpt>
      <trkpt lat="45.79678" lon="2.83961">
        <ele>709.664111</ele>
        <time>2022-03-06T00:32:57Z</time>
      </trkpt>
      <trkpt lat="45.79664" lon="2.83962">
        <ele>710.425972</ele>
        <time>2022-03-06T00:33:14Z</time>
      </trkpt>
      <trkpt lat="45.79632" lon="2.83937">
        <ele>712.378497</ele>
        <time>2022-03-06T00:33:57Z</time>
      </trkpt>
      <trkpt lat="45.79526" lon="2.83927">
        <ele>717.236378</ele>
        <time>2022-03-06T00:35:58Z</time>
      </trkpt>
      <trkpt lat="45.79472" lon="2.8391">
        <ele>719.459165</ele>
        <time>2022-03-06T00:37:03Z</time>
      </trkpt>
      <trkpt lat="45.79456" lon="2.83913">
        <ele>720.100925</ele>
        <time>2022-03-06T00:37:21Z</time>
      </trkpt>
      <trkpt lat="45.79409" lon="2.83946">
        <ele>722.155884</ele>
        <time>2022-03-06T00:38:20Z</time>
      </trkpt>
      <trkpt lat="45.79352" lon="2.83965">
        <ele>723.75959</ele>
        <time>2022-03-06T00:39:23Z</time>
      </trkpt>
      <trkpt lat="45.79318" lon="2.83968">
        <ele>724.699668</ele>
        <time>2022-03-06T00:40:01Z</time>
      </trkpt>
      <trkpt lat="45.79254" lon="2.83995">
        <ele>726.532326</ele>
        <time>2022-03-06T00:41:15Z</time>
      </trkpt>
      <trkpt lat="45.79213" lon="2.83993">
        <ele>727.731481</ele>
        <time>2022-03-06T00:41:59Z</time>
      </trkpt>
      <trkpt lat="45.79196" lon="2.84008">
        <ele>728.342009</ele>
        <time>2022-03-06T00:42:20Z</time>
      </trkpt>
      <trkpt lat="45.79181" lon="2.84049">
        <ele>729.329359</ele>
        <time>2022-03-06T00:42:56Z</time>
      </trkpt>
      <trkpt lat="45.79143" lon="2.84067">
        <ele>730.548222</ele>
        <time>2022-03-06T00:43:40Z</time>
      </trkpt>
      <trkpt lat="45.7913" lon="2.84067">
        <ele>730.948809</ele>
        <time>2022-03-06T00:43:54Z</time>
      </trkpt>
      <trkpt lat="45.79059" lon="2.84051">
        <ele>733.195166</ele>
        <time>2022-03-06T00:45:15Z</time>
      </trkpt>
      <trkpt lat="45.79039" lon="2.84051">
        <ele>733.899702</ele>
        <time>2022-03-06T00:45:40Z</time>
      </trkpt>
      <trkpt lat="45.7901" lon="2.84064">
        <ele>734.921422</ele>
        <time>2022-03-06T00:46:15Z</time>
      </trkpt>
      <trkpt lat="45.78968" lon="2.84103">
        <ele>736.604588</ele>
        <time>2022-03-06T00:47:12Z</time>
      </trkpt>
      <trkpt lat="45.78893" lon="2.84156">
        <ele>737.925943</ele>
        <time>2022-03-06T00:48:42Z</time>
      </trkpt>
      <trkpt lat="45.78924" lon="2.84195">
        <ele>736.949009</ele>
        <time>2022-03-06T00:49:25Z</time>
      </trkpt>
      <trkpt lat="45.78973" lon="2.84201">
        <ele>735.780759</ele>
        <time>2022-03-06T00:50:18Z</time>
      </trkpt>
      <trkpt lat="45.79011" lon="2.84222">
        <ele>734.804295</ele>
        <time>2022-03-06T00:51:02Z</time>
      </trkpt>
      <trkpt lat="45.79021" lon="2.84264">
        <ele>733.894291</ele>
        <time>2022-03-06T00:51:37Z</time>
      </trkpt>
      <trkpt lat="45.79014" lon="2.84287">
        <ele>733.101564</ele>
        <time>2022-03-06T00:51:56Z</time>
      </trkpt>
      <trkpt lat="45.79014" lon="2.84305">
        <ele>732.500399</ele>
        <time>2022-03-06T00:52:11Z</time>
      </trkpt>
      <trkpt lat="45.79027" lon="2.843">
        <ele>731.87129</ele>
        <time>2022-03-06T00:52:27Z</time>
      </trkpt>
      <trkpt lat="45.79008" lon="2.84334">
        <ele>730.444128</ele>
        <time>2022-03-06T00:53:03Z</time>
      </trkpt>
      <trkpt lat="45.78983" lon="2.84364">
        <ele>728.984907</ele>
        <time>2022-03-06T00:53:39Z</time>
      </trkpt>
      <trkpt lat="45.78921" lon="2.84413">
        <ele>726.173016</ele>
        <time>2022-03-06T00:54:54Z</time>
      </trkpt>
      <trkpt lat="45.78876" lon="2.84495">
        <ele>727.470638</ele>
        <time>2022-03-06T00:56:10Z</time>
      </trkpt>
      <trkpt lat="45.78863" lon="2.84516">
        <ele>727.822257</ele>
        <time>2022-03-06T00:56:31Z</time>
      </trkpt>
      <trkpt lat="45.78849" lon="2.84555">
        <ele>728.374259</ele>
        <time>2022-03-06T00:57:05Z</time>
      </trkpt>
      <trkpt lat="45.78817" lon="2.84692">
        <ele>731.647918</ele>
        <time>2022-03-06T00:58:59Z</time>
      </trkpt>
      <trkpt lat="45.78818" lon="2.84723">
        <ele>732.68052</ele>
        <time>2022-03-06T00:59:25Z</time>
      </trkpt>
      <trkpt lat="45.78824" lon="2.84739">
        <ele>733.26322</ele>
        <time>2022-03-06T00:59:40Z</time>
      </trkpt>
      <trkpt lat="45.78847" lon="2.84764">
        <ele>734.622081</ele>
        <time>2022-03-06T01:00:14Z</time>
      </trkpt>
      <trkpt lat="45.78885" lon="2.84846">
        <ele>737.838354</ele>
        <time>2022-03-06T01:01:35Z</time>
      </trkpt>
      <trkpt lat="45.78934" lon="2.84916">
        <ele>740.26246</ele>
        <time>2022-03-06T01:02:56Z</time>
      </trkpt>
      <trkpt lat="45.78966" lon="2.84987">
        <ele>742.305082</ele>
        <time>2022-03-06T01:04:02Z</time>
      </trkpt>
      <trkpt lat="45.79004" lon="2.85048">
        <ele>743.970644</ele>
        <time>2022-03-06T01:05:04Z</time>
      </trkpt>
      <trkpt lat="45.79021" lon="2.85095">
        <ele>743.78873</ele>
        <time>2022-03-06T01:05:42Z</time>
      </trkpt>
      <trkpt lat="45.79037" lon="2.85117">
        <ele>743.677071</ele>
        <time>2022-03-06T01:06:04Z</time>
      </trkpt>
      <trkpt lat="45.79088" lon="2.85162">
        <ele>743.378614</ele>
        <time>2022-03-06T01:07:06Z</time>
      </trkpt>
      <trkpt lat="45.79103" lon="2.85183">
        <ele>743.273312</ele>
        <time>2022-03-06T01:07:28Z</time>
      </trkpt>
      <trkpt lat="45.79145" lon="2.85285">
        <ele>741.89083</ele>
        <time>2022-03-06T01:08:53Z</time>
      </trkpt>
      <trkpt lat="45.7917" lon="2.85349">
        <ele>740.633118</ele>
        <time>2022-03-06T01:09:47Z</time>
      </trkpt>
      <trkpt lat="45.7919" lon="2.85438">
        <ele>739.057264</ele>
        <time>2022-03-06T01:10:55Z</time>
      </trkpt>
      <trkpt lat="45.79189" lon="2.85454">
        <ele>738.783858</ele>
        <time>2022-03-06T01:11:07Z</time>
      </trkpt>
      <trkpt lat="45.79161" lon="2.85526">
        <ele>735.053114</ele>
        <time>2022-03-06T01:12:10Z</time>
      </trkpt>
      <trkpt lat="45.79145" lon="2.856">
        <ele>731.558916</ele>
        <time>2022-03-06T01:13:10Z</time>
      </trkpt>
      <trkpt lat="45.79144" lon="2.85652">
        <ele>729.168551</ele>
        <time>2022-03-06T01:13:53Z</time>
      </trkpt>
      <trkpt lat="45.7915" lon="2.85723">
        <ele>725.735903</ele>
        <time>2022-03-06T01:14:53Z</time>
      </trkpt>
      <trkpt lat="45.79176" lon="2.85858">
        <ele>718.519847</ele>
        <time>2022-03-06T01:16:47Z</time>
      </trkpt>
      <trkpt lat="45.7918" lon="2.85888">
        <ele>716.931625</ele>
        <time>2022-03-06T01:17:11Z</time>
      </trkpt>
      <trkpt lat="45.79178" lon="2.85898">
        <ele>716.369631</ele>
        <time>2022-03-06T01:17:20Z</time>
      </trkpt>
      <trkpt lat="45.79172" lon="2.85902">
        <ele>715.853763</ele>
        <time>2022-03-06T01:17:28Z</time>
      </trkpt>
      <trkpt lat="45.79142" lon="2.85897">
        <ele>713.618317</ele>
        <time>2022-03-06T01:18:01Z</time>
      </trkpt>
      <trkpt lat="45.7913" lon="2.85923">
        <ele>714.060996</ele>
        <time>2022-03-06T01:18:25Z</time>
      </trkpt>
      <trkpt lat="45.79107" lon="2.85984">
        <ele>715.051586</ele>
        <time>2022-03-06T01:19:15Z</time>
      </trkpt>
      <trkpt lat="45.79085" lon="2.86023">
        <ele>715.75975</ele>
        <time>2022-03-06T01:19:52Z</time>
      </trkpt>
      <trkpt lat="45.79082" lon="2.86024">
        <ele>715.826406</ele>
        <time>2022-03-06T01:19:56Z</time>
      </trkpt>
      <trkpt lat="45.79069" lon="2.86027">
        <ele>716.088984</ele>
        <time>2022-03-06T01:20:11Z</time>
      </trkpt>
      <trkpt lat="45.78998" lon="2.85997">
        <ele>718.627588</ele>
        <time>2022-03-06T01:21:45Z</time>
      </trkpt>
      <trkpt lat="45.78959" lon="2.86009">
        <ele>721.90525</ele>
        <time>2022-03-06T01:22:36Z</time>
      </trkpt>
      <trkpt lat="45.7895" lon="2.86012">
        <ele>722.734041</ele>
        <time>2022-03-06T01:22:49Z</time>
      </trkpt>
      <trkpt lat="45.78861" lon="2.86046">
        <ele>730.416105</ele>
        <time>2022-03-06T01:24:46Z</time>
      </trkpt>
      <trkpt lat="45.78817" lon="2.86051">
        <ele>733.71537</ele>
        <time>2022-03-06T01:25:45Z</time>
      </trkpt>
      <trkpt lat="45.78809" lon="2.86061">
        <ele>734.380003</ele>
        <time>2022-03-06T01:25:58Z</time>
      </trkpt>
      <trkpt lat="45.78808" lon="2.86072">
        <ele>734.872791</ele>
        <time>2022-03-06T01:26:08Z</time>
      </trkpt>
      <trkpt lat="45.78815" lon="2.86086">
        <ele>735.607788</ele>
        <time>2022-03-06T01:26:24Z</time>
      </trkpt>
      <trkpt lat="45.78836" lon="2.86101">
        <ele>737.087675</ele>
        <time>2022-03-06T01:26:54Z</time>
      </trkpt>
      <trkpt lat="45.7884" lon="2.86113">
        <ele>737.666711</ele>
        <time>2022-03-06T01:27:06Z</time>
      </trkpt>
      <trkpt lat="45.78837" lon="2.86124">
        <ele>738.183647</ele>
        <time>2022-03-06T01:27:17Z</time>
      </trkpt>
      <trkpt lat="45.78824" lon="2.86132">
        <ele>739.043459</ele>
        <time>2022-03-06T01:27:32Z</time>
      </trkpt>
      <trkpt lat="45.78781" lon="2.86132">
        <ele>741.726299</ele>
        <time>2022-03-06T01:28:21Z</time>
      </trkpt>
      <trkpt lat="45.78762" lon="2.86138">
        <ele>742.975096</ele>
        <time>2022-03-06T01:28:44Z</time>
      </trkpt>
      <trkpt lat="45.78739" lon="2.86149">
        <ele>744.058483</ele>
        <time>2022-03-06T01:29:10Z</time>
      </trkpt>
      <trkpt lat="45.78701" lon="2.86154">
        <ele>745.206921</ele>
        <time>2022-03-06T01:29:53Z</time>
      </trkpt>
      <trkpt lat="45.78628" lon="2.8609">
        <ele>747.755306</ele>
        <time>2022-03-06T01:31:30Z</time>
      </trkpt>
      <trkpt lat="45.78604" lon="2.86084">
        <ele>748.463948</ele>
        <time>2022-03-06T01:31:55Z</time>
      </trkpt>
      <trkpt lat="45.78573" lon="2.86058">
        <ele>749.259342</ele>
        <time>2022-03-06T01:32:32Z</time>
      </trkpt>
      <trkpt lat="45.78551" lon="2.8605">
        <ele>749.552044</ele>
        <time>2022-03-06T01:32:56Z</time>
      </trkpt>
      <trkpt lat="45.78544" lon="2.86048">
        <ele>749.650578</ele>
        <time>2022-03-06T01:33:04Z</time>
      </trkpt>
      <trkpt lat="45.78536" lon="2.86022">
        <ele>749.903077</ele>
        <time>2022-03-06T01:33:24Z</time>
      </trkpt>
      <trkpt lat="45.78502" lon="2.85956">
        <ele>750.647584</ele>
        <time>2022-03-06T01:34:24Z</time>
      </trkpt>
      <trkpt lat="45.78476" lon="2.85931">
        <ele>751.052331</ele>
        <time>2022-03-06T01:34:57Z</time>
      </trkpt>
      <trkpt lat="45.78445" lon="2.85933">
        <ele>751.423911</ele>
        <time>2022-03-06T01:35:29Z</time>
      </trkpt>
      <trkpt lat="45.78405" lon="2.85916">
        <ele>751.746387</ele>
        <time>2022-03-06T01:36:12Z</time>
      </trkpt>
      <trkpt lat="45.78322" lon="2.85931">
        <ele>752.387914</ele>
        <time>2022-03-06T01:37:38Z</time>
      </trkpt>
      <trkpt lat="45.78292" lon="2.85922">
        <ele>752.620624</ele>
        <time>2022-03-06T01:38:09Z</time>
      </trkpt>
      <trkpt lat="45.78255" lon="2.85899">
        <ele>753.12343</ele>
        <time>2022-03-06T01:38:51Z</time>
      </trkpt>
      <trkpt lat="45.78228" lon="2.8589">
        <ele>753.568899</ele>
        <time>2022-03-06T01:39:19Z</time>
      </trkpt>
      <trkpt lat="45.78201" lon="2.85892">
        <ele>754.011038</ele>
        <time>2022-03-06T01:39:47Z</time>
      </trkpt>
      <trkpt lat="45.78128" lon="2.85917">
        <ele>755.224307</ele>
        <time>2022-03-06T01:41:07Z</time>
      </trkpt>
      <trkpt lat="45.78057" lon="2.8599">
        <ele>757.657078</ele>
        <time>2022-03-06T01:42:44Z</time>
      </trkpt>
      <trkpt lat="45.77949" lon="2.86039">
        <ele>761.41189</ele>
        <time>2022-03-06T01:44:52Z</time>
      </trkpt>
    </trkseg>
  </trk>
  <trk>
    <name><![CDATA[J3]]></name>
    <extensions>
      <line xmlns="http://www.topografix.com/GPX/gpx_style/0/2">
        <color>932092</color>
        <width>4</width>
      </line>
    </extensions>
    <trkseg>
      <trkpt lat="45.77949" lon="2.86039">
        <ele>761.41189</ele>
        <time>2022-03-06T01:44:52Z</time>
      </trkpt>
      <trkpt lat="45.77858" lon="2.86057">
        <ele>763.663754</ele>
        <time>2022-03-06T01:46:35Z</time>
      </trkpt>
      <trkpt lat="45.7783" lon="2.86067">
        <ele>764.345537</ele>
        <time>2022-03-06T01:47:06Z</time>
      </trkpt>
      <trkpt lat="45.77752" lon="2.86152">
        <ele>765.688106</ele>
        <time>2022-03-06T01:48:48Z</time>
      </trkpt>
      <trkpt lat="45.77729" lon="2.86165">
        <ele>765.508363</ele>
        <time>2022-03-06T01:49:13Z</time>
      </trkpt>
      <trkpt lat="45.7769" lon="2.86173">
        <ele>765.221492</ele>
        <time>2022-03-06T01:49:53Z</time>
      </trkpt>
      <trkpt lat="45.77619" lon="2.86249">
        <ele>764.448898</ele>
        <time>2022-03-06T01:51:24Z</time>
      </trkpt>
      <trkpt lat="45.77577" lon="2.86293">
        <ele>762.552945</ele>
        <time>2022-03-06T01:52:20Z</time>
      </trkpt>
      <trkpt lat="45.7751" lon="2.86318">
        <ele>760.05928</ele>
        <time>2022-03-06T01:53:35Z</time>
      </trkpt>
      <trkpt lat="45.77449" lon="2.86359">
        <ele>757.563461</ele>
        <time>2022-03-06T01:54:48Z</time>
      </trkpt>
      <trkpt lat="45.77404" lon="2.86372">
        <ele>755.666881</ele>
        <time>2022-03-06T01:55:38Z</time>
      </trkpt>
      <trkpt lat="45.77349" lon="2.86366">
        <ele>753.388026</ele>
        <time>2022-03-06T01:56:38Z</time>
      </trkpt>
      <trkpt lat="45.77331" lon="2.86386">
        <ele>752.430403</ele>
        <time>2022-03-06T01:57:04Z</time>
      </trkpt>
      <trkpt lat="45.77311" lon="2.86441">
        <ele>750.668002</ele>
        <time>2022-03-06T01:57:50Z</time>
      </trkpt>
      <trkpt lat="45.77285" lon="2.86484">
        <ele>750.270263</ele>
        <time>2022-03-06T01:58:32Z</time>
      </trkpt>
      <trkpt lat="45.77271" lon="2.86498">
        <ele>750.092952</ele>
        <time>2022-03-06T01:58:50Z</time>
      </trkpt>
      <trkpt lat="45.77283" lon="2.86616">
        <ele>749.239292</ele>
        <time>2022-03-06T02:00:16Z</time>
      </trkpt>
      <trkpt lat="45.77274" lon="2.86658">
        <ele>748.925685</ele>
        <time>2022-03-06T02:00:46Z</time>
      </trkpt>
      <trkpt lat="45.77272" lon="2.86712">
        <ele>750.24404</ele>
        <time>2022-03-06T02:01:28Z</time>
      </trkpt>
      <trkpt lat="45.77237" lon="2.8684">
        <ele>754.952368</ele>
        <time>2022-03-06T02:03:21Z</time>
      </trkpt>
      <trkpt lat="45.77236" lon="2.86893">
        <ele>756.789887</ele>
        <time>2022-03-06T02:04:06Z</time>
      </trkpt>
      <trkpt lat="45.7723" lon="2.8691">
        <ele>757.410872</ele>
        <time>2022-03-06T02:04:24Z</time>
      </trkpt>
      <trkpt lat="45.77217" lon="2.86924">
        <ele>758.609459</ele>
        <time>2022-03-06T02:04:43Z</time>
      </trkpt>
      <trkpt lat="45.77196" lon="2.8698">
        <ele>762.293404</ele>
        <time>2022-03-06T02:05:39Z</time>
      </trkpt>
      <trkpt lat="45.77169" lon="2.86997">
        <ele>764.725126</ele>
        <time>2022-03-06T02:06:17Z</time>
      </trkpt>
      <trkpt lat="45.7716" lon="2.87011">
        <ele>765.809123</ele>
        <time>2022-03-06T02:06:35Z</time>
      </trkpt>
      <trkpt lat="45.77155" lon="2.87048">
        <ele>767.954703</ele>
        <time>2022-03-06T02:07:09Z</time>
      </trkpt>
      <trkpt lat="45.77123" lon="2.87133">
        <ele>773.411439</ele>
        <time>2022-03-06T02:08:36Z</time>
      </trkpt>
      <trkpt lat="45.77096" lon="2.87163">
        <ele>775.774048</ele>
        <time>2022-03-06T02:09:20Z</time>
      </trkpt>
      <trkpt lat="45.77049" lon="2.87233">
        <ele>780.443664</ele>
        <time>2022-03-06T02:10:46Z</time>
      </trkpt>
      <trkpt lat="45.77001" lon="2.87377">
        <ele>785.662462</ele>
        <time>2022-03-06T02:12:57Z</time>
      </trkpt>
      <trkpt lat="45.76998" lon="2.87371">
        <ele>785.735521</ele>
        <time>2022-03-06T02:13:03Z</time>
      </trkpt>
      <trkpt lat="45.76929" lon="2.87314">
        <ele>786.968207</ele>
        <time>2022-03-06T02:14:26Z</time>
      </trkpt>
      <trkpt lat="45.76885" lon="2.87314">
        <ele>787.63647</ele>
        <time>2022-03-06T02:15:11Z</time>
      </trkpt>
      <trkpt lat="45.76831" lon="2.8729">
        <ele>786.210453</ele>
        <time>2022-03-06T02:16:10Z</time>
      </trkpt>
      <trkpt lat="45.76799" lon="2.8729">
        <ele>785.264762</ele>
        <time>2022-03-06T02:16:45Z</time>
      </trkpt>
      <trkpt lat="45.76784" lon="2.87284">
        <ele>784.810536</ele>
        <time>2022-03-06T02:17:01Z</time>
      </trkpt>
      <trkpt lat="45.7678" lon="2.87265">
        <ele>784.399017</ele>
        <time>2022-03-06T02:17:17Z</time>
      </trkpt>
      <trkpt lat="45.76757" lon="2.87228">
        <ele>783.384056</ele>
        <time>2022-03-06T02:17:54Z</time>
      </trkpt>
      <trkpt lat="45.76734" lon="2.87215">
        <ele>782.661732</ele>
        <time>2022-03-06T02:18:20Z</time>
      </trkpt>
      <trkpt lat="45.76723" lon="2.87195">
        <ele>781.972179</ele>
        <time>2022-03-06T02:18:39Z</time>
      </trkpt>
      <trkpt lat="45.76714" lon="2.87118">
        <ele>779.439085</ele>
        <time>2022-03-06T02:19:38Z</time>
      </trkpt>
      <trkpt lat="45.76712" lon="2.87104">
        <ele>778.966325</ele>
        <time>2022-03-06T02:19:50Z</time>
      </trkpt>
      <trkpt lat="45.76702" lon="2.87092">
        <ele>778.370177</ele>
        <time>2022-03-06T02:20:03Z</time>
      </trkpt>
      <trkpt lat="45.76641" lon="2.87063">
        <ele>775.36876</ele>
        <time>2022-03-06T02:21:14Z</time>
      </trkpt>
      <trkpt lat="45.76607" lon="2.87035">
        <ele>773.531614</ele>
        <time>2022-03-06T02:21:58Z</time>
      </trkpt>
      <trkpt lat="45.76499" lon="2.87026">
        <ele>768.31385</ele>
        <time>2022-03-06T02:23:58Z</time>
      </trkpt>
      <trkpt lat="45.7648" lon="2.87062">
        <ele>766.762061</ele>
        <time>2022-03-06T02:24:34Z</time>
      </trkpt>
      <trkpt lat="45.76389" lon="2.87103">
        <ele>764.819383</ele>
        <time>2022-03-06T02:26:14Z</time>
      </trkpt>
      <trkpt lat="45.76343" lon="2.87098">
        <ele>764.415756</ele>
        <time>2022-03-06T02:27:00Z</time>
      </trkpt>
      <trkpt lat="45.76293" lon="2.87125">
        <ele>763.945592</ele>
        <time>2022-03-06T02:27:57Z</time>
      </trkpt>
      <trkpt lat="45.7626" lon="2.87088">
        <ele>763.647796</ele>
        <time>2022-03-06T02:28:40Z</time>
      </trkpt>
      <trkpt lat="45.76168" lon="2.87037">
        <ele>763.033867</ele>
        <time>2022-03-06T02:30:19Z</time>
      </trkpt>
      <trkpt lat="45.7604" lon="2.86931">
        <ele>760.809363</ele>
        <time>2022-03-06T02:32:54Z</time>
      </trkpt>
      <trkpt lat="45.76022" lon="2.86923">
        <ele>760.418084</ele>
        <time>2022-03-06T02:33:15Z</time>
      </trkpt>
      <trkpt lat="45.76001" lon="2.86923">
        <ele>760.006278</ele>
        <time>2022-03-06T02:33:37Z</time>
      </trkpt>
      <trkpt lat="45.75981" lon="2.86929">
        <ele>759.592781</ele>
        <time>2022-03-06T02:33:58Z</time>
      </trkpt>
      <trkpt lat="45.75941" lon="2.86961">
        <ele>759.082334</ele>
        <time>2022-03-06T02:34:44Z</time>
      </trkpt>
      <trkpt lat="45.75883" lon="2.87039">
        <ele>758.974771</ele>
        <time>2022-03-06T02:36:06Z</time>
      </trkpt>
      <trkpt lat="45.75863" lon="2.87057">
        <ele>758.944412</ele>
        <time>2022-03-06T02:36:30Z</time>
      </trkpt>
      <trkpt lat="45.75811" lon="2.87082">
        <ele>758.870327</ele>
        <time>2022-03-06T02:37:27Z</time>
      </trkpt>
      <trkpt lat="45.75756" lon="2.87091">
        <ele>757.107535</ele>
        <time>2022-03-06T02:38:25Z</time>
      </trkpt>
      <trkpt lat="45.75669" lon="2.87123">
        <ele>754.214433</ele>
        <time>2022-03-06T02:40:02Z</time>
      </trkpt>
      <trkpt lat="45.75639" lon="2.87111">
        <ele>753.221448</ele>
        <time>2022-03-06T02:40:36Z</time>
      </trkpt>
      <trkpt lat="45.75573" lon="2.87112">
        <ele>751.039959</ele>
        <time>2022-03-06T02:41:48Z</time>
      </trkpt>
      <trkpt lat="45.75434" lon="2.87033">
        <ele>746.717869</ele>
        <time>2022-03-06T02:44:26Z</time>
      </trkpt>
      <trkpt lat="45.75396" lon="2.87">
        <ele>746.119505</ele>
        <time>2022-03-06T02:45:13Z</time>
      </trkpt>
      <trkpt lat="45.75265" lon="2.86941">
        <ele>745.021014</ele>
        <time>2022-03-06T02:47:32Z</time>
      </trkpt>
      <trkpt lat="45.75194" lon="2.86927">
        <ele>745.604352</ele>
        <time>2022-03-06T02:48:45Z</time>
      </trkpt>
      <trkpt lat="45.75143" lon="2.86905">
        <ele>746.03655</ele>
        <time>2022-03-06T02:49:40Z</time>
      </trkpt>
      <trkpt lat="45.75006" lon="2.86881">
        <ele>749.329723</ele>
        <time>2022-03-06T02:52:12Z</time>
      </trkpt>
      <trkpt lat="45.74889" lon="2.86834">
        <ele>752.528969</ele>
        <time>2022-03-06T02:54:27Z</time>
      </trkpt>
      <trkpt lat="45.74861" lon="2.86828">
        <ele>753.254554</ele>
        <time>2022-03-06T02:54:57Z</time>
      </trkpt>
      <trkpt lat="45.74859" lon="2.86823">
        <ele>753.361323</ele>
        <time>2022-03-06T02:55:02Z</time>
      </trkpt>
      <trkpt lat="45.74805" lon="2.86734">
        <ele>755.488031</ele>
        <time>2022-03-06T02:56:31Z</time>
      </trkpt>
      <trkpt lat="45.74725" lon="2.86641">
        <ele>757.464524</ele>
        <time>2022-03-06T02:58:21Z</time>
      </trkpt>
      <trkpt lat="45.74724" lon="2.86641">
        <ele>757.499576</ele>
        <time>2022-03-06T02:58:23Z</time>
      </trkpt>
      <trkpt lat="45.7466" lon="2.86628">
        <ele>758.70247</ele>
        <time>2022-03-06T02:59:31Z</time>
      </trkpt>
      <trkpt lat="45.74588" lon="2.86618">
        <ele>759.184995</ele>
        <time>2022-03-06T03:00:46Z</time>
      </trkpt>
      <trkpt lat="45.74572" lon="2.86618">
        <ele>759.225644</ele>
        <time>2022-03-06T03:01:03Z</time>
      </trkpt>
      <trkpt lat="45.74538" lon="2.86633">
        <ele>759.314495</ele>
        <time>2022-03-06T03:01:40Z</time>
      </trkpt>
      <trkpt lat="45.74528" lon="2.86634">
        <ele>759.338092</ele>
        <time>2022-03-06T03:01:50Z</time>
      </trkpt>
      <trkpt lat="45.74519" lon="2.8663">
        <ele>759.361159</ele>
        <time>2022-03-06T03:01:59Z</time>
      </trkpt>
      <trkpt lat="45.74499" lon="2.86619">
        <ele>759.414949</ele>
        <time>2022-03-06T03:02:21Z</time>
      </trkpt>
      <trkpt lat="45.74488" lon="2.86613">
        <ele>759.443754</ele>
        <time>2022-03-06T03:02:33Z</time>
      </trkpt>
      <trkpt lat="45.74464" lon="2.866">
        <ele>759.37562</ele>
        <time>2022-03-06T03:03:00Z</time>
      </trkpt>
      <trkpt lat="45.74453" lon="2.866">
        <ele>759.067274</ele>
        <time>2022-03-06T03:03:11Z</time>
      </trkpt>
      <trkpt lat="45.7443" lon="2.86615">
        <ele>758.32419</ele>
        <time>2022-03-06T03:03:38Z</time>
      </trkpt>
      <trkpt lat="45.74402" lon="2.86642">
        <ele>757.340476</ele>
        <time>2022-03-06T03:04:14Z</time>
      </trkpt>
      <trkpt lat="45.74404" lon="2.86656">
        <ele>757.058427</ele>
        <time>2022-03-06T03:04:24Z</time>
      </trkpt>
      <trkpt lat="45.74402" lon="2.86642">
        <ele>756.776378</ele>
        <time>2022-03-06T03:04:34Z</time>
      </trkpt>
      <trkpt lat="45.74397" lon="2.86632">
        <ele>756.521634</ele>
        <time>2022-03-06T03:04:44Z</time>
      </trkpt>
      <trkpt lat="45.74382" lon="2.86633">
        <ele>756.090718</ele>
        <time>2022-03-06T03:05:00Z</time>
      </trkpt>
      <trkpt lat="45.74346" lon="2.86651">
        <ele>754.985878</ele>
        <time>2022-03-06T03:05:41Z</time>
      </trkpt>
      <trkpt lat="45.74285" lon="2.86627">
        <ele>752.911697</ele>
        <time>2022-03-06T03:06:49Z</time>
      </trkpt>
      <trkpt lat="45.74256" lon="2.86603">
        <ele>751.698573</ele>
        <time>2022-03-06T03:07:26Z</time>
      </trkpt>
      <trkpt lat="45.74229" lon="2.86594">
        <ele>750.724067</ele>
        <time>2022-03-06T03:07:55Z</time>
      </trkpt>
      <trkpt lat="45.74147" lon="2.86546">
        <ele>747.724205</ele>
        <time>2022-03-06T03:09:30Z</time>
      </trkpt>
      <trkpt lat="45.7407" lon="2.86481">
        <ele>745.978426</ele>
        <time>2022-03-06T03:11:04Z</time>
      </trkpt>
      <trkpt lat="45.74007" lon="2.86398">
        <ele>744.439491</ele>
        <time>2022-03-06T03:12:32Z</time>
      </trkpt>
      <trkpt lat="45.73987" lon="2.86378">
        <ele>744.849053</ele>
        <time>2022-03-06T03:12:57Z</time>
      </trkpt>
      <trkpt lat="45.73954" lon="2.86357">
        <ele>745.449822</ele>
        <time>2022-03-06T03:13:34Z</time>
      </trkpt>
      <trkpt lat="45.73946" lon="2.86342">
        <ele>745.669558</ele>
        <time>2022-03-06T03:13:47Z</time>
      </trkpt>
      <trkpt lat="45.73928" lon="2.86269">
        <ele>746.576019</ele>
        <time>2022-03-06T03:14:45Z</time>
      </trkpt>
      <trkpt lat="45.73921" lon="2.86258">
        <ele>746.756668</ele>
        <time>2022-03-06T03:14:56Z</time>
      </trkpt>
      <trkpt lat="45.73907" lon="2.86248">
        <ele>747.014022</ele>
        <time>2022-03-06T03:15:14Z</time>
      </trkpt>
      <trkpt lat="45.73889" lon="2.86248">
        <ele>747.314119</ele>
        <time>2022-03-06T03:15:34Z</time>
      </trkpt>
      <trkpt lat="45.73878" lon="2.8621">
        <ele>748.790204</ele>
        <time>2022-03-06T03:16:08Z</time>
      </trkpt>
      <trkpt lat="45.73878" lon="2.86132">
        <ele>751.983243</ele>
        <time>2022-03-06T03:17:13Z</time>
      </trkpt>
      <trkpt lat="45.73874" lon="2.86097">
        <ele>753.443453</ele>
        <time>2022-03-06T03:17:43Z</time>
      </trkpt>
      <trkpt lat="45.73833" lon="2.86048">
        <ele>756.577277</ele>
        <time>2022-03-06T03:18:49Z</time>
      </trkpt>
      <trkpt lat="45.73809" lon="2.86023">
        <ele>758.342577</ele>
        <time>2022-03-06T03:19:26Z</time>
      </trkpt>
      <trkpt lat="45.73778" lon="2.85997">
        <ele>760.531315</ele>
        <time>2022-03-06T03:20:10Z</time>
      </trkpt>
      <trkpt lat="45.73733" lon="2.85963">
        <ele>763.63456</ele>
        <time>2022-03-06T03:21:13Z</time>
      </trkpt>
      <trkpt lat="45.73678" lon="2.85769">
        <ele>771.618552</ele>
        <time>2022-03-06T03:24:06Z</time>
      </trkpt>
      <trkpt lat="45.73571" lon="2.85735">
        <ele>776.536374</ele>
        <time>2022-03-06T03:26:12Z</time>
      </trkpt>
      <trkpt lat="45.73507" lon="2.85546">
        <ele>781.429457</ele>
        <time>2022-03-06T03:28:55Z</time>
      </trkpt>
      <trkpt lat="45.73407" lon="2.85691">
        <ele>785.793101</ele>
        <time>2022-03-06T03:31:33Z</time>
      </trkpt>
      <trkpt lat="45.73389" lon="2.8571">
        <ele>786.479161</ele>
        <time>2022-03-06T03:31:57Z</time>
      </trkpt>
      <trkpt lat="45.73386" lon="2.85702">
        <ele>786.66159</ele>
        <time>2022-03-06T03:32:05Z</time>
      </trkpt>
      <trkpt lat="45.73321" lon="2.85654">
        <ele>788.818</ele>
        <time>2022-03-06T03:33:25Z</time>
      </trkpt>
      <trkpt lat="45.73298" lon="2.8563">
        <ele>789.636234</ele>
        <time>2022-03-06T03:33:56Z</time>
      </trkpt>
      <trkpt lat="45.73187" lon="2.85556">
        <ele>793.16936</ele>
        <time>2022-03-06T03:36:12Z</time>
      </trkpt>
      <trkpt lat="45.7309" lon="2.85468">
        <ele>795.321251</ele>
        <time>2022-03-06T03:38:17Z</time>
      </trkpt>
      <trkpt lat="45.7298" lon="2.85419">
        <ele>798.273244</ele>
        <time>2022-03-06T03:40:16Z</time>
      </trkpt>
      <trkpt lat="45.72952" lon="2.85399">
        <ele>799.494093</ele>
        <time>2022-03-06T03:40:48Z</time>
      </trkpt>
      <trkpt lat="45.72907" lon="2.85377">
        <ele>801.366399</ele>
        <time>2022-03-06T03:41:41Z</time>
      </trkpt>
      <trkpt lat="45.72877" lon="2.85328">
        <ele>803.167883</ele>
        <time>2022-03-06T03:42:36Z</time>
      </trkpt>
      <trkpt lat="45.7286" lon="2.85284">
        <ele>806.016017</ele>
        <time>2022-03-06T03:43:21Z</time>
      </trkpt>
      <trkpt lat="45.72741" lon="2.85235">
        <ele>819.369885</ele>
        <time>2022-03-06T03:46:18Z</time>
      </trkpt>
      <trkpt lat="45.72674" lon="2.85236">
        <ele>824.068559</ele>
        <time>2022-03-06T03:47:54Z</time>
      </trkpt>
      <trkpt lat="45.72636" lon="2.85224">
        <ele>825.245172</ele>
        <time>2022-03-06T03:48:44Z</time>
      </trkpt>
      <trkpt lat="45.72581" lon="2.85175">
        <ele>827.208121</ele>
        <time>2022-03-06T03:49:56Z</time>
      </trkpt>
      <trkpt lat="45.72533" lon="2.85117">
        <ele>826.011378</ele>
        <time>2022-03-06T03:51:06Z</time>
      </trkpt>
      <trkpt lat="45.72481" lon="2.85093">
        <ele>818.74163</ele>
        <time>2022-03-06T03:52:15Z</time>
      </trkpt>
      <trkpt lat="45.72487" lon="2.84934">
        <ele>804.041613</ele>
        <time>2022-03-06T03:54:41Z</time>
      </trkpt>
      <trkpt lat="45.72385" lon="2.849">
        <ele>791.059592</ele>
        <time>2022-03-06T03:56:56Z</time>
      </trkpt>
      <trkpt lat="45.72224" lon="2.84832">
        <ele>775.889044</ele>
        <time>2022-03-06T04:00:11Z</time>
      </trkpt>
      <trkpt lat="45.72153" lon="2.84839">
        <ele>771.199882</ele>
        <time>2022-03-06T04:01:29Z</time>
      </trkpt>
      <trkpt lat="45.72089" lon="2.84818">
        <ele>768.234338</ele>
        <time>2022-03-06T04:02:40Z</time>
      </trkpt>
      <trkpt lat="45.72031" lon="2.84823">
        <ele>765.790335</ele>
        <time>2022-03-06T04:03:44Z</time>
      </trkpt>
      <trkpt lat="45.72015" lon="2.8483">
        <ele>765.102821</ele>
        <time>2022-03-06T04:04:02Z</time>
      </trkpt>
      <trkpt lat="45.72002" lon="2.84845">
        <ele>764.431159</ele>
        <time>2022-03-06T04:04:19Z</time>
      </trkpt>
      <trkpt lat="45.71982" lon="2.84733">
        <ele>761.719237</ele>
        <time>2022-03-06T04:05:46Z</time>
      </trkpt>
      <trkpt lat="45.71935" lon="2.84645">
        <ele>759.575489</ele>
        <time>2022-03-06T04:07:09Z</time>
      </trkpt>
      <trkpt lat="45.71915" lon="2.84582">
        <ele>758.236143</ele>
        <time>2022-03-06T04:08:00Z</time>
      </trkpt>
      <trkpt lat="45.71814" lon="2.84549">
        <ele>759.983061</ele>
        <time>2022-03-06T04:09:44Z</time>
      </trkpt>
      <trkpt lat="45.71812" lon="2.84546">
        <ele>760.051583</ele>
        <time>2022-03-06T04:09:48Z</time>
      </trkpt>
      <trkpt lat="45.71746" lon="2.84476">
        <ele>761.737117</ele>
        <time>2022-03-06T04:11:21Z</time>
      </trkpt>
      <trkpt lat="45.71717" lon="2.84435">
        <ele>763.989225</ele>
        <time>2022-03-06T04:12:10Z</time>
      </trkpt>
      <trkpt lat="45.71647" lon="2.84302">
        <ele>770.314226</ele>
        <time>2022-03-06T04:14:29Z</time>
      </trkpt>
      <trkpt lat="45.71626" lon="2.84228">
        <ele>773.332631</ele>
        <time>2022-03-06T04:15:36Z</time>
      </trkpt>
      <trkpt lat="45.71609" lon="2.84189">
        <ele>775.070053</ele>
        <time>2022-03-06T04:16:15Z</time>
      </trkpt>
      <trkpt lat="45.71585" lon="2.84171">
        <ele>776.485863</ele>
        <time>2022-03-06T04:16:46Z</time>
      </trkpt>
      <trkpt lat="45.71576" lon="2.84176">
        <ele>777.028769</ele>
        <time>2022-03-06T04:16:59Z</time>
      </trkpt>
      <trkpt lat="45.7156" lon="2.84171">
        <ele>777.898459</ele>
        <time>2022-03-06T04:17:18Z</time>
      </trkpt>
      <trkpt lat="45.71525" lon="2.84125">
        <ele>780.437545</ele>
        <time>2022-03-06T04:18:12Z</time>
      </trkpt>
      <trkpt lat="45.71507" lon="2.84117">
        <ele>781.385873</ele>
        <time>2022-03-06T04:18:35Z</time>
      </trkpt>
      <trkpt lat="45.7149" lon="2.8412">
        <ele>782.141511</ele>
        <time>2022-03-06T04:18:55Z</time>
      </trkpt>
      <trkpt lat="45.71471" lon="2.84126">
        <ele>782.973186</ele>
        <time>2022-03-06T04:19:18Z</time>
      </trkpt>
      <trkpt lat="45.71457" lon="2.84142">
        <ele>783.741921</ele>
        <time>2022-03-06T04:19:38Z</time>
      </trkpt>
      <trkpt lat="45.71412" lon="2.84255">
        <ele>787.626648</ele>
        <time>2022-03-06T04:21:21Z</time>
      </trkpt>
      <trkpt lat="45.71362" lon="2.84241">
        <ele>790.091128</ele>
        <time>2022-03-06T04:22:20Z</time>
      </trkpt>
      <trkpt lat="45.71312" lon="2.84216">
        <ele>792.992331</ele>
        <time>2022-03-06T04:23:22Z</time>
      </trkpt>
      <trkpt lat="45.71235" lon="2.84137">
        <ele>798.190248</ele>
        <time>2022-03-06T04:25:16Z</time>
      </trkpt>
      <trkpt lat="45.71121" lon="2.8411">
        <ele>804.60557</ele>
        <time>2022-03-06T04:27:37Z</time>
      </trkpt>
      <trkpt lat="45.7106" lon="2.84106">
        <ele>808.002884</ele>
        <time>2022-03-06T04:28:49Z</time>
      </trkpt>
      <trkpt lat="45.70975" lon="2.84089">
        <ele>811.254378</ele>
        <time>2022-03-06T04:30:26Z</time>
      </trkpt>
      <trkpt lat="45.70868" lon="2.84048">
        <ele>815.037949</ele>
        <time>2022-03-06T04:32:28Z</time>
      </trkpt>
      <trkpt lat="45.70794" lon="2.83996">
        <ele>817.714236</ele>
        <time>2022-03-06T04:34:02Z</time>
      </trkpt>
      <trkpt lat="45.70685" lon="2.83964">
        <ele>820.919877</ele>
        <time>2022-03-06T04:36:05Z</time>
      </trkpt>
      <trkpt lat="45.70663" lon="2.83966">
        <ele>821.151755</ele>
        <time>2022-03-06T04:36:30Z</time>
      </trkpt>
      <trkpt lat="45.70641" lon="2.83907">
        <ele>821.632257</ele>
        <time>2022-03-06T04:37:17Z</time>
      </trkpt>
      <trkpt lat="45.70636" lon="2.83867">
        <ele>821.919438</ele>
        <time>2022-03-06T04:37:46Z</time>
      </trkpt>
      <trkpt lat="45.70617" lon="2.83819">
        <ele>822.325802</ele>
        <time>2022-03-06T04:38:26Z</time>
      </trkpt>
      <trkpt lat="45.70622" lon="2.83756">
        <ele>822.927202</ele>
        <time>2022-03-06T04:39:10Z</time>
      </trkpt>
      <trkpt lat="45.70614" lon="2.83713">
        <ele>823.510286</ele>
        <time>2022-03-06T04:39:42Z</time>
      </trkpt>
      <trkpt lat="45.70597" lon="2.83702">
        <ele>823.856862</ele>
        <time>2022-03-06T04:40:01Z</time>
      </trkpt>
      <trkpt lat="45.70542" lon="2.83733">
        <ele>824.96644</ele>
        <time>2022-03-06T04:41:01Z</time>
      </trkpt>
      <trkpt lat="45.70516" lon="2.83758">
        <ele>825.551042</ele>
        <time>2022-03-06T04:41:35Z</time>
      </trkpt>
      <trkpt lat="45.70509" lon="2.83774">
        <ele>825.793644</ele>
        <time>2022-03-06T04:41:51Z</time>
      </trkpt>
      <trkpt lat="45.70499" lon="2.83778">
        <ele>825.99401</ele>
        <time>2022-03-06T04:42:03Z</time>
      </trkpt>
      <trkpt lat="45.70464" lon="2.83735">
        <ele>829.867571</ele>
        <time>2022-03-06T04:43:02Z</time>
      </trkpt>
      <trkpt lat="45.70434" lon="2.83735">
        <ele>832.367511</ele>
        <time>2022-03-06T04:43:41Z</time>
      </trkpt>
      <trkpt lat="45.70392" lon="2.8372">
        <ele>835.929027</ele>
        <time>2022-03-06T04:44:37Z</time>
      </trkpt>
      <trkpt lat="45.70356" lon="2.83718">
        <ele>838.97263</ele>
        <time>2022-03-06T04:45:25Z</time>
      </trkpt>
      <trkpt lat="45.70237" lon="2.8373">
        <ele>848.333807</ele>
        <time>2022-03-06T04:48:01Z</time>
      </trkpt>
      <trkpt lat="45.70207" lon="2.83742">
        <ele>850.736704</ele>
        <time>2022-03-06T04:48:41Z</time>
      </trkpt>
      <trkpt lat="45.70141" lon="2.83768">
        <ele>855.57583</ele>
        <time>2022-03-06T04:50:02Z</time>
      </trkpt>
      <trkpt lat="45.70104" lon="2.83788">
        <ele>857.474207</ele>
        <time>2022-03-06T04:50:47Z</time>
      </trkpt>
      <trkpt lat="45.701" lon="2.83799">
        <ele>857.902111</ele>
        <time>2022-03-06T04:50:58Z</time>
      </trkpt>
      <trkpt lat="45.69672" lon="2.84168">
        <ele>881.498961</ele>
        <time>2022-03-06T05:00:40Z</time>
      </trkpt>
      <trkpt lat="45.69668" lon="2.84195">
        <ele>882.303981</ele>
        <time>2022-03-06T05:01:02Z</time>
      </trkpt>
      <trkpt lat="45.69689" lon="2.84323">
        <ele>886.11877</ele>
        <time>2022-03-06T05:02:45Z</time>
      </trkpt>
      <trkpt lat="45.6968" lon="2.8434">
        <ele>886.717797</ele>
        <time>2022-03-06T05:03:01Z</time>
      </trkpt>
      <trkpt lat="45.69628" lon="2.84371">
        <ele>889.314336</ele>
        <time>2022-03-06T05:04:07Z</time>
      </trkpt>
      <trkpt lat="45.6962" lon="2.84389">
        <ele>890.087274</ele>
        <time>2022-03-06T05:04:25Z</time>
      </trkpt>
      <trkpt lat="45.69618" lon="2.8441">
        <ele>890.869165</ele>
        <time>2022-03-06T05:04:43Z</time>
      </trkpt>
      <trkpt lat="45.69625" lon="2.84495">
        <ele>893.941498</ele>
        <time>2022-03-06T05:05:53Z</time>
      </trkpt>
      <trkpt lat="45.69607" lon="2.84526">
        <ele>895.406613</ele>
        <time>2022-03-06T05:06:27Z</time>
      </trkpt>
      <trkpt lat="45.69582" lon="2.84486">
        <ele>897.356409</ele>
        <time>2022-03-06T05:07:11Z</time>
      </trkpt>
      <trkpt lat="45.69521" lon="2.84433">
        <ele>900.382992</ele>
        <time>2022-03-06T05:08:34Z</time>
      </trkpt>
      <trkpt lat="45.69497" lon="2.84419">
        <ele>901.499464</ele>
        <time>2022-03-06T05:09:04Z</time>
      </trkpt>
      <trkpt lat="45.69437" lon="2.84418">
        <ele>904.057402</ele>
        <time>2022-03-06T05:10:11Z</time>
      </trkpt>
      <trkpt lat="45.69402" lon="2.84425">
        <ele>905.675061</ele>
        <time>2022-03-06T05:10:50Z</time>
      </trkpt>
      <trkpt lat="45.69335" lon="2.84452">
        <ele>909.444155</ele>
        <time>2022-03-06T05:12:12Z</time>
      </trkpt>
      <trkpt lat="45.69305" lon="2.84454">
        <ele>911.095575</ele>
        <time>2022-03-06T05:12:49Z</time>
      </trkpt>
      <trkpt lat="45.69279" lon="2.84448">
        <ele>912.554396</ele>
        <time>2022-03-06T05:13:22Z</time>
      </trkpt>
      <trkpt lat="45.69155" lon="2.84386">
        <ele>919.709384</ele>
        <time>2022-03-06T05:16:00Z</time>
      </trkpt>
      <trkpt lat="45.69139" lon="2.8439">
        <ele>920.596254</ele>
        <time>2022-03-06T05:16:20Z</time>
      </trkpt>
      <trkpt lat="45.69093" lon="2.84359">
        <ele>923.356906</ele>
        <time>2022-03-06T05:17:19Z</time>
      </trkpt>
      <trkpt lat="45.69075" lon="2.84363">
        <ele>924.360265</ele>
        <time>2022-03-06T05:17:40Z</time>
      </trkpt>
      <trkpt lat="45.69004" lon="2.84401">
        <ele>927.154114</ele>
        <time>2022-03-06T05:19:08Z</time>
      </trkpt>
      <trkpt lat="45.68987" lon="2.84428">
        <ele>928.037592</ele>
        <time>2022-03-06T05:19:36Z</time>
      </trkpt>
      <trkpt lat="45.68962" lon="2.84449">
        <ele>929.084454</ele>
        <time>2022-03-06T05:20:08Z</time>
      </trkpt>
      <trkpt lat="45.68878" lon="2.84489">
        <ele>931.485498</ele>
        <time>2022-03-06T05:21:46Z</time>
      </trkpt>
      <trkpt lat="45.68805" lon="2.84473">
        <ele>932.488965</ele>
        <time>2022-03-06T05:23:06Z</time>
      </trkpt>
      <trkpt lat="45.68749" lon="2.84483">
        <ele>933.25132</ele>
        <time>2022-03-06T05:24:03Z</time>
      </trkpt>
      <trkpt lat="45.68724" lon="2.84495">
        <ele>933.053188</ele>
        <time>2022-03-06T05:24:30Z</time>
      </trkpt>
      <trkpt lat="45.68679" lon="2.84502">
        <ele>931.40852</ele>
        <time>2022-03-06T05:25:17Z</time>
      </trkpt>
      <trkpt lat="45.68594" lon="2.84528">
        <ele>928.302499</ele>
        <time>2022-03-06T05:26:50Z</time>
      </trkpt>
      <trkpt lat="45.6858" lon="2.84528">
        <ele>927.799937</ele>
        <time>2022-03-06T05:27:04Z</time>
      </trkpt>
      <trkpt lat="45.68487" lon="2.84525">
        <ele>919.014732</ele>
        <time>2022-03-06T05:28:54Z</time>
      </trkpt>
      <trkpt lat="45.68467" lon="2.84533">
        <ele>916.711414</ele>
        <time>2022-03-06T05:29:19Z</time>
      </trkpt>
      <trkpt lat="45.68465" lon="2.84527">
        <ele>916.182494</ele>
        <time>2022-03-06T05:29:29Z</time>
      </trkpt>
      <trkpt lat="45.68475" lon="2.84503">
        <ele>913.893977</ele>
        <time>2022-03-06T05:29:53Z</time>
      </trkpt>
      <trkpt lat="45.68471" lon="2.84477">
        <ele>911.820138</ele>
        <time>2022-03-06T05:30:18Z</time>
      </trkpt>
      <trkpt lat="45.68499" lon="2.84427">
        <ele>906.795611</ele>
        <time>2022-03-06T05:31:13Z</time>
      </trkpt>
      <trkpt lat="45.68463" lon="2.84395">
        <ele>901.78047</ele>
        <time>2022-03-06T05:32:07Z</time>
      </trkpt>
      <trkpt lat="45.68453" lon="2.8436">
        <ele>898.675808</ele>
        <time>2022-03-06T05:32:41Z</time>
      </trkpt>
      <trkpt lat="45.68391" lon="2.84302">
        <ele>889.827924</ele>
        <time>2022-03-06T05:34:13Z</time>
      </trkpt>
      <trkpt lat="45.68365" lon="2.84289">
        <ele>886.611907</ele>
        <time>2022-03-06T05:34:46Z</time>
      </trkpt>
      <trkpt lat="45.68357" lon="2.84269">
        <ele>885.352962</ele>
        <time>2022-03-06T05:35:05Z</time>
      </trkpt>
      <trkpt lat="45.68345" lon="2.84229">
        <ele>884.503558</ele>
        <time>2022-03-06T05:35:40Z</time>
      </trkpt>
      <trkpt lat="45.68327" lon="2.84196">
        <ele>883.707857</ele>
        <time>2022-03-06T05:36:11Z</time>
      </trkpt>
      <trkpt lat="45.68315" lon="2.84199">
        <ele>883.378615</ele>
        <time>2022-03-06T05:36:24Z</time>
      </trkpt>
      <trkpt lat="45.68314" lon="2.84184">
        <ele>883.08601</ele>
        <time>2022-03-06T05:36:35Z</time>
      </trkpt>
      <trkpt lat="45.68326" lon="2.84132">
        <ele>882.037531</ele>
        <time>2022-03-06T05:37:15Z</time>
      </trkpt>
      <trkpt lat="45.68314" lon="2.84184">
        <ele>880.989053</ele>
        <time>2022-03-06T05:37:55Z</time>
      </trkpt>
      <trkpt lat="45.68315" lon="2.84199">
        <ele>880.696447</ele>
        <time>2022-03-06T05:38:06Z</time>
      </trkpt>
      <trkpt lat="45.68308" lon="2.84202">
        <ele>880.965334</ele>
        <time>2022-03-06T05:38:15Z</time>
      </trkpt>
      <trkpt lat="45.68276" lon="2.84207">
        <ele>883.157603</ele>
        <time>2022-03-06T05:38:53Z</time>
      </trkpt>
      <trkpt lat="45.68255" lon="2.84201">
        <ele>884.602515</ele>
        <time>2022-03-06T05:39:19Z</time>
      </trkpt>
      <trkpt lat="45.68241" lon="2.8422">
        <ele>885.903042</ele>
        <time>2022-03-06T05:39:44Z</time>
      </trkpt>
      <trkpt lat="45.68211" lon="2.84217">
        <ele>887.883528</ele>
        <time>2022-03-06T05:40:22Z</time>
      </trkpt>
      <trkpt lat="45.68156" lon="2.84239">
        <ele>891.774146</ele>
        <time>2022-03-06T05:41:37Z</time>
      </trkpt>
      <trkpt lat="45.68131" lon="2.84285">
        <ele>894.456365</ele>
        <time>2022-03-06T05:42:29Z</time>
      </trkpt>
      <trkpt lat="45.6812" lon="2.84277">
        <ele>895.32192</ele>
        <time>2022-03-06T05:42:44Z</time>
      </trkpt>
      <trkpt lat="45.68115" lon="2.84283">
        <ele>895.772268</ele>
        <time>2022-03-06T05:42:54Z</time>
      </trkpt>
      <trkpt lat="45.68103" lon="2.84282">
        <ele>896.524719</ele>
        <time>2022-03-06T05:43:08Z</time>
      </trkpt>
      <trkpt lat="45.68048" lon="2.84264">
        <ele>900.301915</ele>
        <time>2022-03-06T05:44:18Z</time>
      </trkpt>
      <trkpt lat="45.67945" lon="2.84205">
        <ele>907.238491</ele>
        <time>2022-03-06T05:46:30Z</time>
      </trkpt>
      <trkpt lat="45.67862" lon="2.84196">
        <ele>911.955823</ele>
        <time>2022-03-06T05:48:06Z</time>
      </trkpt>
      <trkpt lat="45.6785" lon="2.84205">
        <ele>912.724234</ele>
        <time>2022-03-06T05:48:24Z</time>
      </trkpt>
      <trkpt lat="45.67786" lon="2.84206">
        <ele>917.293239</ele>
        <time>2022-03-06T05:49:43Z</time>
      </trkpt>
      <trkpt lat="45.67719" lon="2.84215">
        <ele>923.390239</ele>
        <time>2022-03-06T05:51:08Z</time>
      </trkpt>
      <trkpt lat="45.67693" lon="2.84226">
        <ele>925.938595</ele>
        <time>2022-03-06T05:51:46Z</time>
      </trkpt>
      <trkpt lat="45.67655" lon="2.84267">
        <ele>930.338958</ele>
        <time>2022-03-06T05:52:48Z</time>
      </trkpt>
      <trkpt lat="45.67597" lon="2.84348">
        <ele>942.194196</ele>
        <time>2022-03-06T05:54:45Z</time>
      </trkpt>
      <trkpt lat="45.67553" lon="2.84432">
        <ele>953.692488</ele>
        <time>2022-03-06T05:56:58Z</time>
      </trkpt>
      <trkpt lat="45.6752" lon="2.84514">
        <ele>964.111547</ele>
        <time>2022-03-06T05:59:06Z</time>
      </trkpt>
      <trkpt lat="45.67465" lon="2.84625">
        <ele>979.388743</ele>
        <time>2022-03-06T06:02:00Z</time>
      </trkpt>
      <trkpt lat="45.67442" lon="2.8465">
        <ele>983.993583</ele>
        <time>2022-03-06T06:02:42Z</time>
      </trkpt>
      <trkpt lat="45.67397" lon="2.84657">
        <ele>989.790607</ele>
        <time>2022-03-06T06:03:50Z</time>
      </trkpt>
      <trkpt lat="45.67375" lon="2.84653">
        <ele>991.428039</ele>
        <time>2022-03-06T06:04:17Z</time>
      </trkpt>
      <trkpt lat="45.6736" lon="2.8464">
        <ele>992.790808</ele>
        <time>2022-03-06T06:04:40Z</time>
      </trkpt>
      <trkpt lat="45.67332" lon="2.84599">
        <ele>995.867113</ele>
        <time>2022-03-06T06:05:27Z</time>
      </trkpt>
      <trkpt lat="45.6732" lon="2.84594">
        <ele>996.820815</ele>
        <time>2022-03-06T06:05:42Z</time>
      </trkpt>
      <trkpt lat="45.67306" lon="2.84607">
        <ele>998.066717</ele>
        <time>2022-03-06T06:06:02Z</time>
      </trkpt>
      <trkpt lat="45.67314" lon="2.84678">
        <ele>1001.887955</ele>
        <time>2022-03-06T06:07:02Z</time>
      </trkpt>
      <trkpt lat="45.67299" lon="2.84748">
        <ele>1006.567659</ele>
        <time>2022-03-06T06:08:05Z</time>
      </trkpt>
      <trkpt lat="45.67275" lon="2.84827">
        <ele>1012.126947</ele>
        <time>2022-03-06T06:09:27Z</time>
      </trkpt>
      <trkpt lat="45.6723" lon="2.84959">
        <ele>1020.781193</ele>
        <time>2022-03-06T06:11:45Z</time>
      </trkpt>
      <trkpt lat="45.67204" lon="2.8499">
        <ele>1023.036998</ele>
        <time>2022-03-06T06:12:29Z</time>
      </trkpt>
      <trkpt lat="45.67118" lon="2.84994">
        <ele>1028.815006</ele>
        <time>2022-03-06T06:14:12Z</time>
      </trkpt>
      <trkpt lat="45.67152" lon="2.85037">
        <ele>1031.390028</ele>
        <time>2022-03-06T06:15:03Z</time>
      </trkpt>
      <trkpt lat="45.67191" lon="2.85102">
        <ele>1033.766079</ele>
        <time>2022-03-06T06:16:10Z</time>
      </trkpt>
      <trkpt lat="45.67195" lon="2.85119">
        <ele>1034.293238</ele>
        <time>2022-03-06T06:16:25Z</time>
      </trkpt>
      <trkpt lat="45.67181" lon="2.8512">
        <ele>1034.877907</ele>
        <time>2022-03-06T06:16:41Z</time>
      </trkpt>
      <trkpt lat="45.66981" lon="2.85052">
        <ele>1044.517021</ele>
        <time>2022-03-06T06:20:38Z</time>
      </trkpt>
      <trkpt lat="45.66969" lon="2.85047">
        <ele>1045.142674</ele>
        <time>2022-03-06T06:20:52Z</time>
      </trkpt>
      <trkpt lat="45.66558" lon="2.84881">
        <ele>1074.21673</ele>
        <time>2022-03-06T06:29:44Z</time>
      </trkpt>
      <trkpt lat="45.66388" lon="2.84775">
        <ele>1085.009728</ele>
        <time>2022-03-06T06:33:25Z</time>
      </trkpt>
      <trkpt lat="45.66334" lon="2.84737">
        <ele>1088.550774</ele>
        <time>2022-03-06T06:34:37Z</time>
      </trkpt>
      <trkpt lat="45.66311" lon="2.84714">
        <ele>1090.176637</ele>
        <time>2022-03-06T06:35:11Z</time>
      </trkpt>
      <trkpt lat="45.66267" lon="2.84757">
        <ele>1093.326204</ele>
        <time>2022-03-06T06:36:15Z</time>
      </trkpt>
      <trkpt lat="45.66206" lon="2.84777">
        <ele>1097.667215</ele>
        <time>2022-03-06T06:37:32Z</time>
      </trkpt>
      <trkpt lat="45.66201" lon="2.8479">
        <ele>1098.431449</ele>
        <time>2022-03-06T06:37:46Z</time>
      </trkpt>
      <trkpt lat="45.66197" lon="2.8488">
        <ele>1102.801425</ele>
        <time>2022-03-06T06:39:02Z</time>
      </trkpt>
      <trkpt lat="45.66189" lon="2.8489">
        <ele>1103.537671</ele>
        <time>2022-03-06T06:39:16Z</time>
      </trkpt>
      <trkpt lat="45.66175" lon="2.84896">
        <ele>1104.600976</ele>
        <time>2022-03-06T06:39:34Z</time>
      </trkpt>
      <trkpt lat="45.66161" lon="2.84911">
        <ele>1105.824019</ele>
        <time>2022-03-06T06:39:57Z</time>
      </trkpt>
      <trkpt lat="45.66061" lon="2.84956">
        <ele>1114.590037</ele>
        <time>2022-03-06T06:42:11Z</time>
      </trkpt>
      <trkpt lat="45.66027" lon="2.84965">
        <ele>1117.530606</ele>
        <time>2022-03-06T06:42:55Z</time>
      </trkpt>
      <trkpt lat="45.6599" lon="2.84982">
        <ele>1120.850175</ele>
        <time>2022-03-06T06:43:46Z</time>
      </trkpt>
      <trkpt lat="45.65883" lon="2.85013">
        <ele>1130.443468</ele>
        <time>2022-03-06T06:46:10Z</time>
      </trkpt>
      <trkpt lat="45.65801" lon="2.8505">
        <ele>1137.893326</ele>
        <time>2022-03-06T06:47:59Z</time>
      </trkpt>
      <trkpt lat="45.65759" lon="2.85084">
        <ele>1141.666939</ele>
        <time>2022-03-06T06:49:00Z</time>
      </trkpt>
      <trkpt lat="45.65713" lon="2.85121">
        <ele>1145.891573</ele>
        <time>2022-03-06T06:50:09Z</time>
      </trkpt>
      <trkpt lat="45.65668" lon="2.85174">
        <ele>1150.425005</ele>
        <time>2022-03-06T06:51:22Z</time>
      </trkpt>
      <trkpt lat="45.65656" lon="2.85207">
        <ele>1152.4048</ele>
        <time>2022-03-06T06:51:54Z</time>
      </trkpt>
      <trkpt lat="45.65533" lon="2.85364">
        <ele>1164.40158</ele>
        <time>2022-03-06T06:55:19Z</time>
      </trkpt>
      <trkpt lat="45.65488" lon="2.85396">
        <ele>1168.59924</ele>
        <time>2022-03-06T06:56:23Z</time>
      </trkpt>
      <trkpt lat="45.65462" lon="2.85402">
        <ele>1170.829653</ele>
        <time>2022-03-06T06:56:57Z</time>
      </trkpt>
      <trkpt lat="45.6537" lon="2.85392">
        <ele>1178.511908</ele>
        <time>2022-03-06T06:58:56Z</time>
      </trkpt>
      <trkpt lat="45.65313" lon="2.85387">
        <ele>1183.387123</ele>
        <time>2022-03-06T07:00:10Z</time>
      </trkpt>
      <trkpt lat="45.65323" lon="2.85433">
        <ele>1186.301448</ele>
        <time>2022-03-06T07:00:53Z</time>
      </trkpt>
      <trkpt lat="45.65316" lon="2.85436">
        <ele>1186.893295</ele>
        <time>2022-03-06T07:01:04Z</time>
      </trkpt>
      <trkpt lat="45.65291" lon="2.85426">
        <ele>1189.110334</ele>
        <time>2022-03-06T07:01:35Z</time>
      </trkpt>
      <trkpt lat="45.65237" lon="2.85444">
        <ele>1193.93416</ele>
        <time>2022-03-06T07:02:51Z</time>
      </trkpt>
      <trkpt lat="45.65222" lon="2.85455">
        <ele>1195.235579</ele>
        <time>2022-03-06T07:03:11Z</time>
      </trkpt>
      <trkpt lat="45.65206" lon="2.85456">
        <ele>1196.288113</ele>
        <time>2022-03-06T07:03:33Z</time>
      </trkpt>
      <trkpt lat="45.65158" lon="2.85442">
        <ele>1199.480197</ele>
        <time>2022-03-06T07:04:34Z</time>
      </trkpt>
      <trkpt lat="45.65135" lon="2.85442">
        <ele>1201.038374</ele>
        <time>2022-03-06T07:05:04Z</time>
      </trkpt>
      <trkpt lat="45.65112" lon="2.85471">
        <ele>1203.049725</ele>
        <time>2022-03-06T07:05:41Z</time>
      </trkpt>
      <trkpt lat="45.64919" lon="2.85851">
        <ele>1214.219747</ele>
        <time>2022-03-06T07:11:55Z</time>
      </trkpt>
      <trkpt lat="45.64836" lon="2.85764">
        <ele>1214.154443</ele>
        <time>2022-03-06T07:13:44Z</time>
      </trkpt>
      <trkpt lat="45.64796" lon="2.85717">
        <ele>1212.744573</ele>
        <time>2022-03-06T07:14:40Z</time>
      </trkpt>
      <trkpt lat="45.64779" lon="2.85711">
        <ele>1212.272928</ele>
        <time>2022-03-06T07:15:00Z</time>
      </trkpt>
      <trkpt lat="45.64795" lon="2.85844">
        <ele>1209.74014</ele>
        <time>2022-03-06T07:16:38Z</time>
      </trkpt>
    </trkseg>
  </trk>
  <trk>
    <name><![CDATA[J4]]></name>
    <extensions>
      <line xmlns="http://www.topografix.com/GPX/gpx_style/0/2">
        <color>ff9200</color>
        <width>4</width>
      </line>
    </extensions>
    <trkseg>
      <trkpt lat="45.64795" lon="2.85844">
        <ele>1209.74014</ele>
        <time>2022-03-06T07:16:38Z</time>
      </trkpt>
      <trkpt lat="45.64772" lon="2.86025">
        <ele>1209.137145</ele>
        <time>2022-03-06T07:18:47Z</time>
      </trkpt>
      <trkpt lat="45.64761" lon="2.86032">
        <ele>1209.081574</ele>
        <time>2022-03-06T07:19:00Z</time>
      </trkpt>
      <trkpt lat="45.64729" lon="2.86096">
        <ele>1208.374619</ele>
        <time>2022-03-06T07:19:54Z</time>
      </trkpt>
      <trkpt lat="45.64719" lon="2.86169">
        <ele>1206.518645</ele>
        <time>2022-03-06T07:20:49Z</time>
      </trkpt>
      <trkpt lat="45.64725" lon="2.86231">
        <ele>1204.977673</ele>
        <time>2022-03-06T07:21:36Z</time>
      </trkpt>
      <trkpt lat="45.64735" lon="2.86267">
        <ele>1204.023353</ele>
        <time>2022-03-06T07:22:06Z</time>
      </trkpt>
      <trkpt lat="45.6473" lon="2.86381">
        <ele>1199.947464</ele>
        <time>2022-03-06T07:23:35Z</time>
      </trkpt>
      <trkpt lat="45.64724" lon="2.86544">
        <ele>1192.278156</ele>
        <time>2022-03-06T07:25:47Z</time>
      </trkpt>
      <trkpt lat="45.64725" lon="2.86565">
        <ele>1191.261798</ele>
        <time>2022-03-06T07:26:04Z</time>
      </trkpt>
      <trkpt lat="45.64727" lon="2.86624">
        <ele>1189.240596</ele>
        <time>2022-03-06T07:26:50Z</time>
      </trkpt>
      <trkpt lat="45.64728" lon="2.8663">
        <ele>1189.058315</ele>
        <time>2022-03-06T07:26:55Z</time>
      </trkpt>
      <trkpt lat="45.64721" lon="2.86641">
        <ele>1188.631629</ele>
        <time>2022-03-06T07:27:07Z</time>
      </trkpt>
      <trkpt lat="45.64685" lon="2.86825">
        <ele>1183.24376</ele>
        <time>2022-03-06T07:29:30Z</time>
      </trkpt>
      <trkpt lat="45.64654" lon="2.86906">
        <ele>1182.05939</ele>
        <time>2022-03-06T07:30:36Z</time>
      </trkpt>
      <trkpt lat="45.64567" lon="2.87032">
        <ele>1179.687412</ele>
        <time>2022-03-06T07:32:44Z</time>
      </trkpt>
      <trkpt lat="45.64563" lon="2.87066">
        <ele>1178.418148</ele>
        <time>2022-03-06T07:33:08Z</time>
      </trkpt>
      <trkpt lat="45.64549" lon="2.87102">
        <ele>1176.8908</ele>
        <time>2022-03-06T07:33:39Z</time>
      </trkpt>
      <trkpt lat="45.64524" lon="2.87131">
        <ele>1175.117502</ele>
        <time>2022-03-06T07:34:17Z</time>
      </trkpt>
      <trkpt lat="45.64518" lon="2.87153">
        <ele>1174.237353</ele>
        <time>2022-03-06T07:34:35Z</time>
      </trkpt>
      <trkpt lat="45.64519" lon="2.87188">
        <ele>1172.924043</ele>
        <time>2022-03-06T07:35:02Z</time>
      </trkpt>
      <trkpt lat="45.645" lon="2.8721">
        <ele>1171.586327</ele>
        <time>2022-03-06T07:35:31Z</time>
      </trkpt>
      <trkpt lat="45.64496" lon="2.8723">
        <ele>1170.831996</ele>
        <time>2022-03-06T07:35:47Z</time>
      </trkpt>
      <trkpt lat="45.64498" lon="2.87247">
        <ele>1170.040502</ele>
        <time>2022-03-06T07:36:01Z</time>
      </trkpt>
      <trkpt lat="45.64515" lon="2.87316">
        <ele>1165.187924</ele>
        <time>2022-03-06T07:37:00Z</time>
      </trkpt>
      <trkpt lat="45.6452" lon="2.87419">
        <ele>1158.328325</ele>
        <time>2022-03-06T07:38:27Z</time>
      </trkpt>
      <trkpt lat="45.64526" lon="2.87444">
        <ele>1156.557099</ele>
        <time>2022-03-06T07:38:50Z</time>
      </trkpt>
      <trkpt lat="45.64513" lon="2.8755">
        <ele>1149.630273</ele>
        <time>2022-03-06T07:40:21Z</time>
      </trkpt>
      <trkpt lat="45.6452" lon="2.87615">
        <ele>1145.478221</ele>
        <time>2022-03-06T07:41:15Z</time>
      </trkpt>
      <trkpt lat="45.64516" lon="2.87626">
        <ele>1144.720449</ele>
        <time>2022-03-06T07:41:25Z</time>
      </trkpt>
      <trkpt lat="45.6452" lon="2.8768">
        <ele>1141.319636</ele>
        <time>2022-03-06T07:42:09Z</time>
      </trkpt>
      <trkpt lat="45.64546" lon="2.87811">
        <ele>1134.228213</ele>
        <time>2022-03-06T07:44:00Z</time>
      </trkpt>
      <trkpt lat="45.64579" lon="2.87846">
        <ele>1131.811466</ele>
        <time>2022-03-06T07:44:46Z</time>
      </trkpt>
      <trkpt lat="45.64625" lon="2.87879">
        <ele>1128.802455</ele>
        <time>2022-03-06T07:45:43Z</time>
      </trkpt>
      <trkpt lat="45.64665" lon="2.87917">
        <ele>1126.31498</ele>
        <time>2022-03-06T07:46:37Z</time>
      </trkpt>
      <trkpt lat="45.64728" lon="2.87991">
        <ele>1124.597052</ele>
        <time>2022-03-06T07:48:03Z</time>
      </trkpt>
      <trkpt lat="45.64739" lon="2.88014">
        <ele>1124.175015</ele>
        <time>2022-03-06T07:48:23Z</time>
      </trkpt>
      <trkpt lat="45.64783" lon="2.8807">
        <ele>1122.918689</ele>
        <time>2022-03-06T07:49:24Z</time>
      </trkpt>
      <trkpt lat="45.64773" lon="2.88079">
        <ele>1122.722204</ele>
        <time>2022-03-06T07:49:37Z</time>
      </trkpt>
      <trkpt lat="45.6474" lon="2.88081">
        <ele>1123.576073</ele>
        <time>2022-03-06T07:50:10Z</time>
      </trkpt>
      <trkpt lat="45.64723" lon="2.88089">
        <ele>1124.050387</ele>
        <time>2022-03-06T07:50:29Z</time>
      </trkpt>
      <trkpt lat="45.64659" lon="2.88086">
        <ele>1125.703494</ele>
        <time>2022-03-06T07:51:40Z</time>
      </trkpt>
      <trkpt lat="45.64616" lon="2.88063">
        <ele>1126.899873</ele>
        <time>2022-03-06T07:52:34Z</time>
      </trkpt>
      <trkpt lat="45.64561" lon="2.88078">
        <ele>1128.468876</ele>
        <time>2022-03-06T07:53:35Z</time>
      </trkpt>
      <trkpt lat="45.64548" lon="2.88088">
        <ele>1128.905716</ele>
        <time>2022-03-06T07:53:53Z</time>
      </trkpt>
      <trkpt lat="45.64494" lon="2.88117">
        <ele>1130.613076</ele>
        <time>2022-03-06T07:54:56Z</time>
      </trkpt>
      <trkpt lat="45.64469" lon="2.88117">
        <ele>1131.342679</ele>
        <time>2022-03-06T07:55:23Z</time>
      </trkpt>
      <trkpt lat="45.64413" lon="2.88176">
        <ele>1133.766585</ele>
        <time>2022-03-06T07:56:39Z</time>
      </trkpt>
      <trkpt lat="45.64368" lon="2.88193">
        <ele>1135.871884</ele>
        <time>2022-03-06T07:57:30Z</time>
      </trkpt>
      <trkpt lat="45.64335" lon="2.88195">
        <ele>1137.339635</ele>
        <time>2022-03-06T07:58:07Z</time>
      </trkpt>
      <trkpt lat="45.64264" lon="2.88176">
        <ele>1140.54689</ele>
        <time>2022-03-06T07:59:34Z</time>
      </trkpt>
      <trkpt lat="45.64124" lon="2.88208">
        <ele>1152.020109</ele>
        <time>2022-03-06T08:02:36Z</time>
      </trkpt>
      <trkpt lat="45.64061" lon="2.88233">
        <ele>1156.631592</ele>
        <time>2022-03-06T08:04:01Z</time>
      </trkpt>
      <trkpt lat="45.64028" lon="2.88278">
        <ele>1159.117721</ele>
        <time>2022-03-06T08:04:59Z</time>
      </trkpt>
      <trkpt lat="45.63944" lon="2.88515">
        <ele>1166.13945</ele>
        <time>2022-03-06T08:08:28Z</time>
      </trkpt>
      <trkpt lat="45.6389" lon="2.88647">
        <ele>1167.716911</ele>
        <time>2022-03-06T08:10:16Z</time>
      </trkpt>
      <trkpt lat="45.63863" lon="2.88693">
        <ele>1167.558942</ele>
        <time>2022-03-06T08:10:58Z</time>
      </trkpt>
      <trkpt lat="45.63824" lon="2.88776">
        <ele>1167.291078</ele>
        <time>2022-03-06T08:12:10Z</time>
      </trkpt>
      <trkpt lat="45.63818" lon="2.88782">
        <ele>1167.264451</ele>
        <time>2022-03-06T08:12:17Z</time>
      </trkpt>
      <trkpt lat="45.63764" lon="2.88837">
        <ele>1167.110497</ele>
        <time>2022-03-06T08:13:24Z</time>
      </trkpt>
      <trkpt lat="45.63744" lon="2.88859">
        <ele>1167.303094</ele>
        <time>2022-03-06T08:13:50Z</time>
      </trkpt>
      <trkpt lat="45.63707" lon="2.88905">
        <ele>1167.679302</ele>
        <time>2022-03-06T08:14:40Z</time>
      </trkpt>
      <trkpt lat="45.63704" lon="2.88924">
        <ele>1167.784565</ele>
        <time>2022-03-06T08:14:55Z</time>
      </trkpt>
      <trkpt lat="45.63671" lon="2.88925">
        <ele>1168.034653</ele>
        <time>2022-03-06T08:15:29Z</time>
      </trkpt>
      <trkpt lat="45.63671" lon="2.88918">
        <ele>1168.069946</ele>
        <time>2022-03-06T08:15:34Z</time>
      </trkpt>
      <trkpt lat="45.63631" lon="2.88918">
        <ele>1168.374331</ele>
        <time>2022-03-06T08:16:16Z</time>
      </trkpt>
      <trkpt lat="45.63631" lon="2.88927">
        <ele>1168.392375</ele>
        <time>2022-03-06T08:16:24Z</time>
      </trkpt>
      <trkpt lat="45.63631" lon="2.88949">
        <ele>1167.879559</ele>
        <time>2022-03-06T08:16:38Z</time>
      </trkpt>
      <trkpt lat="45.63631" lon="2.88966">
        <ele>1167.461514</ele>
        <time>2022-03-06T08:16:51Z</time>
      </trkpt>
      <trkpt lat="45.63629" lon="2.88965">
        <ele>1167.391319</ele>
        <time>2022-03-06T08:16:53Z</time>
      </trkpt>
      <trkpt lat="45.63621" lon="2.88965">
        <ele>1167.09933</ele>
        <time>2022-03-06T08:17:01Z</time>
      </trkpt>
      <trkpt lat="45.63554" lon="2.88976">
        <ele>1164.749604</ele>
        <time>2022-03-06T08:18:13Z</time>
      </trkpt>
      <trkpt lat="45.63519" lon="2.88981">
        <ele>1163.536851</ele>
        <time>2022-03-06T08:18:52Z</time>
      </trkpt>
      <trkpt lat="45.63494" lon="2.88994">
        <ele>1162.59913</ele>
        <time>2022-03-06T08:19:23Z</time>
      </trkpt>
      <trkpt lat="45.63464" lon="2.89014">
        <ele>1160.819082</ele>
        <time>2022-03-06T08:19:59Z</time>
      </trkpt>
      <trkpt lat="45.63442" lon="2.89129">
        <ele>1155.430687</ele>
        <time>2022-03-06T08:21:36Z</time>
      </trkpt>
      <trkpt lat="45.63443" lon="2.89141">
        <ele>1154.851286</ele>
        <time>2022-03-06T08:21:46Z</time>
      </trkpt>
      <trkpt lat="45.63449" lon="2.89157">
        <ele>1153.99917</ele>
        <time>2022-03-06T08:22:01Z</time>
      </trkpt>
      <trkpt lat="45.63618" lon="2.89392">
        <ele>1138.868431</ele>
        <time>2022-03-06T08:26:24Z</time>
      </trkpt>
      <trkpt lat="45.63469" lon="2.89512">
        <ele>1122.52795</ele>
        <time>2022-03-06T08:29:48Z</time>
      </trkpt>
      <trkpt lat="45.63394" lon="2.8954">
        <ele>1113.156098</ele>
        <time>2022-03-06T08:31:25Z</time>
      </trkpt>
      <trkpt lat="45.63348" lon="2.89619">
        <ele>1104.323761</ele>
        <time>2022-03-06T08:32:54Z</time>
      </trkpt>
      <trkpt lat="45.63301" lon="2.89701">
        <ele>1095.491886</ele>
        <time>2022-03-06T08:34:27Z</time>
      </trkpt>
      <trkpt lat="45.63255" lon="2.89738">
        <ele>1089.577629</ele>
        <time>2022-03-06T08:35:32Z</time>
      </trkpt>
      <trkpt lat="45.6323" lon="2.89771">
        <ele>1085.652753</ele>
        <time>2022-03-06T08:36:14Z</time>
      </trkpt>
      <trkpt lat="45.63197" lon="2.89843">
        <ele>1078.959115</ele>
        <time>2022-03-06T08:37:26Z</time>
      </trkpt>
      <trkpt lat="45.63183" lon="2.89883">
        <ele>1076.776352</ele>
        <time>2022-03-06T08:38:03Z</time>
      </trkpt>
      <trkpt lat="45.63142" lon="2.89956">
        <ele>1072.142471</ele>
        <time>2022-03-06T08:39:19Z</time>
      </trkpt>
      <trkpt lat="45.63134" lon="2.9002">
        <ele>1068.974821</ele>
        <time>2022-03-06T08:40:10Z</time>
      </trkpt>
      <trkpt lat="45.63141" lon="2.90059">
        <ele>1066.978038</ele>
        <time>2022-03-06T08:40:42Z</time>
      </trkpt>
      <trkpt lat="45.63133" lon="2.90098">
        <ele>1066.307519</ele>
        <time>2022-03-06T08:41:12Z</time>
      </trkpt>
      <trkpt lat="45.63044" lon="2.90201">
        <ele>1065.248645</ele>
        <time>2022-03-06T08:43:08Z</time>
      </trkpt>
      <trkpt lat="45.63026" lon="2.90224">
        <ele>1065.023881</ele>
        <time>2022-03-06T08:43:34Z</time>
      </trkpt>
      <trkpt lat="45.6302" lon="2.9024">
        <ele>1064.905371</ele>
        <time>2022-03-06T08:43:47Z</time>
      </trkpt>
      <trkpt lat="45.63017" lon="2.90249">
        <ele>1064.842674</ele>
        <time>2022-03-06T08:43:54Z</time>
      </trkpt>
      <trkpt lat="45.63018" lon="2.90273">
        <ele>1064.818441</ele>
        <time>2022-03-06T08:44:12Z</time>
      </trkpt>
      <trkpt lat="45.6304" lon="2.90355">
        <ele>1064.728691</ele>
        <time>2022-03-06T08:45:16Z</time>
      </trkpt>
      <trkpt lat="45.63058" lon="2.90467">
        <ele>1064.610226</ele>
        <time>2022-03-06T08:46:37Z</time>
      </trkpt>
      <trkpt lat="45.63085" lon="2.90577">
        <ele>1061.346707</ele>
        <time>2022-03-06T08:48:05Z</time>
      </trkpt>
      <trkpt lat="45.6311" lon="2.90639">
        <ele>1058.678289</ele>
        <time>2022-03-06T08:49:00Z</time>
      </trkpt>
      <trkpt lat="45.63202" lon="2.90728">
        <ele>1052.09042</ele>
        <time>2022-03-06T08:51:09Z</time>
      </trkpt>
      <trkpt lat="45.63256" lon="2.90806">
        <ele>1046.845548</ele>
        <time>2022-03-06T08:52:37Z</time>
      </trkpt>
      <trkpt lat="45.63267" lon="2.90888">
        <ele>1042.857637</ele>
        <time>2022-03-06T08:53:42Z</time>
      </trkpt>
      <trkpt lat="45.63291" lon="2.90936">
        <ele>1041.348764</ele>
        <time>2022-03-06T08:54:28Z</time>
      </trkpt>
      <trkpt lat="45.63325" lon="2.90975">
        <ele>1039.889212</ele>
        <time>2022-03-06T08:55:14Z</time>
      </trkpt>
      <trkpt lat="45.63337" lon="2.91078">
        <ele>1037.433824</ele>
        <time>2022-03-06T08:56:31Z</time>
      </trkpt>
      <trkpt lat="45.63337" lon="2.91147">
        <ele>1035.999603</ele>
        <time>2022-03-06T08:57:22Z</time>
      </trkpt>
      <trkpt lat="45.63382" lon="2.91352">
        <ele>1032.287102</ele>
        <time>2022-03-06T09:00:00Z</time>
      </trkpt>
      <trkpt lat="45.63391" lon="2.91444">
        <ele>1030.549131</ele>
        <time>2022-03-06T09:01:09Z</time>
      </trkpt>
      <trkpt lat="45.63456" lon="2.91647">
        <ele>1026.636532</ele>
        <time>2022-03-06T09:03:53Z</time>
      </trkpt>
      <trkpt lat="45.63492" lon="2.91661">
        <ele>1025.990581</ele>
        <time>2022-03-06T09:04:33Z</time>
      </trkpt>
      <trkpt lat="45.63516" lon="2.91825">
        <ele>1024.179427</ele>
        <time>2022-03-06T09:06:34Z</time>
      </trkpt>
      <trkpt lat="45.63551" lon="2.9185">
        <ele>1024.393966</ele>
        <time>2022-03-06T09:07:13Z</time>
      </trkpt>
      <trkpt lat="45.63628" lon="2.91905">
        <ele>1024.868807</ele>
        <time>2022-03-06T09:08:41Z</time>
      </trkpt>
      <trkpt lat="45.63707" lon="2.91986">
        <ele>1026.376644</ele>
        <time>2022-03-06T09:10:24Z</time>
      </trkpt>
      <trkpt lat="45.63729" lon="2.91999">
        <ele>1026.946618</ele>
        <time>2022-03-06T09:10:50Z</time>
      </trkpt>
      <trkpt lat="45.63828" lon="2.91988">
        <ele>1029.33468</ele>
        <time>2022-03-06T09:12:38Z</time>
      </trkpt>
      <trkpt lat="45.639" lon="2.9206">
        <ele>1031.586576</ele>
        <time>2022-03-06T09:14:17Z</time>
      </trkpt>
      <trkpt lat="45.63977" lon="2.92028">
        <ele>1033.637944</ele>
        <time>2022-03-06T09:15:44Z</time>
      </trkpt>
      <trkpt lat="45.6401" lon="2.91989">
        <ele>1033.878979</ele>
        <time>2022-03-06T09:16:29Z</time>
      </trkpt>
      <trkpt lat="45.64027" lon="2.9193">
        <ele>1033.550557</ele>
        <time>2022-03-06T09:17:14Z</time>
      </trkpt>
      <trkpt lat="45.64099" lon="2.91852">
        <ele>1032.871494</ele>
        <time>2022-03-06T09:18:47Z</time>
      </trkpt>
      <trkpt lat="45.64117" lon="2.91842">
        <ele>1032.704429</ele>
        <time>2022-03-06T09:19:08Z</time>
      </trkpt>
      <trkpt lat="45.64138" lon="2.91853">
        <ele>1031.993548</ele>
        <time>2022-03-06T09:19:31Z</time>
      </trkpt>
      <trkpt lat="45.64145" lon="2.9185">
        <ele>1031.75544</ele>
        <time>2022-03-06T09:19:39Z</time>
      </trkpt>
      <trkpt lat="45.64166" lon="2.91844">
        <ele>1031.060626</ele>
        <time>2022-03-06T09:20:03Z</time>
      </trkpt>
      <trkpt lat="45.64186" lon="2.91834">
        <ele>1030.377843</ele>
        <time>2022-03-06T09:20:26Z</time>
      </trkpt>
      <trkpt lat="45.64215" lon="2.91838">
        <ele>1029.462542</ele>
        <time>2022-03-06T09:20:57Z</time>
      </trkpt>
      <trkpt lat="45.64231" lon="2.9186">
        <ele>1028.738233</ele>
        <time>2022-03-06T09:21:21Z</time>
      </trkpt>
      <trkpt lat="45.64243" lon="2.91855">
        <ele>1028.335825</ele>
        <time>2022-03-06T09:21:34Z</time>
      </trkpt>
      <trkpt lat="45.64254" lon="2.91853">
        <ele>1027.980993</ele>
        <time>2022-03-06T09:21:46Z</time>
      </trkpt>
      <trkpt lat="45.64243" lon="2.91855">
        <ele>1027.626161</ele>
        <time>2022-03-06T09:21:57Z</time>
      </trkpt>
      <trkpt lat="45.64261" lon="2.9188">
        <ele>1026.853395</ele>
        <time>2022-03-06T09:22:24Z</time>
      </trkpt>
      <trkpt lat="45.64296" lon="2.91893">
        <ele>1025.923348</ele>
        <time>2022-03-06T09:23:02Z</time>
      </trkpt>
      <trkpt lat="45.64321" lon="2.91911">
        <ele>1025.192848</ele>
        <time>2022-03-06T09:23:32Z</time>
      </trkpt>
      <trkpt lat="45.64331" lon="2.91943">
        <ele>1024.548509</ele>
        <time>2022-03-06T09:23:58Z</time>
      </trkpt>
      <trkpt lat="45.64333" lon="2.91992">
        <ele>1023.657863</ele>
        <time>2022-03-06T09:24:34Z</time>
      </trkpt>
      <trkpt lat="45.64371" lon="2.92072">
        <ele>1022.10001</ele>
        <time>2022-03-06T09:25:44Z</time>
      </trkpt>
      <trkpt lat="45.64374" lon="2.92076">
        <ele>1022.05077</ele>
        <time>2022-03-06T09:25:48Z</time>
      </trkpt>
      <trkpt lat="45.64412" lon="2.92134">
        <ele>1021.393259</ele>
        <time>2022-03-06T09:26:45Z</time>
      </trkpt>
      <trkpt lat="45.64439" lon="2.92202">
        <ele>1020.742797</ele>
        <time>2022-03-06T09:27:42Z</time>
      </trkpt>
      <trkpt lat="45.64462" lon="2.92299">
        <ele>1019.855968</ele>
        <time>2022-03-06T09:28:54Z</time>
      </trkpt>
      <trkpt lat="45.64488" lon="2.92355">
        <ele>1019.203673</ele>
        <time>2022-03-06T09:29:42Z</time>
      </trkpt>
      <trkpt lat="45.64524" lon="2.92421">
        <ele>1018.380148</ele>
        <time>2022-03-06T09:30:43Z</time>
      </trkpt>
      <trkpt lat="45.64543" lon="2.9247">
        <ele>1017.837317</ele>
        <time>2022-03-06T09:31:23Z</time>
      </trkpt>
      <trkpt lat="45.64573" lon="2.92567">
        <ele>1016.15486</ele>
        <time>2022-03-06T09:32:41Z</time>
      </trkpt>
      <trkpt lat="45.64686" lon="2.92674">
        <ele>1012.903835</ele>
        <time>2022-03-06T09:35:05Z</time>
      </trkpt>
      <trkpt lat="45.64696" lon="2.92691">
        <ele>1012.638639</ele>
        <time>2022-03-06T09:35:21Z</time>
      </trkpt>
      <trkpt lat="45.64737" lon="2.92783">
        <ele>1011.300093</ele>
        <time>2022-03-06T09:36:41Z</time>
      </trkpt>
      <trkpt lat="45.64836" lon="2.92899">
        <ele>1008.988267</ele>
        <time>2022-03-06T09:38:52Z</time>
      </trkpt>
      <trkpt lat="45.6488" lon="2.92965">
        <ele>1007.816511</ele>
        <time>2022-03-06T09:39:56Z</time>
      </trkpt>
      <trkpt lat="45.64893" lon="2.92976">
        <ele>1007.527232</ele>
        <time>2022-03-06T09:40:12Z</time>
      </trkpt>
      <trkpt lat="45.64905" lon="2.92977">
        <ele>1007.294008</ele>
        <time>2022-03-06T09:40:26Z</time>
      </trkpt>
      <trkpt lat="45.64958" lon="2.92955">
        <ele>1005.606103</ele>
        <time>2022-03-06T09:41:25Z</time>
      </trkpt>
      <trkpt lat="45.65047" lon="2.92941">
        <ele>1001.311975</ele>
        <time>2022-03-06T09:43:03Z</time>
      </trkpt>
      <trkpt lat="45.65089" lon="2.92925">
        <ele>999.239865</ele>
        <time>2022-03-06T09:43:51Z</time>
      </trkpt>
      <trkpt lat="45.65123" lon="2.92892">
        <ele>997.756853</ele>
        <time>2022-03-06T09:44:38Z</time>
      </trkpt>
      <trkpt lat="45.65151" lon="2.92881">
        <ele>997.271623</ele>
        <time>2022-03-06T09:45:10Z</time>
      </trkpt>
      <trkpt lat="45.65182" lon="2.92892">
        <ele>996.736321</ele>
        <time>2022-03-06T09:45:44Z</time>
      </trkpt>
      <trkpt lat="45.65189" lon="2.92901">
        <ele>996.578853</ele>
        <time>2022-03-06T09:45:54Z</time>
      </trkpt>
      <trkpt lat="45.65268" lon="2.93179">
        <ele>999.002934</ele>
        <time>2022-03-06T09:49:33Z</time>
      </trkpt>
      <trkpt lat="45.65396" lon="2.93408">
        <ele>1010.986888</ele>
        <time>2022-03-06T09:53:50Z</time>
      </trkpt>
      <trkpt lat="45.65436" lon="2.93452">
        <ele>1014.036364</ele>
        <time>2022-03-06T09:54:51Z</time>
      </trkpt>
      <trkpt lat="45.65452" lon="2.9347">
        <ele>1014.808281</ele>
        <time>2022-03-06T09:55:16Z</time>
      </trkpt>
      <trkpt lat="45.65535" lon="2.93537">
        <ele>1018.407376</ele>
        <time>2022-03-06T09:57:04Z</time>
      </trkpt>
      <trkpt lat="45.65666" lon="2.93707">
        <ele>1021.675174</ele>
        <time>2022-03-06T10:00:11Z</time>
      </trkpt>
      <trkpt lat="45.65723" lon="2.93762">
        <ele>1022.254352</ele>
        <time>2022-03-06T10:01:20Z</time>
      </trkpt>
      <trkpt lat="45.65802" lon="2.93819">
        <ele>1022.288599</ele>
        <time>2022-03-06T10:02:48Z</time>
      </trkpt>
      <trkpt lat="45.6583" lon="2.93843">
        <ele>1022.301356</ele>
        <time>2022-03-06T10:03:21Z</time>
      </trkpt>
      <trkpt lat="45.65876" lon="2.93852">
        <ele>1022.326968</ele>
        <time>2022-03-06T10:04:08Z</time>
      </trkpt>
      <trkpt lat="45.65958" lon="2.93886">
        <ele>1022.780433</ele>
        <time>2022-03-06T10:05:34Z</time>
      </trkpt>
      <trkpt lat="45.6598" lon="2.93889">
        <ele>1022.90123</ele>
        <time>2022-03-06T10:05:57Z</time>
      </trkpt>
      <trkpt lat="45.65995" lon="2.93883">
        <ele>1022.982173</ele>
        <time>2022-03-06T10:06:12Z</time>
      </trkpt>
      <trkpt lat="45.65989" lon="2.93934">
        <ele>1023.174726</ele>
        <time>2022-03-06T10:06:49Z</time>
      </trkpt>
      <trkpt lat="45.66001" lon="2.93939">
        <ele>1023.241919</ele>
        <time>2022-03-06T10:07:02Z</time>
      </trkpt>
      <trkpt lat="45.66098" lon="2.94156">
        <ele>1024.845592</ele>
        <time>2022-03-06T10:10:08Z</time>
      </trkpt>
      <trkpt lat="45.66128" lon="2.94239">
        <ele>1025.801335</ele>
        <time>2022-03-06T10:11:16Z</time>
      </trkpt>
      <trkpt lat="45.66163" lon="2.94362">
        <ele>1027.229746</ele>
        <time>2022-03-06T10:12:54Z</time>
      </trkpt>
      <trkpt lat="45.66197" lon="2.94438">
        <ele>1028.097726</ele>
        <time>2022-03-06T10:14:02Z</time>
      </trkpt>
      <trkpt lat="45.66293" lon="2.9463">
        <ele>1029.800485</ele>
        <time>2022-03-06T10:16:54Z</time>
      </trkpt>
      <trkpt lat="45.66364" lon="2.94768">
        <ele>1029.130152</ele>
        <time>2022-03-06T10:18:57Z</time>
      </trkpt>
      <trkpt lat="45.66379" lon="2.94821">
        <ele>1028.908276</ele>
        <time>2022-03-06T10:19:39Z</time>
      </trkpt>
      <trkpt lat="45.66289" lon="2.94954">
        <ele>1031.495598</ele>
        <time>2022-03-06T10:21:53Z</time>
      </trkpt>
      <trkpt lat="45.66343" lon="2.94996">
        <ele>1033.019256</ele>
        <time>2022-03-06T10:23:05Z</time>
      </trkpt>
      <trkpt lat="45.66444" lon="2.95112">
        <ele>1039.254173</ele>
        <time>2022-03-06T10:25:42Z</time>
      </trkpt>
      <trkpt lat="45.66478" lon="2.95163">
        <ele>1041.128574</ele>
        <time>2022-03-06T10:26:37Z</time>
      </trkpt>
      <trkpt lat="45.66592" lon="2.95278">
        <ele>1039.978303</ele>
        <time>2022-03-06T10:28:58Z</time>
      </trkpt>
      <trkpt lat="45.66678" lon="2.9533">
        <ele>1035.597754</ele>
        <time>2022-03-06T10:30:42Z</time>
      </trkpt>
      <trkpt lat="45.66686" lon="2.95331">
        <ele>1035.072659</ele>
        <time>2022-03-06T10:30:51Z</time>
      </trkpt>
      <trkpt lat="45.66734" lon="2.95342">
        <ele>1031.77908</ele>
        <time>2022-03-06T10:31:47Z</time>
      </trkpt>
      <trkpt lat="45.66774" lon="2.95336">
        <ele>1029.071256</ele>
        <time>2022-03-06T10:32:34Z</time>
      </trkpt>
      <trkpt lat="45.66814" lon="2.95303">
        <ele>1025.445194</ele>
        <time>2022-03-06T10:33:27Z</time>
      </trkpt>
      <trkpt lat="45.66841" lon="2.95293">
        <ele>1022.9811</ele>
        <time>2022-03-06T10:34:00Z</time>
      </trkpt>
      <trkpt lat="45.66841" lon="2.95293">
        <ele>1022.95159</ele>
        <time>2022-03-06T10:34:01Z</time>
      </trkpt>
      <trkpt lat="45.66934" lon="2.9522">
        <ele>1013.557317</ele>
        <time>2022-03-06T10:36:04Z</time>
      </trkpt>
      <trkpt lat="45.67031" lon="2.95117">
        <ele>1002.194</ele>
        <time>2022-03-06T10:38:29Z</time>
      </trkpt>
      <trkpt lat="45.67047" lon="2.95115">
        <ele>1000.659493</ele>
        <time>2022-03-06T10:38:49Z</time>
      </trkpt>
      <trkpt lat="45.6717" lon="2.95213">
        <ele>989.579009</ele>
        <time>2022-03-06T10:41:34Z</time>
      </trkpt>
      <trkpt lat="45.6731" lon="2.95323">
        <ele>980.965352</ele>
        <time>2022-03-06T10:44:30Z</time>
      </trkpt>
      <trkpt lat="45.67304" lon="2.95341">
        <ele>980.467675</ele>
        <time>2022-03-06T10:44:45Z</time>
      </trkpt>
      <trkpt lat="45.67227" lon="2.95515">
        <ele>975.767858</ele>
        <time>2022-03-06T10:47:17Z</time>
      </trkpt>
      <trkpt lat="45.67148" lon="2.95659">
        <ele>971.920739</ele>
        <time>2022-03-06T10:49:32Z</time>
      </trkpt>
      <trkpt lat="45.67113" lon="2.95718">
        <ele>970.18774</ele>
        <time>2022-03-06T10:50:31Z</time>
      </trkpt>
      <trkpt lat="45.67085" lon="2.9582">
        <ele>967.726026</ele>
        <time>2022-03-06T10:51:52Z</time>
      </trkpt>
      <trkpt lat="45.6707" lon="2.95855">
        <ele>966.803654</ele>
        <time>2022-03-06T10:52:23Z</time>
      </trkpt>
      <trkpt lat="45.66971" lon="2.96054">
        <ele>962.055624</ele>
        <time>2022-03-06T10:55:25Z</time>
      </trkpt>
      <trkpt lat="45.66931" lon="2.96116">
        <ele>960.789348</ele>
        <time>2022-03-06T10:56:26Z</time>
      </trkpt>
      <trkpt lat="45.66891" lon="2.96196">
        <ele>960.572973</ele>
        <time>2022-03-06T10:57:36Z</time>
      </trkpt>
      <trkpt lat="45.66954" lon="2.96215">
        <ele>960.369084</ele>
        <time>2022-03-06T10:58:43Z</time>
      </trkpt>
      <trkpt lat="45.67027" lon="2.96249">
        <ele>959.308286</ele>
        <time>2022-03-06T11:00:00Z</time>
      </trkpt>
      <trkpt lat="45.6703" lon="2.96266">
        <ele>959.036163</ele>
        <time>2022-03-06T11:00:12Z</time>
      </trkpt>
      <trkpt lat="45.67023" lon="2.96291">
        <ele>958.599478</ele>
        <time>2022-03-06T11:00:31Z</time>
      </trkpt>
      <trkpt lat="45.67021" lon="2.96302">
        <ele>958.415831</ele>
        <time>2022-03-06T11:00:40Z</time>
      </trkpt>
      <trkpt lat="45.67013" lon="2.96348">
        <ele>957.656429</ele>
        <time>2022-03-06T11:01:15Z</time>
      </trkpt>
      <trkpt lat="45.67012" lon="2.96423">
        <ele>956.46667</ele>
        <time>2022-03-06T11:02:11Z</time>
      </trkpt>
      <trkpt lat="45.6706" lon="2.96584">
        <ele>950.360963</ele>
        <time>2022-03-06T11:04:27Z</time>
      </trkpt>
      <trkpt lat="45.67074" lon="2.96697">
        <ele>946.332573</ele>
        <time>2022-03-06T11:05:57Z</time>
      </trkpt>
      <trkpt lat="45.67073" lon="2.96721">
        <ele>945.924521</ele>
        <time>2022-03-06T11:06:15Z</time>
      </trkpt>
      <trkpt lat="45.67061" lon="2.96785">
        <ele>944.774137</ele>
        <time>2022-03-06T11:07:05Z</time>
      </trkpt>
      <trkpt lat="45.67084" lon="2.96794">
        <ele>944.179091</ele>
        <time>2022-03-06T11:07:31Z</time>
      </trkpt>
      <trkpt lat="45.67113" lon="2.96794">
        <ele>943.470023</ele>
        <time>2022-03-06T11:08:01Z</time>
      </trkpt>
      <trkpt lat="45.67368" lon="2.96738">
        <ele>940.693581</ele>
        <time>2022-03-06T11:12:20Z</time>
      </trkpt>
      <trkpt lat="45.67406" lon="2.96751">
        <ele>939.471442</ele>
        <time>2022-03-06T11:13:01Z</time>
      </trkpt>
      <trkpt lat="45.67433" lon="2.96759">
        <ele>938.622282</ele>
        <time>2022-03-06T11:13:30Z</time>
      </trkpt>
      <trkpt lat="45.67572" lon="2.97063">
        <ele>927.667592</ele>
        <time>2022-03-06T11:18:09Z</time>
      </trkpt>
      <trkpt lat="45.67594" lon="2.97098">
        <ele>925.834927</ele>
        <time>2022-03-06T11:18:46Z</time>
      </trkpt>
      <trkpt lat="45.67599" lon="2.97108">
        <ele>925.326782</ele>
        <time>2022-03-06T11:18:55Z</time>
      </trkpt>
      <trkpt lat="45.6762" lon="2.97127">
        <ele>923.823188</ele>
        <time>2022-03-06T11:19:23Z</time>
      </trkpt>
      <trkpt lat="45.67699" lon="2.97178">
        <ele>918.634774</ele>
        <time>2022-03-06T11:21:01Z</time>
      </trkpt>
      <trkpt lat="45.67721" lon="2.97212">
        <ele>916.722576</ele>
        <time>2022-03-06T11:21:37Z</time>
      </trkpt>
      <trkpt lat="45.67768" lon="2.97265">
        <ele>914.211612</ele>
        <time>2022-03-06T11:22:44Z</time>
      </trkpt>
      <trkpt lat="45.67782" lon="2.97288">
        <ele>913.392184</ele>
        <time>2022-03-06T11:23:07Z</time>
      </trkpt>
      <trkpt lat="45.67809" lon="2.97358">
        <ele>911.239224</ele>
        <time>2022-03-06T11:24:08Z</time>
      </trkpt>
      <trkpt lat="45.67906" lon="2.97533">
        <ele>908.507598</ele>
        <time>2022-03-06T11:26:48Z</time>
      </trkpt>
      <trkpt lat="45.67923" lon="2.97558">
        <ele>908.34028</ele>
        <time>2022-03-06T11:27:12Z</time>
      </trkpt>
      <trkpt lat="45.67979" lon="2.97606">
        <ele>907.92377</ele>
        <time>2022-03-06T11:28:18Z</time>
      </trkpt>
      <trkpt lat="45.68041" lon="2.97661">
        <ele>907.580092</ele>
        <time>2022-03-06T11:29:32Z</time>
      </trkpt>
      <trkpt lat="45.68061" lon="2.97697">
        <ele>907.426973</ele>
        <time>2022-03-06T11:30:05Z</time>
      </trkpt>
      <trkpt lat="45.68113" lon="2.97846">
        <ele>907.959803</ele>
        <time>2022-03-06T11:32:02Z</time>
      </trkpt>
      <trkpt lat="45.68132" lon="2.97891">
        <ele>908.514993</ele>
        <time>2022-03-06T11:32:41Z</time>
      </trkpt>
      <trkpt lat="45.68152" lon="2.97914">
        <ele>908.885096</ele>
        <time>2022-03-06T11:33:07Z</time>
      </trkpt>
      <trkpt lat="45.68191" lon="2.97932">
        <ele>909.499152</ele>
        <time>2022-03-06T11:33:52Z</time>
      </trkpt>
      <trkpt lat="45.68245" lon="2.97944">
        <ele>911.08562</ele>
        <time>2022-03-06T11:34:55Z</time>
      </trkpt>
      <trkpt lat="45.68355" lon="2.97954">
        <ele>915.202341</ele>
        <time>2022-03-06T11:37:01Z</time>
      </trkpt>
      <trkpt lat="45.68376" lon="2.97976">
        <ele>916.161031</ele>
        <time>2022-03-06T11:37:30Z</time>
      </trkpt>
      <trkpt lat="45.68407" lon="2.97981">
        <ele>916.808451</ele>
        <time>2022-03-06T11:38:05Z</time>
      </trkpt>
      <trkpt lat="45.68455" lon="2.97965">
        <ele>917.39239</ele>
        <time>2022-03-06T11:38:58Z</time>
      </trkpt>
      <trkpt lat="45.68512" lon="2.98025">
        <ele>918.241324</ele>
        <time>2022-03-06T11:40:11Z</time>
      </trkpt>
      <trkpt lat="45.68582" lon="2.98055">
        <ele>918.093586</ele>
        <time>2022-03-06T11:41:26Z</time>
      </trkpt>
      <trkpt lat="45.68591" lon="2.98068">
        <ele>917.851062</ele>
        <time>2022-03-06T11:41:40Z</time>
      </trkpt>
      <trkpt lat="45.68607" lon="2.9811">
        <ele>917.250439</ele>
        <time>2022-03-06T11:42:14Z</time>
      </trkpt>
      <trkpt lat="45.68619" lon="2.98176">
        <ele>916.368401</ele>
        <time>2022-03-06T11:43:04Z</time>
      </trkpt>
      <trkpt lat="45.68663" lon="2.98234">
        <ele>915.318232</ele>
        <time>2022-03-06T11:44:06Z</time>
      </trkpt>
      <trkpt lat="45.68674" lon="2.9826">
        <ele>915.060996</ele>
        <time>2022-03-06T11:44:29Z</time>
      </trkpt>
      <trkpt lat="45.6868" lon="2.98282">
        <ele>914.857357</ele>
        <time>2022-03-06T11:44:46Z</time>
      </trkpt>
      <trkpt lat="45.68682" lon="2.98315">
        <ele>914.575627</ele>
        <time>2022-03-06T11:45:10Z</time>
      </trkpt>
      <trkpt lat="45.68679" lon="2.98403">
        <ele>913.8341</ele>
        <time>2022-03-06T11:46:13Z</time>
      </trkpt>
      <trkpt lat="45.68691" lon="2.98429">
        <ele>913.567603</ele>
        <time>2022-03-06T11:46:36Z</time>
      </trkpt>
      <trkpt lat="45.68745" lon="2.98485">
        <ele>913.412407</ele>
        <time>2022-03-06T11:47:43Z</time>
      </trkpt>
      <trkpt lat="45.68763" lon="2.9855">
        <ele>913.648722</ele>
        <time>2022-03-06T11:48:32Z</time>
      </trkpt>
      <trkpt lat="45.68803" lon="2.98597">
        <ele>913.90342</ele>
        <time>2022-03-06T11:49:26Z</time>
      </trkpt>
      <trkpt lat="45.6883" lon="2.98657">
        <ele>914.137258</ele>
        <time>2022-03-06T11:50:17Z</time>
      </trkpt>
      <trkpt lat="45.68893" lon="2.98688">
        <ele>914.390273</ele>
        <time>2022-03-06T11:51:25Z</time>
      </trkpt>
      <trkpt lat="45.68921" lon="2.98673">
        <ele>914.503239</ele>
        <time>2022-03-06T11:51:55Z</time>
      </trkpt>
      <trkpt lat="45.68931" lon="2.98674">
        <ele>914.542373</ele>
        <time>2022-03-06T11:52:05Z</time>
      </trkpt>
      <trkpt lat="45.6896" lon="2.98703">
        <ele>914.675031</ele>
        <time>2022-03-06T11:52:41Z</time>
      </trkpt>
      <trkpt lat="45.6901" lon="2.98755">
        <ele>914.743161</ele>
        <time>2022-03-06T11:53:43Z</time>
      </trkpt>
      <trkpt lat="45.69024" lon="2.9879">
        <ele>914.705021</ele>
        <time>2022-03-06T11:54:13Z</time>
      </trkpt>
      <trkpt lat="45.69025" lon="2.98805">
        <ele>914.690975</ele>
        <time>2022-03-06T11:54:24Z</time>
      </trkpt>
      <trkpt lat="45.69036" lon="2.98807">
        <ele>914.676202</ele>
        <time>2022-03-06T11:54:35Z</time>
      </trkpt>
      <trkpt lat="45.69041" lon="2.98779">
        <ele>914.649352</ele>
        <time>2022-03-06T11:54:55Z</time>
      </trkpt>
      <trkpt lat="45.69053" lon="2.98759">
        <ele>914.625167</ele>
        <time>2022-03-06T11:55:13Z</time>
      </trkpt>
      <trkpt lat="45.69061" lon="2.98755">
        <ele>914.613806</ele>
        <time>2022-03-06T11:55:22Z</time>
      </trkpt>
      <trkpt lat="45.69072" lon="2.98751">
        <ele>914.59794</ele>
        <time>2022-03-06T11:55:34Z</time>
      </trkpt>
      <trkpt lat="45.69133" lon="2.9877">
        <ele>914.164125</ele>
        <time>2022-03-06T11:56:37Z</time>
      </trkpt>
      <trkpt lat="45.69099" lon="2.98834">
        <ele>913.244698</ele>
        <time>2022-03-06T11:57:35Z</time>
      </trkpt>
      <trkpt lat="45.69095" lon="2.98863">
        <ele>912.905625</ele>
        <time>2022-03-06T11:57:56Z</time>
      </trkpt>
      <trkpt lat="45.69096" lon="2.98932">
        <ele>912.123727</ele>
        <time>2022-03-06T11:58:46Z</time>
      </trkpt>
      <trkpt lat="45.691" lon="2.98944">
        <ele>911.970412</ele>
        <time>2022-03-06T11:58:56Z</time>
      </trkpt>
      <trkpt lat="45.69107" lon="2.98965">
        <ele>911.701425</ele>
        <time>2022-03-06T11:59:13Z</time>
      </trkpt>
      <trkpt lat="45.69172" lon="2.99058">
        <ele>909.831632</ele>
        <time>2022-03-06T12:00:50Z</time>
      </trkpt>
      <trkpt lat="45.69191" lon="2.99108">
        <ele>909.01853</ele>
        <time>2022-03-06T12:01:32Z</time>
      </trkpt>
      <trkpt lat="45.69201" lon="2.99211">
        <ele>907.813414</ele>
        <time>2022-03-06T12:02:47Z</time>
      </trkpt>
      <trkpt lat="45.69209" lon="2.99254">
        <ele>907.656909</ele>
        <time>2022-03-06T12:03:19Z</time>
      </trkpt>
      <trkpt lat="45.69265" lon="2.9938">
        <ele>907.123747</ele>
        <time>2022-03-06T12:05:04Z</time>
      </trkpt>
      <trkpt lat="45.69308" lon="2.99446">
        <ele>908.074225</ele>
        <time>2022-03-06T12:06:10Z</time>
      </trkpt>
      <trkpt lat="45.69314" lon="2.99451">
        <ele>908.25209</ele>
        <time>2022-03-06T12:06:16Z</time>
      </trkpt>
      <trkpt lat="45.69348" lon="2.99474">
        <ele>909.348887</ele>
        <time>2022-03-06T12:06:57Z</time>
      </trkpt>
      <trkpt lat="45.69374" lon="2.9952">
        <ele>910.53081</ele>
        <time>2022-03-06T12:07:41Z</time>
      </trkpt>
      <trkpt lat="45.69398" lon="2.99559">
        <ele>911.578539</ele>
        <time>2022-03-06T12:08:23Z</time>
      </trkpt>
      <trkpt lat="45.69408" lon="2.99535">
        <ele>912.117608</ele>
        <time>2022-03-06T12:08:46Z</time>
      </trkpt>
      <trkpt lat="45.69411" lon="2.99496">
        <ele>913.886693</ele>
        <time>2022-03-06T12:09:20Z</time>
      </trkpt>
      <trkpt lat="45.69421" lon="2.99447">
        <ele>916.246494</ele>
        <time>2022-03-06T12:10:05Z</time>
      </trkpt>
      <trkpt lat="45.69432" lon="2.99424">
        <ele>917.524003</ele>
        <time>2022-03-06T12:10:29Z</time>
      </trkpt>
      <trkpt lat="45.69484" lon="2.99384">
        <ele>921.447864</ele>
        <time>2022-03-06T12:11:42Z</time>
      </trkpt>
      <trkpt lat="45.69485" lon="2.99365">
        <ele>922.325391</ele>
        <time>2022-03-06T12:11:59Z</time>
      </trkpt>
      <trkpt lat="45.69495" lon="2.9935">
        <ele>923.283283</ele>
        <time>2022-03-06T12:12:16Z</time>
      </trkpt>
      <trkpt lat="45.69516" lon="2.99286">
        <ele>925.688161</ele>
        <time>2022-03-06T12:13:16Z</time>
      </trkpt>
      <trkpt lat="45.69542" lon="2.99175">
        <ele>929.223966</ele>
        <time>2022-03-06T12:14:54Z</time>
      </trkpt>
      <trkpt lat="45.69566" lon="2.99115">
        <ele>931.309146</ele>
        <time>2022-03-06T12:15:45Z</time>
      </trkpt>
      <trkpt lat="45.69556" lon="2.99068">
        <ele>931.98671</ele>
        <time>2022-03-06T12:16:21Z</time>
      </trkpt>
      <trkpt lat="45.69526" lon="2.98981">
        <ele>932.452991</ele>
        <time>2022-03-06T12:17:30Z</time>
      </trkpt>
      <trkpt lat="45.69521" lon="2.98938">
        <ele>932.660636</ele>
        <time>2022-03-06T12:18:01Z</time>
      </trkpt>
      <trkpt lat="45.69557" lon="2.98855">
        <ele>933.234474</ele>
        <time>2022-03-06T12:19:09Z</time>
      </trkpt>
      <trkpt lat="45.69575" lon="2.98763">
        <ele>934.668976</ele>
        <time>2022-03-06T12:20:19Z</time>
      </trkpt>
      <trkpt lat="45.69608" lon="2.98656">
        <ele>936.400473</ele>
        <time>2022-03-06T12:21:47Z</time>
      </trkpt>
      <trkpt lat="45.69638" lon="2.98512">
        <ele>940.500473</ele>
        <time>2022-03-06T12:23:48Z</time>
      </trkpt>
      <trkpt lat="45.69652" lon="2.98389">
        <ele>944.332877</ele>
        <time>2022-03-06T12:25:31Z</time>
      </trkpt>
      <trkpt lat="45.69694" lon="2.98195">
        <ele>949.217747</ele>
        <time>2022-03-06T12:28:11Z</time>
      </trkpt>
      <trkpt lat="45.69707" lon="2.98073">
        <ele>952.01879</ele>
        <time>2022-03-06T12:29:44Z</time>
      </trkpt>
      <trkpt lat="45.69733" lon="2.97938">
        <ele>955.07002</ele>
        <time>2022-03-06T12:31:31Z</time>
      </trkpt>
      <trkpt lat="45.69802" lon="2.97759">
        <ele>961.657614</ele>
        <time>2022-03-06T12:34:17Z</time>
      </trkpt>
      <trkpt lat="45.69843" lon="2.97586">
        <ele>968.765842</ele>
        <time>2022-03-06T12:36:52Z</time>
      </trkpt>
      <trkpt lat="45.69884" lon="2.97459">
        <ele>974.747546</ele>
        <time>2022-03-06T12:38:51Z</time>
      </trkpt>
      <trkpt lat="45.69922" lon="2.97382">
        <ele>977.920697</ele>
        <time>2022-03-06T12:40:10Z</time>
      </trkpt>
      <trkpt lat="45.6996" lon="2.97231">
        <ele>981.403676</ele>
        <time>2022-03-06T12:42:16Z</time>
      </trkpt>
      <trkpt lat="45.70028" lon="2.97033">
        <ele>982.578583</ele>
        <time>2022-03-06T12:44:51Z</time>
      </trkpt>
      <trkpt lat="45.70053" lon="2.9699">
        <ele>982.571785</ele>
        <time>2022-03-06T12:45:31Z</time>
      </trkpt>
      <trkpt lat="45.70072" lon="2.96937">
        <ele>982.642925</ele>
        <time>2022-03-06T12:46:14Z</time>
      </trkpt>
      <trkpt lat="45.70084" lon="2.96902">
        <ele>982.769615</ele>
        <time>2022-03-06T12:46:41Z</time>
      </trkpt>
      <trkpt lat="45.7013" lon="2.96788">
        <ele>983.199157</ele>
        <time>2022-03-06T12:48:14Z</time>
      </trkpt>
      <trkpt lat="45.70146" lon="2.96748">
        <ele>983.351431</ele>
        <time>2022-03-06T12:48:48Z</time>
      </trkpt>
      <trkpt lat="45.70136" lon="2.96735">
        <ele>983.50163</ele>
        <time>2022-03-06T12:49:03Z</time>
      </trkpt>
      <trkpt lat="45.70135" lon="2.96685">
        <ele>985.024708</ele>
        <time>2022-03-06T12:49:40Z</time>
      </trkpt>
      <trkpt lat="45.70129" lon="2.96675">
        <ele>985.431938</ele>
        <time>2022-03-06T12:49:51Z</time>
      </trkpt>
      <trkpt lat="45.70122" lon="2.96629">
        <ele>986.870489</ele>
        <time>2022-03-06T12:50:29Z</time>
      </trkpt>
      <trkpt lat="45.70094" lon="2.96568">
        <ele>989.111345</ele>
        <time>2022-03-06T12:51:30Z</time>
      </trkpt>
      <trkpt lat="45.7007" lon="2.96503">
        <ele>991.356523</ele>
        <time>2022-03-06T12:52:32Z</time>
      </trkpt>
      <trkpt lat="45.70064" lon="2.96462">
        <ele>992.473961</ele>
        <time>2022-03-06T12:53:07Z</time>
      </trkpt>
      <trkpt lat="45.70067" lon="2.96325">
        <ele>996.151624</ele>
        <time>2022-03-06T12:54:57Z</time>
      </trkpt>
      <trkpt lat="45.70079" lon="2.96268">
        <ele>997.721885</ele>
        <time>2022-03-06T12:55:43Z</time>
      </trkpt>
      <trkpt lat="45.70093" lon="2.96239">
        <ele>998.12799</ele>
        <time>2022-03-06T12:56:09Z</time>
      </trkpt>
      <trkpt lat="45.70113" lon="2.96172">
        <ele>997.886381</ele>
        <time>2022-03-06T12:57:01Z</time>
      </trkpt>
      <trkpt lat="45.70152" lon="2.96118">
        <ele>997.631448</ele>
        <time>2022-03-06T12:57:56Z</time>
      </trkpt>
      <trkpt lat="45.7019" lon="2.96051">
        <ele>997.34679</ele>
        <time>2022-03-06T12:58:59Z</time>
      </trkpt>
      <trkpt lat="45.70212" lon="2.96019">
        <ele>997.022636</ele>
        <time>2022-03-06T12:59:31Z</time>
      </trkpt>
      <trkpt lat="45.70231" lon="2.95974">
        <ele>996.614686</ele>
        <time>2022-03-06T13:00:10Z</time>
      </trkpt>
      <trkpt lat="45.70267" lon="2.95923">
        <ele>996.065761</ele>
        <time>2022-03-06T13:01:01Z</time>
      </trkpt>
      <trkpt lat="45.70281" lon="2.95892">
        <ele>995.779336</ele>
        <time>2022-03-06T13:01:28Z</time>
      </trkpt>
      <trkpt lat="45.70311" lon="2.95847">
        <ele>995.499829</ele>
        <time>2022-03-06T13:02:11Z</time>
      </trkpt>
      <trkpt lat="45.70334" lon="2.95808">
        <ele>996.183738</ele>
        <time>2022-03-06T13:02:47Z</time>
      </trkpt>
      <trkpt lat="45.70368" lon="2.95725">
        <ele>997.485616</ele>
        <time>2022-03-06T13:03:56Z</time>
      </trkpt>
      <trkpt lat="45.70375" lon="2.95684">
        <ele>998.061475</ele>
        <time>2022-03-06T13:04:28Z</time>
      </trkpt>
      <trkpt lat="45.70401" lon="2.95646">
        <ele>998.773706</ele>
        <time>2022-03-06T13:05:12Z</time>
      </trkpt>
      <trkpt lat="45.70448" lon="2.95579">
        <ele>1002.900608</ele>
        <time>2022-03-06T13:06:32Z</time>
      </trkpt>
      <trkpt lat="45.70473" lon="2.95487">
        <ele>1007.36932</ele>
        <time>2022-03-06T13:07:54Z</time>
      </trkpt>
      <trkpt lat="45.70474" lon="2.95485">
        <ele>1007.472392</ele>
        <time>2022-03-06T13:08:00Z</time>
      </trkpt>
      <trkpt lat="45.70471" lon="2.95459">
        <ele>1008.689198</ele>
        <time>2022-03-06T13:08:22Z</time>
      </trkpt>
      <trkpt lat="45.70491" lon="2.95413">
        <ele>1011.304381</ele>
        <time>2022-03-06T13:09:08Z</time>
      </trkpt>
      <trkpt lat="45.70516" lon="2.95387">
        <ele>1014.03399</ele>
        <time>2022-03-06T13:09:50Z</time>
      </trkpt>
      <trkpt lat="45.70528" lon="2.95348">
        <ele>1016.599059</ele>
        <time>2022-03-06T13:10:30Z</time>
      </trkpt>
      <trkpt lat="45.70537" lon="2.95343">
        <ele>1017.491817</ele>
        <time>2022-03-06T13:10:43Z</time>
      </trkpt>
      <trkpt lat="45.70553" lon="2.95311">
        <ele>1019.852854</ele>
        <time>2022-03-06T13:11:20Z</time>
      </trkpt>
      <trkpt lat="45.70592" lon="2.95294">
        <ele>1023.385537</ele>
        <time>2022-03-06T13:12:11Z</time>
      </trkpt>
      <trkpt lat="45.70615" lon="2.95266">
        <ele>1026.046867</ele>
        <time>2022-03-06T13:12:50Z</time>
      </trkpt>
      <trkpt lat="45.70653" lon="2.95206">
        <ele>1029.92113</ele>
        <time>2022-03-06T13:14:01Z</time>
      </trkpt>
      <trkpt lat="45.70675" lon="2.95112">
        <ele>1034.672596</ele>
        <time>2022-03-06T13:15:29Z</time>
      </trkpt>
      <trkpt lat="45.70673" lon="2.95058">
        <ele>1037.207415</ele>
        <time>2022-03-06T13:16:14Z</time>
      </trkpt>
      <trkpt lat="45.70678" lon="2.95006">
        <ele>1039.06592</ele>
        <time>2022-03-06T13:16:57Z</time>
      </trkpt>
      <trkpt lat="45.7073" lon="2.94859">
        <ele>1042.725681</ele>
        <time>2022-03-06T13:19:05Z</time>
      </trkpt>
      <trkpt lat="45.70888" lon="2.94631">
        <ele>1047.530201</ele>
        <time>2022-03-06T13:23:05Z</time>
      </trkpt>
      <trkpt lat="45.70972" lon="2.94489">
        <ele>1047.854651</ele>
        <time>2022-03-06T13:25:18Z</time>
      </trkpt>
      <trkpt lat="45.70997" lon="2.94429">
        <ele>1047.963725</ele>
        <time>2022-03-06T13:26:07Z</time>
      </trkpt>
      <trkpt lat="45.71005" lon="2.94374">
        <ele>1047.917087</ele>
        <time>2022-03-06T13:26:47Z</time>
      </trkpt>
      <trkpt lat="45.71033" lon="2.94337">
        <ele>1047.860156</ele>
        <time>2022-03-06T13:27:26Z</time>
      </trkpt>
    </trkseg>
  </trk>
  <trk>
    <name><![CDATA[J5]]></name>
    <extensions>
      <line xmlns="http://www.topografix.com/GPX/gpx_style/0/2">
        <color>00fcff</color>
        <width>4</width>
      </line>
    </extensions>
    <trkseg>
      <trkpt lat="45.71033" lon="2.94337">
        <ele>1047.860156</ele>
        <time>2022-03-06T13:27:26Z</time>
      </trkpt>
      <trkpt lat="45.71046" lon="2.94295">
        <ele>1047.813122</ele>
        <time>2022-03-06T13:27:58Z</time>
      </trkpt>
      <trkpt lat="45.71102" lon="2.94447">
        <ele>1048.402066</ele>
        <time>2022-03-06T13:30:01Z</time>
      </trkpt>
      <trkpt lat="45.71192" lon="2.94597">
        <ele>1050.512736</ele>
        <time>2022-03-06T13:32:27Z</time>
      </trkpt>
      <trkpt lat="45.71248" lon="2.94663">
        <ele>1052.458666</ele>
        <time>2022-03-06T13:33:45Z</time>
      </trkpt>
      <trkpt lat="45.71351" lon="2.9472">
        <ele>1055.554737</ele>
        <time>2022-03-06T13:35:48Z</time>
      </trkpt>
      <trkpt lat="45.71367" lon="2.94727">
        <ele>1056.280474</ele>
        <time>2022-03-06T13:36:06Z</time>
      </trkpt>
      <trkpt lat="45.7142" lon="2.94785">
        <ele>1059.289162</ele>
        <time>2022-03-06T13:37:23Z</time>
      </trkpt>
      <trkpt lat="45.71444" lon="2.94803">
        <ele>1060.505221</ele>
        <time>2022-03-06T13:37:54Z</time>
      </trkpt>
      <trkpt lat="45.71553" lon="2.94842">
        <ele>1066.394975</ele>
        <time>2022-03-06T13:40:07Z</time>
      </trkpt>
      <trkpt lat="45.71618" lon="2.94857">
        <ele>1070.502016</ele>
        <time>2022-03-06T13:41:28Z</time>
      </trkpt>
      <trkpt lat="45.71781" lon="2.94942">
        <ele>1080.556098</ele>
        <time>2022-03-06T13:45:01Z</time>
      </trkpt>
      <trkpt lat="45.71916" lon="2.95057">
        <ele>1087.25059</ele>
        <time>2022-03-06T13:47:59Z</time>
      </trkpt>
      <trkpt lat="45.72023" lon="2.95117">
        <ele>1090.767078</ele>
        <time>2022-03-06T13:50:04Z</time>
      </trkpt>
      <trkpt lat="45.72067" lon="2.95148">
        <ele>1091.966088</ele>
        <time>2022-03-06T13:50:59Z</time>
      </trkpt>
      <trkpt lat="45.72115" lon="2.95165">
        <ele>1093.163858</ele>
        <time>2022-03-06T13:51:54Z</time>
      </trkpt>
      <trkpt lat="45.72134" lon="2.95172">
        <ele>1093.630417</ele>
        <time>2022-03-06T13:52:15Z</time>
      </trkpt>
      <trkpt lat="45.72191" lon="2.95215">
        <ele>1094.033834</ele>
        <time>2022-03-06T13:53:23Z</time>
      </trkpt>
      <trkpt lat="45.72218" lon="2.95211">
        <ele>1093.40329</ele>
        <time>2022-03-06T13:53:50Z</time>
      </trkpt>
      <trkpt lat="45.72218" lon="2.95217">
        <ele>1093.298066</ele>
        <time>2022-03-06T13:53:54Z</time>
      </trkpt>
      <trkpt lat="45.72228" lon="2.9524">
        <ele>1092.849081</ele>
        <time>2022-03-06T13:54:13Z</time>
      </trkpt>
      <trkpt lat="45.72249" lon="2.95258">
        <ele>1092.275284</ele>
        <time>2022-03-06T13:54:39Z</time>
      </trkpt>
      <trkpt lat="45.72317" lon="2.95338">
        <ele>1089.903436</ele>
        <time>2022-03-06T13:56:15Z</time>
      </trkpt>
      <trkpt lat="45.72342" lon="2.9536">
        <ele>1088.029415</ele>
        <time>2022-03-06T13:56:49Z</time>
      </trkpt>
      <trkpt lat="45.72449" lon="2.95509">
        <ele>1078.48832</ele>
        <time>2022-03-06T13:59:39Z</time>
      </trkpt>
      <trkpt lat="45.72596" lon="2.95642">
        <ele>1069.25431</ele>
        <time>2022-03-06T14:02:50Z</time>
      </trkpt>
      <trkpt lat="45.72614" lon="2.95642">
        <ele>1068.156575</ele>
        <time>2022-03-06T14:03:11Z</time>
      </trkpt>
      <trkpt lat="45.72702" lon="2.95647">
        <ele>1062.914594</ele>
        <time>2022-03-06T14:04:49Z</time>
      </trkpt>
      <trkpt lat="45.7272" lon="2.95656">
        <ele>1061.800753</ele>
        <time>2022-03-06T14:05:11Z</time>
      </trkpt>
      <trkpt lat="45.72817" lon="2.95796">
        <ele>1052.90008</ele>
        <time>2022-03-06T14:07:46Z</time>
      </trkpt>
      <trkpt lat="45.72854" lon="2.95869">
        <ele>1048.604779</ele>
        <time>2022-03-06T14:08:59Z</time>
      </trkpt>
      <trkpt lat="45.72903" lon="2.9593">
        <ele>1043.85987</ele>
        <time>2022-03-06T14:10:12Z</time>
      </trkpt>
      <trkpt lat="45.72968" lon="2.95992">
        <ele>1037.695567</ele>
        <time>2022-03-06T14:11:42Z</time>
      </trkpt>
      <trkpt lat="45.72986" lon="2.96022">
        <ele>1035.503546</ele>
        <time>2022-03-06T14:12:15Z</time>
      </trkpt>
      <trkpt lat="45.72998" lon="2.96057">
        <ele>1033.354024</ele>
        <time>2022-03-06T14:12:47Z</time>
      </trkpt>
      <trkpt lat="45.73046" lon="2.96123">
        <ele>1027.678478</ele>
        <time>2022-03-06T14:14:05Z</time>
      </trkpt>
      <trkpt lat="45.7307" lon="2.96143">
        <ele>1025.294668</ele>
        <time>2022-03-06T14:14:38Z</time>
      </trkpt>
      <trkpt lat="45.73134" lon="2.96164">
        <ele>1019.517864</ele>
        <time>2022-03-06T14:15:56Z</time>
      </trkpt>
      <trkpt lat="45.73311" lon="2.96282">
        <ele>1005.681295</ele>
        <time>2022-03-06T14:19:40Z</time>
      </trkpt>
      <trkpt lat="45.73368" lon="2.96298">
        <ele>1003.187233</ele>
        <time>2022-03-06T14:20:43Z</time>
      </trkpt>
      <trkpt lat="45.73386" lon="2.96315">
        <ele>1002.542901</ele>
        <time>2022-03-06T14:21:06Z</time>
      </trkpt>
      <trkpt lat="45.7342" lon="2.96321">
        <ele>1001.522136</ele>
        <time>2022-03-06T14:21:42Z</time>
      </trkpt>
      <trkpt lat="45.73554" lon="2.96387">
        <ele>997.7952</ele>
        <time>2022-03-06T14:24:10Z</time>
      </trkpt>
      <trkpt lat="45.73677" lon="2.96461">
        <ele>995.054817</ele>
        <time>2022-03-06T14:26:29Z</time>
      </trkpt>
      <trkpt lat="45.73722" lon="2.96498">
        <ele>993.750004</ele>
        <time>2022-03-06T14:27:23Z</time>
      </trkpt>
      <trkpt lat="45.73756" lon="2.96519">
        <ele>992.828148</ele>
        <time>2022-03-06T14:28:02Z</time>
      </trkpt>
      <trkpt lat="45.73798" lon="2.96557">
        <ele>991.578733</ele>
        <time>2022-03-06T14:28:54Z</time>
      </trkpt>
      <trkpt lat="45.73848" lon="2.96582">
        <ele>989.825625</ele>
        <time>2022-03-06T14:29:50Z</time>
      </trkpt>
      <trkpt lat="45.73892" lon="2.96596">
        <ele>987.755684</ele>
        <time>2022-03-06T14:30:38Z</time>
      </trkpt>
      <trkpt lat="45.73942" lon="2.96585">
        <ele>985.411688</ele>
        <time>2022-03-06T14:31:33Z</time>
      </trkpt>
      <trkpt lat="45.73949" lon="2.96587">
        <ele>985.038846</ele>
        <time>2022-03-06T14:31:42Z</time>
      </trkpt>
      <trkpt lat="45.73964" lon="2.96604">
        <ele>984.172199</ele>
        <time>2022-03-06T14:32:03Z</time>
      </trkpt>
      <trkpt lat="45.73975" lon="2.96611">
        <ele>983.6295</ele>
        <time>2022-03-06T14:32:16Z</time>
      </trkpt>
      <trkpt lat="45.74027" lon="2.96625">
        <ele>980.407946</ele>
        <time>2022-03-06T14:33:17Z</time>
      </trkpt>
      <trkpt lat="45.74071" lon="2.96622">
        <ele>977.234446</ele>
        <time>2022-03-06T14:34:07Z</time>
      </trkpt>
      <trkpt lat="45.74073" lon="2.96629">
        <ele>976.86703</ele>
        <time>2022-03-06T14:34:13Z</time>
      </trkpt>
      <trkpt lat="45.74082" lon="2.96646">
        <ele>975.782643</ele>
        <time>2022-03-06T14:34:30Z</time>
      </trkpt>
      <trkpt lat="45.7409" lon="2.96664">
        <ele>974.69821</ele>
        <time>2022-03-06T14:34:47Z</time>
      </trkpt>
      <trkpt lat="45.74098" lon="2.96678">
        <ele>973.756904</ele>
        <time>2022-03-06T14:35:02Z</time>
      </trkpt>
      <trkpt lat="45.74114" lon="2.96712">
        <ele>971.658899</ele>
        <time>2022-03-06T14:35:36Z</time>
      </trkpt>
      <trkpt lat="45.74122" lon="2.96732">
        <ele>970.493657</ele>
        <time>2022-03-06T14:35:54Z</time>
      </trkpt>
      <trkpt lat="45.74124" lon="2.96736">
        <ele>970.26271</ele>
        <time>2022-03-06T14:35:58Z</time>
      </trkpt>
      <trkpt lat="45.74127" lon="2.96744">
        <ele>969.802539</ele>
        <time>2022-03-06T14:36:05Z</time>
      </trkpt>
      <trkpt lat="45.74131" lon="2.96754">
        <ele>969.245248</ele>
        <time>2022-03-06T14:36:14Z</time>
      </trkpt>
      <trkpt lat="45.74139" lon="2.96772">
        <ele>968.510959</ele>
        <time>2022-03-06T14:36:32Z</time>
      </trkpt>
      <trkpt lat="45.74191" lon="2.968">
        <ele>965.866904</ele>
        <time>2022-03-06T14:37:34Z</time>
      </trkpt>
      <trkpt lat="45.7422" lon="2.96825">
        <ele>964.236274</ele>
        <time>2022-03-06T14:38:11Z</time>
      </trkpt>
      <trkpt lat="45.74305" lon="2.96899">
        <ele>960.112803</ele>
        <time>2022-03-06T14:39:56Z</time>
      </trkpt>
      <trkpt lat="45.7433" lon="2.96912">
        <ele>959.50652</ele>
        <time>2022-03-06T14:40:24Z</time>
      </trkpt>
      <trkpt lat="45.74336" lon="2.96914">
        <ele>959.37713</ele>
        <time>2022-03-06T14:40:30Z</time>
      </trkpt>
      <trkpt lat="45.74352" lon="2.96919">
        <ele>958.993311</ele>
        <time>2022-03-06T14:40:48Z</time>
      </trkpt>
      <trkpt lat="45.74497" lon="2.96983">
        <ele>955.381728</ele>
        <time>2022-03-06T14:43:26Z</time>
      </trkpt>
      <trkpt lat="45.74514" lon="2.9699">
        <ele>954.905454</ele>
        <time>2022-03-06T14:43:45Z</time>
      </trkpt>
      <trkpt lat="45.74605" lon="2.97024">
        <ele>952.361001</ele>
        <time>2022-03-06T14:45:25Z</time>
      </trkpt>
      <trkpt lat="45.74619" lon="2.97005">
        <ele>951.831889</ele>
        <time>2022-03-06T14:45:46Z</time>
      </trkpt>
      <trkpt lat="45.74791" lon="2.96915">
        <ele>948.080444</ele>
        <time>2022-03-06T14:48:57Z</time>
      </trkpt>
      <trkpt lat="45.74864" lon="2.96883">
        <ele>949.031714</ele>
        <time>2022-03-06T14:50:15Z</time>
      </trkpt>
      <trkpt lat="45.75178" lon="2.96797">
        <ele>955.671802</ele>
        <time>2022-03-06T14:56:03Z</time>
      </trkpt>
      <trkpt lat="45.75254" lon="2.96788">
        <ele>957.389481</ele>
        <time>2022-03-06T14:57:25Z</time>
      </trkpt>
      <trkpt lat="45.75281" lon="2.96794">
        <ele>958.026489</ele>
        <time>2022-03-06T14:57:55Z</time>
      </trkpt>
      <trkpt lat="45.75286" lon="2.96759">
        <ele>958.595094</ele>
        <time>2022-03-06T14:58:22Z</time>
      </trkpt>
      <trkpt lat="45.75279" lon="2.967">
        <ele>959.618338</ele>
        <time>2022-03-06T14:59:06Z</time>
      </trkpt>
      <trkpt lat="45.75284" lon="2.96688">
        <ele>959.879355</ele>
        <time>2022-03-06T14:59:17Z</time>
      </trkpt>
      <trkpt lat="45.75291" lon="2.96569">
        <ele>962.019262</ele>
        <time>2022-03-06T15:00:46Z</time>
      </trkpt>
      <trkpt lat="45.75275" lon="2.96519">
        <ele>963.02066</ele>
        <time>2022-03-06T15:01:29Z</time>
      </trkpt>
      <trkpt lat="45.75272" lon="2.96465">
        <ele>964.309678</ele>
        <time>2022-03-06T15:02:11Z</time>
      </trkpt>
      <trkpt lat="45.75264" lon="2.96419">
        <ele>965.852997</ele>
        <time>2022-03-06T15:02:50Z</time>
      </trkpt>
      <trkpt lat="45.75284" lon="2.96321">
        <ele>969.118104</ele>
        <time>2022-03-06T15:04:14Z</time>
      </trkpt>
      <trkpt lat="45.75293" lon="2.96244">
        <ele>971.613714</ele>
        <time>2022-03-06T15:05:18Z</time>
      </trkpt>
      <trkpt lat="45.75392" lon="2.9617">
        <ele>978.07245</ele>
        <time>2022-03-06T15:07:31Z</time>
      </trkpt>
      <trkpt lat="45.75403" lon="2.96153">
        <ele>979.034436</ele>
        <time>2022-03-06T15:07:51Z</time>
      </trkpt>
      <trkpt lat="45.7543" lon="2.96083">
        <ele>982.272049</ele>
        <time>2022-03-06T15:08:58Z</time>
      </trkpt>
      <trkpt lat="45.75443" lon="2.96024">
        <ele>985.852087</ele>
        <time>2022-03-06T15:09:51Z</time>
      </trkpt>
      <trkpt lat="45.75496" lon="2.95959">
        <ele>991.684237</ele>
        <time>2022-03-06T15:11:18Z</time>
      </trkpt>
      <trkpt lat="45.75583" lon="2.95902">
        <ele>1000.553038</ele>
        <time>2022-03-06T15:13:27Z</time>
      </trkpt>
      <trkpt lat="45.75611" lon="2.95872">
        <ele>1004.666648</ele>
        <time>2022-03-06T15:14:17Z</time>
      </trkpt>
      <trkpt lat="45.75625" lon="2.95845">
        <ele>1007.463204</ele>
        <time>2022-03-06T15:14:53Z</time>
      </trkpt>
      <trkpt lat="45.75661" lon="2.95798">
        <ele>1013.105013</ele>
        <time>2022-03-06T15:16:02Z</time>
      </trkpt>
      <trkpt lat="45.75669" lon="2.9577">
        <ele>1015.572397</ele>
        <time>2022-03-06T15:16:33Z</time>
      </trkpt>
      <trkpt lat="45.75669" lon="2.95739">
        <ele>1018.132781</ele>
        <time>2022-03-06T15:17:04Z</time>
      </trkpt>
      <trkpt lat="45.75658" lon="2.95685">
        <ele>1021.576045</ele>
        <time>2022-03-06T15:17:58Z</time>
      </trkpt>
      <trkpt lat="45.75692" lon="2.95717">
        <ele>1025.099187</ele>
        <time>2022-03-06T15:18:53Z</time>
      </trkpt>
      <trkpt lat="45.75779" lon="2.95777">
        <ele>1033.594579</ele>
        <time>2022-03-06T15:20:54Z</time>
      </trkpt>
      <trkpt lat="45.75881" lon="2.95859">
        <ele>1041.155213</ele>
        <time>2022-03-06T15:23:12Z</time>
      </trkpt>
      <trkpt lat="45.75914" lon="2.95879">
        <ele>1043.433063</ele>
        <time>2022-03-06T15:23:56Z</time>
      </trkpt>
      <trkpt lat="45.75947" lon="2.95883">
        <ele>1045.560706</ele>
        <time>2022-03-06T15:24:38Z</time>
      </trkpt>
      <trkpt lat="45.76006" lon="2.95876">
        <ele>1049.475809</ele>
        <time>2022-03-06T15:25:53Z</time>
      </trkpt>
      <trkpt lat="45.7603" lon="2.95812">
        <ele>1052.824223</ele>
        <time>2022-03-06T15:26:57Z</time>
      </trkpt>
      <trkpt lat="45.7606" lon="2.95766">
        <ele>1055.759968</ele>
        <time>2022-03-06T15:27:50Z</time>
      </trkpt>
      <trkpt lat="45.76117" lon="2.95754">
        <ele>1058.736513</ele>
        <time>2022-03-06T15:28:58Z</time>
      </trkpt>
      <trkpt lat="45.76164" lon="2.95732">
        <ele>1060.711691</ele>
        <time>2022-03-06T15:29:54Z</time>
      </trkpt>
      <trkpt lat="45.76196" lon="2.95738">
        <ele>1061.958139</ele>
        <time>2022-03-06T15:30:29Z</time>
      </trkpt>
      <trkpt lat="45.76225" lon="2.95743">
        <ele>1063.120974</ele>
        <time>2022-03-06T15:31:01Z</time>
      </trkpt>
      <trkpt lat="45.76259" lon="2.95723">
        <ele>1064.586195</ele>
        <time>2022-03-06T15:31:42Z</time>
      </trkpt>
      <trkpt lat="45.76289" lon="2.95706">
        <ele>1066.610878</ele>
        <time>2022-03-06T15:32:19Z</time>
      </trkpt>
      <trkpt lat="45.76318" lon="2.95665">
        <ele>1069.215886</ele>
        <time>2022-03-06T15:33:08Z</time>
      </trkpt>
      <trkpt lat="45.7632" lon="2.95665">
        <ele>1069.382504</ele>
        <time>2022-03-06T15:33:11Z</time>
      </trkpt>
      <trkpt lat="45.76336" lon="2.95666">
        <ele>1070.385392</ele>
        <time>2022-03-06T15:33:30Z</time>
      </trkpt>
      <trkpt lat="45.76344" lon="2.95648">
        <ele>1071.336173</ele>
        <time>2022-03-06T15:33:47Z</time>
      </trkpt>
      <trkpt lat="45.76366" lon="2.95632">
        <ele>1072.92713</ele>
        <time>2022-03-06T15:34:18Z</time>
      </trkpt>
      <trkpt lat="45.76385" lon="2.95607">
        <ele>1074.528285</ele>
        <time>2022-03-06T15:34:49Z</time>
      </trkpt>
      <trkpt lat="45.76393" lon="2.95553">
        <ele>1077.801124</ele>
        <time>2022-03-06T15:35:40Z</time>
      </trkpt>
      <trkpt lat="45.76421" lon="2.95544">
        <ele>1081.293482</ele>
        <time>2022-03-06T15:36:20Z</time>
      </trkpt>
      <trkpt lat="45.76437" lon="2.95538">
        <ele>1083.321814</ele>
        <time>2022-03-06T15:36:43Z</time>
      </trkpt>
      <trkpt lat="45.76439" lon="2.95537">
        <ele>1083.602731</ele>
        <time>2022-03-06T15:36:47Z</time>
      </trkpt>
      <trkpt lat="45.76442" lon="2.95544">
        <ele>1084.322138</ele>
        <time>2022-03-06T15:36:56Z</time>
      </trkpt>
      <trkpt lat="45.76447" lon="2.95557">
        <ele>1085.530917</ele>
        <time>2022-03-06T15:37:10Z</time>
      </trkpt>
      <trkpt lat="45.76486" lon="2.95592">
        <ele>1091.127841</ele>
        <time>2022-03-06T15:38:22Z</time>
      </trkpt>
      <trkpt lat="45.76494" lon="2.95607">
        <ele>1092.769894</ele>
        <time>2022-03-06T15:38:44Z</time>
      </trkpt>
      <trkpt lat="45.76499" lon="2.95707">
        <ele>1101.537422</ele>
        <time>2022-03-06T15:40:27Z</time>
      </trkpt>
      <trkpt lat="45.76514" lon="2.95764">
        <ele>1107.047377</ele>
        <time>2022-03-06T15:41:30Z</time>
      </trkpt>
      <trkpt lat="45.76533" lon="2.95788">
        <ele>1110.381582</ele>
        <time>2022-03-06T15:42:06Z</time>
      </trkpt>
      <trkpt lat="45.76587" lon="2.95809">
        <ele>1117.62697</ele>
        <time>2022-03-06T15:43:28Z</time>
      </trkpt>
      <trkpt lat="45.76619" lon="2.95854">
        <ele>1124.296136</ele>
        <time>2022-03-06T15:44:35Z</time>
      </trkpt>
      <trkpt lat="45.76627" lon="2.95851">
        <ele>1125.726042</ele>
        <time>2022-03-06T15:44:46Z</time>
      </trkpt>
      <trkpt lat="45.76645" lon="2.95796">
        <ele>1133.49689</ele>
        <time>2022-03-06T15:46:08Z</time>
      </trkpt>
      <trkpt lat="45.76644" lon="2.95755">
        <ele>1138.619423</ele>
        <time>2022-03-06T15:46:57Z</time>
      </trkpt>
      <trkpt lat="45.7665" lon="2.95745">
        <ele>1140.29834</ele>
        <time>2022-03-06T15:47:16Z</time>
      </trkpt>
      <trkpt lat="45.767" lon="2.95751">
        <ele>1149.495919</ele>
        <time>2022-03-06T15:48:46Z</time>
      </trkpt>
      <trkpt lat="45.76717" lon="2.95797">
        <ele>1156.526629</ele>
        <time>2022-03-06T15:50:02Z</time>
      </trkpt>
      <trkpt lat="45.76725" lon="2.95808">
        <ele>1158.993848</ele>
        <time>2022-03-06T15:50:32Z</time>
      </trkpt>
      <trkpt lat="45.76735" lon="2.9581">
        <ele>1161.17748</ele>
        <time>2022-03-06T15:50:56Z</time>
      </trkpt>
      <trkpt lat="45.76745" lon="2.9581">
        <ele>1163.396571</ele>
        <time>2022-03-06T15:51:11Z</time>
      </trkpt>
      <trkpt lat="45.76769" lon="2.9579">
        <ele>1169.604849</ele>
        <time>2022-03-06T15:52:21Z</time>
      </trkpt>
      <trkpt lat="45.76776" lon="2.95798">
        <ele>1171.486223</ele>
        <time>2022-03-06T15:52:35Z</time>
      </trkpt>
      <trkpt lat="45.7676" lon="2.95863">
        <ele>1182.103172</ele>
        <time>2022-03-06T15:54:21Z</time>
      </trkpt>
      <trkpt lat="45.76737" lon="2.95926">
        <ele>1193.144972</ele>
        <time>2022-03-06T15:56:05Z</time>
      </trkpt>
      <trkpt lat="45.76736" lon="2.95973">
        <ele>1198.510437</ele>
        <time>2022-03-06T15:57:00Z</time>
      </trkpt>
      <trkpt lat="45.76736" lon="2.95976">
        <ele>1198.848252</ele>
        <time>2022-03-06T15:57:06Z</time>
      </trkpt>
      <trkpt lat="45.76725" lon="2.96015">
        <ele>1203.418209</ele>
        <time>2022-03-06T15:57:52Z</time>
      </trkpt>
      <trkpt lat="45.76724" lon="2.96038">
        <ele>1205.901242</ele>
        <time>2022-03-06T15:58:17Z</time>
      </trkpt>
      <trkpt lat="45.7673" lon="2.96038">
        <ele>1206.755604</ele>
        <time>2022-03-06T15:58:26Z</time>
      </trkpt>
      <trkpt lat="45.76751" lon="2.96008">
        <ele>1211.42991</ele>
        <time>2022-03-06T15:59:06Z</time>
      </trkpt>
      <trkpt lat="45.76771" lon="2.95965">
        <ele>1217.064445</ele>
        <time>2022-03-06T16:00:01Z</time>
      </trkpt>
      <trkpt lat="45.76787" lon="2.95945">
        <ele>1220.332644</ele>
        <time>2022-03-06T16:00:29Z</time>
      </trkpt>
      <trkpt lat="45.7679" lon="2.95955">
        <ele>1221.482258</ele>
        <time>2022-03-06T16:00:44Z</time>
      </trkpt>
      <trkpt lat="45.76769" lon="2.9603">
        <ele>1235.253653</ele>
        <time>2022-03-06T16:02:41Z</time>
      </trkpt>
      <trkpt lat="45.76766" lon="2.96055">
        <ele>1239.611034</ele>
        <time>2022-03-06T16:03:22Z</time>
      </trkpt>
      <trkpt lat="45.76769" lon="2.9606">
        <ele>1240.717085</ele>
        <time>2022-03-06T16:03:33Z</time>
      </trkpt>
      <trkpt lat="45.76776" lon="2.96056">
        <ele>1242.43079</ele>
        <time>2022-03-06T16:03:48Z</time>
      </trkpt>
      <trkpt lat="45.7679" lon="2.96023">
        <ele>1249.102267</ele>
        <time>2022-03-06T16:04:51Z</time>
      </trkpt>
      <trkpt lat="45.76801" lon="2.96005">
        <ele>1253.35387</ele>
        <time>2022-03-06T16:05:34Z</time>
      </trkpt>
      <trkpt lat="45.76809" lon="2.95993">
        <ele>1256.063608</ele>
        <time>2022-03-06T16:05:54Z</time>
      </trkpt>
      <trkpt lat="45.76862" lon="2.95942">
        <ele>1271.985459</ele>
        <time>2022-03-06T16:08:41Z</time>
      </trkpt>
      <trkpt lat="45.76893" lon="2.95938">
        <ele>1279.994353</ele>
        <time>2022-03-06T16:09:59Z</time>
      </trkpt>
      <trkpt lat="45.76893" lon="2.95938">
        <ele>1280.122967</ele>
        <time>2022-03-06T16:10:04Z</time>
      </trkpt>
      <trkpt lat="45.76893" lon="2.95947">
        <ele>1281.741933</ele>
        <time>2022-03-06T16:10:22Z</time>
      </trkpt>
      <trkpt lat="45.76884" lon="2.95963">
        <ele>1285.473011</ele>
        <time>2022-03-06T16:10:52Z</time>
      </trkpt>
      <trkpt lat="45.76867" lon="2.95976">
        <ele>1290.353691</ele>
        <time>2022-03-06T16:11:48Z</time>
      </trkpt>
      <trkpt lat="45.76868" lon="2.95982">
        <ele>1291.413268</ele>
        <time>2022-03-06T16:11:55Z</time>
      </trkpt>
      <trkpt lat="45.76874" lon="2.95984">
        <ele>1292.964907</ele>
        <time>2022-03-06T16:12:04Z</time>
      </trkpt>
      <trkpt lat="45.76898" lon="2.95975">
        <ele>1299.412661</ele>
        <time>2022-03-06T16:13:14Z</time>
      </trkpt>
      <trkpt lat="45.76941" lon="2.9594">
        <ele>1311.975044</ele>
        <time>2022-03-06T16:14:41Z</time>
      </trkpt>
      <trkpt lat="45.76954" lon="2.95936">
        <ele>1313.090045</ele>
        <time>2022-03-06T16:15:00Z</time>
      </trkpt>
      <trkpt lat="45.76954" lon="2.95945">
        <ele>1313.652773</ele>
        <time>2022-03-06T16:15:17Z</time>
      </trkpt>
      <trkpt lat="45.76922" lon="2.96006">
        <ele>1318.073769</ele>
        <time>2022-03-06T16:16:23Z</time>
      </trkpt>
      <trkpt lat="45.76952" lon="2.95987">
        <ele>1320.776615</ele>
        <time>2022-03-06T16:17:06Z</time>
      </trkpt>
      <trkpt lat="45.7695" lon="2.96001">
        <ele>1321.590852</ele>
        <time>2022-03-06T16:17:17Z</time>
      </trkpt>
      <trkpt lat="45.7694" lon="2.96017">
        <ele>1322.904389</ele>
        <time>2022-03-06T16:17:34Z</time>
      </trkpt>
      <trkpt lat="45.76941" lon="2.96028">
        <ele>1323.557315</ele>
        <time>2022-03-06T16:17:43Z</time>
      </trkpt>
      <trkpt lat="45.76958" lon="2.96018">
        <ele>1325.088196</ele>
        <time>2022-03-06T16:18:03Z</time>
      </trkpt>
      <trkpt lat="45.76974" lon="2.95999">
        <ele>1326.809942</ele>
        <time>2022-03-06T16:18:26Z</time>
      </trkpt>
      <trkpt lat="45.7698" lon="2.96007">
        <ele>1327.681264</ele>
        <time>2022-03-06T16:18:35Z</time>
      </trkpt>
      <trkpt lat="45.7697" lon="2.96042">
        <ele>1330.985982</ele>
        <time>2022-03-06T16:19:03Z</time>
      </trkpt>
      <trkpt lat="45.76969" lon="2.96045">
        <ele>1331.318061</ele>
        <time>2022-03-06T16:19:06Z</time>
      </trkpt>
      <trkpt lat="45.76928" lon="2.96095">
        <ele>1338.254455</ele>
        <time>2022-03-06T16:20:11Z</time>
      </trkpt>
      <trkpt lat="45.76929" lon="2.96114">
        <ele>1339.949352</ele>
        <time>2022-03-06T16:20:34Z</time>
      </trkpt>
      <trkpt lat="45.76938" lon="2.9612">
        <ele>1341.228451</ele>
        <time>2022-03-06T16:20:52Z</time>
      </trkpt>
      <trkpt lat="45.76969" lon="2.96105">
        <ele>1345.35862</ele>
        <time>2022-03-06T16:22:03Z</time>
      </trkpt>
      <trkpt lat="45.76997" lon="2.96083">
        <ele>1349.40006</ele>
        <time>2022-03-06T16:23:12Z</time>
      </trkpt>
      <trkpt lat="45.77007" lon="2.96084">
        <ele>1350.853509</ele>
        <time>2022-03-06T16:23:30Z</time>
      </trkpt>
      <trkpt lat="45.77023" lon="2.96125">
        <ele>1356.068597</ele>
        <time>2022-03-06T16:24:29Z</time>
      </trkpt>
      <trkpt lat="45.77062" lon="2.96181">
        <ele>1364.829959</ele>
        <time>2022-03-06T16:26:24Z</time>
      </trkpt>
      <trkpt lat="45.7708" lon="2.96202">
        <ele>1368.527513</ele>
        <time>2022-03-06T16:27:00Z</time>
      </trkpt>
      <trkpt lat="45.77084" lon="2.96207">
        <ele>1369.349826</ele>
        <time>2022-03-06T16:27:11Z</time>
      </trkpt>
      <trkpt lat="45.77084" lon="2.96226">
        <ele>1371.516886</ele>
        <time>2022-03-06T16:27:30Z</time>
      </trkpt>
      <trkpt lat="45.77082" lon="2.96243">
        <ele>1373.388173</ele>
        <time>2022-03-06T16:27:44Z</time>
      </trkpt>
      <trkpt lat="45.7708" lon="2.96248">
        <ele>1374.056428</ele>
        <time>2022-03-06T16:27:53Z</time>
      </trkpt>
      <trkpt lat="45.77074" lon="2.96297">
        <ele>1378.335773</ele>
        <time>2022-03-06T16:28:39Z</time>
      </trkpt>
      <trkpt lat="45.77086" lon="2.96321">
        <ele>1376.911875</ele>
        <time>2022-03-06T16:29:09Z</time>
      </trkpt>
      <trkpt lat="45.77087" lon="2.96324">
        <ele>1376.770461</ele>
        <time>2022-03-06T16:29:12Z</time>
      </trkpt>
      <trkpt lat="45.7709" lon="2.96329">
        <ele>1376.454037</ele>
        <time>2022-03-06T16:29:17Z</time>
      </trkpt>
      <trkpt lat="45.77098" lon="2.96345">
        <ele>1375.535335</ele>
        <time>2022-03-06T16:29:33Z</time>
      </trkpt>
      <trkpt lat="45.7709" lon="2.96329">
        <ele>1374.616633</ele>
        <time>2022-03-06T16:29:49Z</time>
      </trkpt>
      <trkpt lat="45.77087" lon="2.96324">
        <ele>1374.300209</ele>
        <time>2022-03-06T16:29:55Z</time>
      </trkpt>
      <trkpt lat="45.77067" lon="2.9643">
        <ele>1369.101336</ele>
        <time>2022-03-06T16:31:34Z</time>
      </trkpt>
      <trkpt lat="45.77067" lon="2.96504">
        <ele>1365.185869</ele>
        <time>2022-03-06T16:32:38Z</time>
      </trkpt>
      <trkpt lat="45.77078" lon="2.9656">
        <ele>1361.190812</ele>
        <time>2022-03-06T16:33:30Z</time>
      </trkpt>
      <trkpt lat="45.77098" lon="2.96604">
        <ele>1357.602868</ele>
        <time>2022-03-06T16:34:14Z</time>
      </trkpt>
      <trkpt lat="45.77114" lon="2.96626">
        <ele>1355.410307</ele>
        <time>2022-03-06T16:34:40Z</time>
      </trkpt>
      <trkpt lat="45.7716" lon="2.96668">
        <ele>1349.978175</ele>
        <time>2022-03-06T16:35:43Z</time>
      </trkpt>
      <trkpt lat="45.7723" lon="2.96689">
        <ele>1343.283663</ele>
        <time>2022-03-06T16:37:02Z</time>
      </trkpt>
      <trkpt lat="45.77255" lon="2.96683">
        <ele>1340.963998</ele>
        <time>2022-03-06T16:37:31Z</time>
      </trkpt>
      <trkpt lat="45.77294" lon="2.96645">
        <ele>1336.581243</ele>
        <time>2022-03-06T16:38:28Z</time>
      </trkpt>
      <trkpt lat="45.77311" lon="2.96635">
        <ele>1334.85811</ele>
        <time>2022-03-06T16:38:51Z</time>
      </trkpt>
      <trkpt lat="45.7736" lon="2.96626">
        <ele>1328.933763</ele>
        <time>2022-03-06T16:39:52Z</time>
      </trkpt>
      <trkpt lat="45.7736" lon="2.96645">
        <ele>1326.762273</ele>
        <time>2022-03-06T16:40:10Z</time>
      </trkpt>
      <trkpt lat="45.774" lon="2.96615">
        <ele>1319.593039</ele>
        <time>2022-03-06T16:41:07Z</time>
      </trkpt>
      <trkpt lat="45.77457" lon="2.9659">
        <ele>1310.084807</ele>
        <time>2022-03-06T16:42:26Z</time>
      </trkpt>
      <trkpt lat="45.77542" lon="2.96448">
        <ele>1286.172673</ele>
        <time>2022-03-06T16:45:28Z</time>
      </trkpt>
      <trkpt lat="45.77568" lon="2.96498">
        <ele>1277.647131</ele>
        <time>2022-03-06T16:46:31Z</time>
      </trkpt>
      <trkpt lat="45.7762" lon="2.96435">
        <ele>1264.188551</ele>
        <time>2022-03-06T16:48:13Z</time>
      </trkpt>
      <trkpt lat="45.77643" lon="2.96477">
        <ele>1256.662792</ele>
        <time>2022-03-06T16:49:08Z</time>
      </trkpt>
      <trkpt lat="45.77744" lon="2.96436">
        <ele>1235.236179</ele>
        <time>2022-03-06T16:51:48Z</time>
      </trkpt>
      <trkpt lat="45.77816" lon="2.96425">
        <ele>1223.854218</ele>
        <time>2022-03-06T16:53:23Z</time>
      </trkpt>
      <trkpt lat="45.77823" lon="2.96425">
        <ele>1222.865885</ele>
        <time>2022-03-06T16:53:32Z</time>
      </trkpt>
      <trkpt lat="45.77892" lon="2.96415">
        <ele>1213.154354</ele>
        <time>2022-03-06T16:54:59Z</time>
      </trkpt>
      <trkpt lat="45.7792" lon="2.96406">
        <ele>1209.076168</ele>
        <time>2022-03-06T16:55:35Z</time>
      </trkpt>
      <trkpt lat="45.7796" lon="2.96423">
        <ele>1203.393809</ele>
        <time>2022-03-06T16:56:26Z</time>
      </trkpt>
      <trkpt lat="45.77979" lon="2.96439">
        <ele>1200.445451</ele>
        <time>2022-03-06T16:56:52Z</time>
      </trkpt>
      <trkpt lat="45.77994" lon="2.96467">
        <ele>1197.270426</ele>
        <time>2022-03-06T16:57:22Z</time>
      </trkpt>
      <trkpt lat="45.78002" lon="2.96471">
        <ele>1196.119674</ele>
        <time>2022-03-06T16:57:33Z</time>
      </trkpt>
      <trkpt lat="45.78036" lon="2.9649">
        <ele>1191.349062</ele>
        <time>2022-03-06T16:58:18Z</time>
      </trkpt>
      <trkpt lat="45.78045" lon="2.96506">
        <ele>1189.497495</ele>
        <time>2022-03-06T16:58:36Z</time>
      </trkpt>
      <trkpt lat="45.78073" lon="2.96505">
        <ele>1185.895833</ele>
        <time>2022-03-06T16:59:10Z</time>
      </trkpt>
      <trkpt lat="45.78117" lon="2.96522">
        <ele>1178.861261</ele>
        <time>2022-03-06T17:00:12Z</time>
      </trkpt>
      <trkpt lat="45.7813" lon="2.96517">
        <ele>1176.536177</ele>
        <time>2022-03-06T17:00:29Z</time>
      </trkpt>
      <trkpt lat="45.78149" lon="2.96527">
        <ele>1173.063471</ele>
        <time>2022-03-06T17:00:58Z</time>
      </trkpt>
      <trkpt lat="45.78198" lon="2.96572">
        <ele>1162.964178</ele>
        <time>2022-03-06T17:02:16Z</time>
      </trkpt>
      <trkpt lat="45.78307" lon="2.96552">
        <ele>1145.906075</ele>
        <time>2022-03-06T17:04:47Z</time>
      </trkpt>
      <trkpt lat="45.7834" lon="2.96552">
        <ele>1141.495002</ele>
        <time>2022-03-06T17:05:29Z</time>
      </trkpt>
      <trkpt lat="45.78351" lon="2.96564">
        <ele>1139.702913</ele>
        <time>2022-03-06T17:05:46Z</time>
      </trkpt>
      <trkpt lat="45.78391" lon="2.96588">
        <ele>1134.018913</ele>
        <time>2022-03-06T17:06:40Z</time>
      </trkpt>
      <trkpt lat="45.78391" lon="2.96533">
        <ele>1128.943576</ele>
        <time>2022-03-06T17:07:26Z</time>
      </trkpt>
      <trkpt lat="45.78372" lon="2.96418">
        <ele>1122.620277</ele>
        <time>2022-03-06T17:09:00Z</time>
      </trkpt>
      <trkpt lat="45.78379" lon="2.96333">
        <ele>1118.281153</ele>
        <time>2022-03-06T17:10:07Z</time>
      </trkpt>
      <trkpt lat="45.78391" lon="2.96284">
        <ele>1115.629029</ele>
        <time>2022-03-06T17:10:48Z</time>
      </trkpt>
      <trkpt lat="45.78408" lon="2.96246">
        <ele>1112.958834</ele>
        <time>2022-03-06T17:11:25Z</time>
      </trkpt>
      <trkpt lat="45.78447" lon="2.96209">
        <ele>1108.765752</ele>
        <time>2022-03-06T17:12:20Z</time>
      </trkpt>
      <trkpt lat="45.78472" lon="2.96206">
        <ele>1106.501602</ele>
        <time>2022-03-06T17:12:49Z</time>
      </trkpt>
      <trkpt lat="45.7849" lon="2.96193">
        <ele>1104.613954</ele>
        <time>2022-03-06T17:13:14Z</time>
      </trkpt>
      <trkpt lat="45.78504" lon="2.96178">
        <ele>1103.019166</ele>
        <time>2022-03-06T17:13:34Z</time>
      </trkpt>
      <trkpt lat="45.7851" lon="2.96158">
        <ele>1101.663132</ele>
        <time>2022-03-06T17:13:53Z</time>
      </trkpt>
      <trkpt lat="45.7854" lon="2.96116">
        <ele>1097.864387</ele>
        <time>2022-03-06T17:14:43Z</time>
      </trkpt>
      <trkpt lat="45.78608" lon="2.96035">
        <ele>1089.509817</ele>
        <time>2022-03-06T17:16:29Z</time>
      </trkpt>
      <trkpt lat="45.78622" lon="2.95988">
        <ele>1086.159839</ele>
        <time>2022-03-06T17:17:12Z</time>
      </trkpt>
      <trkpt lat="45.78599" lon="2.95923">
        <ele>1081.558787</ele>
        <time>2022-03-06T17:18:11Z</time>
      </trkpt>
      <trkpt lat="45.78587" lon="2.95852">
        <ele>1078.449839</ele>
        <time>2022-03-06T17:19:09Z</time>
      </trkpt>
      <trkpt lat="45.78582" lon="2.95782">
        <ele>1075.472154</ele>
        <time>2022-03-06T17:20:05Z</time>
      </trkpt>
      <trkpt lat="45.78583" lon="2.95643">
        <ele>1070.416631</ele>
        <time>2022-03-06T17:21:51Z</time>
      </trkpt>
      <trkpt lat="45.78583" lon="2.95629">
        <ele>1070.202401</ele>
        <time>2022-03-06T17:22:02Z</time>
      </trkpt>
      <trkpt lat="45.78601" lon="2.95509">
        <ele>1068.359607</ele>
        <time>2022-03-06T17:23:30Z</time>
      </trkpt>
      <trkpt lat="45.78613" lon="2.95319">
        <ele>1065.906492</ele>
        <time>2022-03-06T17:25:47Z</time>
      </trkpt>
      <trkpt lat="45.78634" lon="2.95138">
        <ele>1063.442079</ele>
        <time>2022-03-06T17:27:59Z</time>
      </trkpt>
      <trkpt lat="45.78639" lon="2.95016">
        <ele>1059.95463</ele>
        <time>2022-03-06T17:29:31Z</time>
      </trkpt>
      <trkpt lat="45.78656" lon="2.94951">
        <ele>1057.988037</ele>
        <time>2022-03-06T17:30:24Z</time>
      </trkpt>
      <trkpt lat="45.78624" lon="2.94818">
        <ele>1053.29796</ele>
        <time>2022-03-06T17:32:13Z</time>
      </trkpt>
      <trkpt lat="45.78604" lon="2.94653">
        <ele>1047.569526</ele>
        <time>2022-03-06T17:34:22Z</time>
      </trkpt>
      <trkpt lat="45.78615" lon="2.94609">
        <ele>1046.753357</ele>
        <time>2022-03-06T17:34:58Z</time>
      </trkpt>
      <trkpt lat="45.78632" lon="2.94542">
        <ele>1045.538087</ele>
        <time>2022-03-06T17:35:50Z</time>
      </trkpt>
      <trkpt lat="45.78713" lon="2.94442">
        <ele>1043.412828</ele>
        <time>2022-03-06T17:37:41Z</time>
      </trkpt>
      <trkpt lat="45.78782" lon="2.94451">
        <ele>1043.884101</ele>
        <time>2022-03-06T17:38:51Z</time>
      </trkpt>
      <trkpt lat="45.78881" lon="2.94403">
        <ele>1044.457038</ele>
        <time>2022-03-06T17:40:42Z</time>
      </trkpt>
      <trkpt lat="45.78903" lon="2.94404">
        <ele>1044.348275</ele>
        <time>2022-03-06T17:41:05Z</time>
      </trkpt>
      <trkpt lat="45.79018" lon="2.94411">
        <ele>1043.76734</ele>
        <time>2022-03-06T17:43:01Z</time>
      </trkpt>
      <trkpt lat="45.79125" lon="2.94436">
        <ele>1041.297843</ele>
        <time>2022-03-06T17:44:56Z</time>
      </trkpt>
      <trkpt lat="45.7916" lon="2.94453">
        <ele>1040.179652</ele>
        <time>2022-03-06T17:45:36Z</time>
      </trkpt>
      <trkpt lat="45.79214" lon="2.94504">
        <ele>1038.244236</ele>
        <time>2022-03-06T17:46:45Z</time>
      </trkpt>
      <trkpt lat="45.79259" lon="2.94549">
        <ele>1037.001304</ele>
        <time>2022-03-06T17:47:43Z</time>
      </trkpt>
      <trkpt lat="45.79266" lon="2.94573">
        <ele>1036.59387</ele>
        <time>2022-03-06T17:48:02Z</time>
      </trkpt>
      <trkpt lat="45.79285" lon="2.94605">
        <ele>1035.924215</ele>
        <time>2022-03-06T17:48:34Z</time>
      </trkpt>
      <trkpt lat="45.7932" lon="2.94674">
        <ele>1034.592766</ele>
        <time>2022-03-06T17:49:35Z</time>
      </trkpt>
    </trkseg>
  </trk>
  <trk>
    <name><![CDATA[J6]]></name>
    <extensions>
      <line xmlns="http://www.topografix.com/GPX/gpx_style/0/2">
        <color>ff2600</color>
        <width>4</width>
      </line>
    </extensions>
    <trkseg>
      <trkpt lat="45.7932" lon="2.94674">
        <ele>1034.592766</ele>
        <time>2022-03-06T17:49:35Z</time>
      </trkpt>
      <trkpt lat="45.79511" lon="2.94927">
        <ele>1028.323238</ele>
        <time>2022-03-06T17:54:05Z</time>
      </trkpt>
      <trkpt lat="45.79511" lon="2.94942">
        <ele>1027.870065</ele>
        <time>2022-03-06T17:54:17Z</time>
      </trkpt>
      <trkpt lat="45.7952" lon="2.94968">
        <ele>1027.010005</ele>
        <time>2022-03-06T17:54:38Z</time>
      </trkpt>
      <trkpt lat="45.7955" lon="2.95009">
        <ele>1025.237781</ele>
        <time>2022-03-06T17:55:25Z</time>
      </trkpt>
      <trkpt lat="45.79563" lon="2.95037">
        <ele>1024.230483</ele>
        <time>2022-03-06T17:55:51Z</time>
      </trkpt>
      <trkpt lat="45.79597" lon="2.95075">
        <ele>1022.227468</ele>
        <time>2022-03-06T17:56:39Z</time>
      </trkpt>
      <trkpt lat="45.79608" lon="2.9506">
        <ele>1021.493777</ele>
        <time>2022-03-06T17:56:57Z</time>
      </trkpt>
      <trkpt lat="45.79628" lon="2.95049">
        <ele>1020.441598</ele>
        <time>2022-03-06T17:57:20Z</time>
      </trkpt>
      <trkpt lat="45.79733" lon="2.95027">
        <ele>1015.243757</ele>
        <time>2022-03-06T17:59:17Z</time>
      </trkpt>
      <trkpt lat="45.79807" lon="2.95021">
        <ele>1012.945307</ele>
        <time>2022-03-06T18:00:35Z</time>
      </trkpt>
      <trkpt lat="45.79819" lon="2.95023">
        <ele>1012.622319</ele>
        <time>2022-03-06T18:00:48Z</time>
      </trkpt>
      <trkpt lat="45.79846" lon="2.9499">
        <ele>1011.73436</ele>
        <time>2022-03-06T18:01:24Z</time>
      </trkpt>
      <trkpt lat="45.79902" lon="2.9499">
        <ele>1010.307359</ele>
        <time>2022-03-06T18:02:24Z</time>
      </trkpt>
      <trkpt lat="45.79924" lon="2.95032">
        <ele>1008.958456</ele>
        <time>2022-03-06T18:03:03Z</time>
      </trkpt>
      <trkpt lat="45.79976" lon="2.95079">
        <ele>1005.994705</ele>
        <time>2022-03-06T18:04:06Z</time>
      </trkpt>
      <trkpt lat="45.80071" lon="2.95088">
        <ele>1001.334602</ele>
        <time>2022-03-06T18:05:54Z</time>
      </trkpt>
      <trkpt lat="45.80095" lon="2.95129">
        <ele>998.387185</ele>
        <time>2022-03-06T18:06:37Z</time>
      </trkpt>
      <trkpt lat="45.80252" lon="2.95168">
        <ele>984.737715</ele>
        <time>2022-03-06T18:09:45Z</time>
      </trkpt>
      <trkpt lat="45.80278" lon="2.95163">
        <ele>982.702108</ele>
        <time>2022-03-06T18:10:16Z</time>
      </trkpt>
      <trkpt lat="45.80342" lon="2.95113">
        <ele>976.96516</ele>
        <time>2022-03-06T18:11:40Z</time>
      </trkpt>
      <trkpt lat="45.80353" lon="2.95083">
        <ele>975.076795</ele>
        <time>2022-03-06T18:12:08Z</time>
      </trkpt>
      <trkpt lat="45.80361" lon="2.95072">
        <ele>974.196227</ele>
        <time>2022-03-06T18:12:21Z</time>
      </trkpt>
      <trkpt lat="45.80432" lon="2.95038">
        <ele>969.463392</ele>
        <time>2022-03-06T18:13:45Z</time>
      </trkpt>
      <trkpt lat="45.80476" lon="2.95023">
        <ele>967.292922</ele>
        <time>2022-03-06T18:14:35Z</time>
      </trkpt>
      <trkpt lat="45.80512" lon="2.94996">
        <ele>965.35025</ele>
        <time>2022-03-06T18:15:20Z</time>
      </trkpt>
      <trkpt lat="45.80524" lon="2.94995">
        <ele>964.761493</ele>
        <time>2022-03-06T18:15:33Z</time>
      </trkpt>
      <trkpt lat="45.8057" lon="2.9501">
        <ele>962.683395</ele>
        <time>2022-03-06T18:16:24Z</time>
      </trkpt>
      <trkpt lat="45.80623" lon="2.95017">
        <ele>962.526438</ele>
        <time>2022-03-06T18:17:20Z</time>
      </trkpt>
      <trkpt lat="45.80678" lon="2.9504">
        <ele>962.360073</ele>
        <time>2022-03-06T18:18:18Z</time>
      </trkpt>
      <trkpt lat="45.8092" lon="2.95104">
        <ele>965.406512</ele>
        <time>2022-03-06T18:22:40Z</time>
      </trkpt>
      <trkpt lat="45.80956" lon="2.95107">
        <ele>965.714419</ele>
        <time>2022-03-06T18:23:19Z</time>
      </trkpt>
      <trkpt lat="45.81013" lon="2.95097">
        <ele>966.19037</ele>
        <time>2022-03-06T18:24:18Z</time>
      </trkpt>
      <trkpt lat="45.81075" lon="2.95082">
        <ele>966.72294</ele>
        <time>2022-03-06T18:25:22Z</time>
      </trkpt>
      <trkpt lat="45.81091" lon="2.95078">
        <ele>966.854897</ele>
        <time>2022-03-06T18:25:38Z</time>
      </trkpt>
      <trkpt lat="45.81166" lon="2.95078">
        <ele>966.779458</ele>
        <time>2022-03-06T18:26:54Z</time>
      </trkpt>
      <trkpt lat="45.81206" lon="2.95093">
        <ele>966.703708</ele>
        <time>2022-03-06T18:27:36Z</time>
      </trkpt>
      <trkpt lat="45.8129" lon="2.95179">
        <ele>965.700787</ele>
        <time>2022-03-06T18:29:21Z</time>
      </trkpt>
      <trkpt lat="45.81296" lon="2.95198">
        <ele>965.311098</ele>
        <time>2022-03-06T18:29:36Z</time>
      </trkpt>
      <trkpt lat="45.81313" lon="2.95194">
        <ele>964.86152</ele>
        <time>2022-03-06T18:29:54Z</time>
      </trkpt>
      <trkpt lat="45.81315" lon="2.95201">
        <ele>964.72079</ele>
        <time>2022-03-06T18:30:00Z</time>
      </trkpt>
      <trkpt lat="45.81321" lon="2.95221">
        <ele>964.323394</ele>
        <time>2022-03-06T18:30:15Z</time>
      </trkpt>
      <trkpt lat="45.81333" lon="2.95242">
        <ele>963.824429</ele>
        <time>2022-03-06T18:30:36Z</time>
      </trkpt>
      <trkpt lat="45.81349" lon="2.95253">
        <ele>963.358345</ele>
        <time>2022-03-06T18:30:55Z</time>
      </trkpt>
      <trkpt lat="45.81362" lon="2.95247">
        <ele>963.002943</ele>
        <time>2022-03-06T18:31:11Z</time>
      </trkpt>
      <trkpt lat="45.81388" lon="2.9526">
        <ele>962.27861</ele>
        <time>2022-03-06T18:31:40Z</time>
      </trkpt>
      <trkpt lat="45.81395" lon="2.9527">
        <ele>962.031429</ele>
        <time>2022-03-06T18:31:51Z</time>
      </trkpt>
      <trkpt lat="45.81401" lon="2.9529">
        <ele>961.723435</ele>
        <time>2022-03-06T18:32:06Z</time>
      </trkpt>
      <trkpt lat="45.81401" lon="2.9531">
        <ele>961.482307</ele>
        <time>2022-03-06T18:32:22Z</time>
      </trkpt>
      <trkpt lat="45.81439" lon="2.9532">
        <ele>960.81392</ele>
        <time>2022-03-06T18:33:03Z</time>
      </trkpt>
      <trkpt lat="45.81453" lon="2.95328">
        <ele>960.557818</ele>
        <time>2022-03-06T18:33:19Z</time>
      </trkpt>
      <trkpt lat="45.81465" lon="2.95347">
        <ele>960.253811</ele>
        <time>2022-03-06T18:33:37Z</time>
      </trkpt>
      <trkpt lat="45.81461" lon="2.95355">
        <ele>960.133304</ele>
        <time>2022-03-06T18:33:45Z</time>
      </trkpt>
      <trkpt lat="45.81409" lon="2.95541">
        <ele>959.67289</ele>
        <time>2022-03-06T18:36:05Z</time>
      </trkpt>
      <trkpt lat="45.81414" lon="2.95682">
        <ele>961.038555</ele>
        <time>2022-03-06T18:37:52Z</time>
      </trkpt>
      <trkpt lat="45.81429" lon="2.95819">
        <ele>961.704647</ele>
        <time>2022-03-06T18:39:34Z</time>
      </trkpt>
      <trkpt lat="45.81474" lon="2.95848">
        <ele>961.955826</ele>
        <time>2022-03-06T18:40:24Z</time>
      </trkpt>
      <trkpt lat="45.81764" lon="2.96031">
        <ele>961.301064</ele>
        <time>2022-03-06T18:45:47Z</time>
      </trkpt>
      <trkpt lat="45.81923" lon="2.96161">
        <ele>963.787531</ele>
        <time>2022-03-06T18:49:02Z</time>
      </trkpt>
      <trkpt lat="45.82" lon="2.96227">
        <ele>965.761832</ele>
        <time>2022-03-06T18:50:39Z</time>
      </trkpt>
      <trkpt lat="45.82094" lon="2.96263">
        <ele>969.003084</ele>
        <time>2022-03-06T18:52:27Z</time>
      </trkpt>
      <trkpt lat="45.8224" lon="2.96291">
        <ele>974.190706</ele>
        <time>2022-03-06T18:55:14Z</time>
      </trkpt>
      <trkpt lat="45.82275" lon="2.96305">
        <ele>975.548157</ele>
        <time>2022-03-06T18:55:57Z</time>
      </trkpt>
      <trkpt lat="45.82296" lon="2.9632">
        <ele>976.423813</ele>
        <time>2022-03-06T18:56:24Z</time>
      </trkpt>
      <trkpt lat="45.82457" lon="2.96317">
        <ele>981.519556</ele>
        <time>2022-03-06T18:59:20Z</time>
      </trkpt>
      <trkpt lat="45.82473" lon="2.96296">
        <ele>982.140308</ele>
        <time>2022-03-06T18:59:44Z</time>
      </trkpt>
      <trkpt lat="45.82473" lon="2.96279">
        <ele>982.467432</ele>
        <time>2022-03-06T18:59:57Z</time>
      </trkpt>
      <trkpt lat="45.82474" lon="2.96275">
        <ele>982.556896</ele>
        <time>2022-03-06T19:00:00Z</time>
      </trkpt>
      <trkpt lat="45.82476" lon="2.96221">
        <ele>983.615299</ele>
        <time>2022-03-06T19:00:40Z</time>
      </trkpt>
      <trkpt lat="45.82471" lon="2.96176">
        <ele>986.303846</ele>
        <time>2022-03-06T19:01:16Z</time>
      </trkpt>
      <trkpt lat="45.82444" lon="2.96137">
        <ele>989.805596</ele>
        <time>2022-03-06T19:02:01Z</time>
      </trkpt>
      <trkpt lat="45.82405" lon="2.96121">
        <ele>993.499239</ele>
        <time>2022-03-06T19:02:51Z</time>
      </trkpt>
      <trkpt lat="45.82392" lon="2.96109">
        <ele>994.919548</ele>
        <time>2022-03-06T19:03:13Z</time>
      </trkpt>
      <trkpt lat="45.82379" lon="2.96084">
        <ele>996.973472</ele>
        <time>2022-03-06T19:03:48Z</time>
      </trkpt>
      <trkpt lat="45.82382" lon="2.96066">
        <ele>998.165383</ele>
        <time>2022-03-06T19:04:09Z</time>
      </trkpt>
      <trkpt lat="45.82383" lon="2.96056">
        <ele>998.81859</ele>
        <time>2022-03-06T19:04:21Z</time>
      </trkpt>
      <trkpt lat="45.82455" lon="2.95997">
        <ele>1014.10787</ele>
        <time>2022-03-06T19:06:48Z</time>
      </trkpt>
      <trkpt lat="45.82477" lon="2.95945">
        <ele>1022.981502</ele>
        <time>2022-03-06T19:08:14Z</time>
      </trkpt>
      <trkpt lat="45.82489" lon="2.95895">
        <ele>1030.547246</ele>
        <time>2022-03-06T19:09:34Z</time>
      </trkpt>
      <trkpt lat="45.8252" lon="2.958">
        <ele>1046.277445</ele>
        <time>2022-03-06T19:12:24Z</time>
      </trkpt>
      <trkpt lat="45.82517" lon="2.95709">
        <ele>1060.191199</ele>
        <time>2022-03-06T19:14:41Z</time>
      </trkpt>
      <trkpt lat="45.82487" lon="2.95588">
        <ele>1078.24359</ele>
        <time>2022-03-06T19:17:38Z</time>
      </trkpt>
      <trkpt lat="45.82486" lon="2.95555">
        <ele>1080.422655</ele>
        <time>2022-03-06T19:18:19Z</time>
      </trkpt>
      <trkpt lat="45.8247" lon="2.95456">
        <ele>1087.204654</ele>
        <time>2022-03-06T19:19:56Z</time>
      </trkpt>
      <trkpt lat="45.82467" lon="2.95398">
        <ele>1091.044941</ele>
        <time>2022-03-06T19:20:44Z</time>
      </trkpt>
      <trkpt lat="45.8241" lon="2.95311">
        <ele>1093.64196</ele>
        <time>2022-03-06T19:22:08Z</time>
      </trkpt>
      <trkpt lat="45.8239" lon="2.9525">
        <ele>1093.154606</ele>
        <time>2022-03-06T19:22:57Z</time>
      </trkpt>
      <trkpt lat="45.82383" lon="2.95204">
        <ele>1092.81328</ele>
        <time>2022-03-06T19:23:33Z</time>
      </trkpt>
      <trkpt lat="45.82385" lon="2.95149">
        <ele>1092.411805</ele>
        <time>2022-03-06T19:24:13Z</time>
      </trkpt>
      <trkpt lat="45.82374" lon="2.95086">
        <ele>1092.465098</ele>
        <time>2022-03-06T19:24:58Z</time>
      </trkpt>
      <trkpt lat="45.82376" lon="2.95053">
        <ele>1092.580355</ele>
        <time>2022-03-06T19:25:21Z</time>
      </trkpt>
      <trkpt lat="45.82389" lon="2.95032">
        <ele>1092.677528</ele>
        <time>2022-03-06T19:25:41Z</time>
      </trkpt>
      <trkpt lat="45.82404" lon="2.95024">
        <ele>1092.760632</ele>
        <time>2022-03-06T19:25:58Z</time>
      </trkpt>
      <trkpt lat="45.82416" lon="2.95066">
        <ele>1092.918718</ele>
        <time>2022-03-06T19:26:31Z</time>
      </trkpt>
      <trkpt lat="45.82419" lon="2.95076">
        <ele>1092.958751</ele>
        <time>2022-03-06T19:26:41Z</time>
      </trkpt>
      <trkpt lat="45.82434" lon="2.95093">
        <ele>1093.054991</ele>
        <time>2022-03-06T19:27:00Z</time>
      </trkpt>
      <trkpt lat="45.82457" lon="2.95095">
        <ele>1093.172698</ele>
        <time>2022-03-06T19:27:25Z</time>
      </trkpt>
      <trkpt lat="45.82471" lon="2.95104">
        <ele>1092.836308</ele>
        <time>2022-03-06T19:27:40Z</time>
      </trkpt>
      <trkpt lat="45.82475" lon="2.95124">
        <ele>1092.285142</ele>
        <time>2022-03-06T19:27:55Z</time>
      </trkpt>
      <trkpt lat="45.82489" lon="2.95135">
        <ele>1091.679535</ele>
        <time>2022-03-06T19:28:11Z</time>
      </trkpt>
      <trkpt lat="45.82517" lon="2.95137">
        <ele>1090.638556</ele>
        <time>2022-03-06T19:28:39Z</time>
      </trkpt>
      <trkpt lat="45.82549" lon="2.95157">
        <ele>1089.312518</ele>
        <time>2022-03-06T19:29:15Z</time>
      </trkpt>
      <trkpt lat="45.82569" lon="2.95157">
        <ele>1088.531771</ele>
        <time>2022-03-06T19:29:38Z</time>
      </trkpt>
      <trkpt lat="45.82655" lon="2.95217">
        <ele>1082.257339</ele>
        <time>2022-03-06T19:31:30Z</time>
      </trkpt>
      <trkpt lat="45.82714" lon="2.95188">
        <ele>1075.562687</ele>
        <time>2022-03-06T19:32:44Z</time>
      </trkpt>
      <trkpt lat="45.82715" lon="2.95188">
        <ele>1075.491681</ele>
        <time>2022-03-06T19:32:47Z</time>
      </trkpt>
      <trkpt lat="45.82784" lon="2.95138">
        <ele>1067.201166</ele>
        <time>2022-03-06T19:34:22Z</time>
      </trkpt>
      <trkpt lat="45.82844" lon="2.9512">
        <ele>1060.735853</ele>
        <time>2022-03-06T19:35:39Z</time>
      </trkpt>
      <trkpt lat="45.82872" lon="2.95122">
        <ele>1057.698587</ele>
        <time>2022-03-06T19:36:15Z</time>
      </trkpt>
      <trkpt lat="45.82934" lon="2.95088">
        <ele>1050.682093</ele>
        <time>2022-03-06T19:37:34Z</time>
      </trkpt>
      <trkpt lat="45.82955" lon="2.95071">
        <ele>1048.179425</ele>
        <time>2022-03-06T19:38:01Z</time>
      </trkpt>
      <trkpt lat="45.8297" lon="2.95043">
        <ele>1047.323297</ele>
        <time>2022-03-06T19:38:30Z</time>
      </trkpt>
      <trkpt lat="45.82999" lon="2.9509">
        <ele>1046.006206</ele>
        <time>2022-03-06T19:39:18Z</time>
      </trkpt>
      <trkpt lat="45.8302" lon="2.9515">
        <ele>1044.587358</ele>
        <time>2022-03-06T19:40:08Z</time>
      </trkpt>
      <trkpt lat="45.83056" lon="2.95297">
        <ele>1042.235877</ele>
        <time>2022-03-06T19:42:00Z</time>
      </trkpt>
      <trkpt lat="45.8309" lon="2.95386">
        <ele>1041.663189</ele>
        <time>2022-03-06T19:43:12Z</time>
      </trkpt>
      <trkpt lat="45.83103" lon="2.9542">
        <ele>1041.448085</ele>
        <time>2022-03-06T19:43:40Z</time>
      </trkpt>
      <trkpt lat="45.83111" lon="2.95467">
        <ele>1041.177025</ele>
        <time>2022-03-06T19:44:15Z</time>
      </trkpt>
      <trkpt lat="45.83113" lon="2.95523">
        <ele>1040.469151</ele>
        <time>2022-03-06T19:44:57Z</time>
      </trkpt>
      <trkpt lat="45.83133" lon="2.9549">
        <ele>1039.851367</ele>
        <time>2022-03-06T19:45:30Z</time>
      </trkpt>
      <trkpt lat="45.83172" lon="2.95431">
        <ele>1038.726639</ele>
        <time>2022-03-06T19:46:31Z</time>
      </trkpt>
      <trkpt lat="45.83414" lon="2.95398">
        <ele>1038.660441</ele>
        <time>2022-03-06T19:50:38Z</time>
      </trkpt>
      <trkpt lat="45.83429" lon="2.95429">
        <ele>1039.116549</ele>
        <time>2022-03-06T19:51:07Z</time>
      </trkpt>
      <trkpt lat="45.8349" lon="2.95457">
        <ele>1040.200265</ele>
        <time>2022-03-06T19:52:16Z</time>
      </trkpt>
      <trkpt lat="45.83507" lon="2.95466">
        <ele>1040.509226</ele>
        <time>2022-03-06T19:52:36Z</time>
      </trkpt>
      <trkpt lat="45.83659" lon="2.95554">
        <ele>1041.558563</ele>
        <time>2022-03-06T19:55:27Z</time>
      </trkpt>
      <trkpt lat="45.83684" lon="2.956">
        <ele>1041.519401</ele>
        <time>2022-03-06T19:56:08Z</time>
      </trkpt>
      <trkpt lat="45.83662" lon="2.95637">
        <ele>1041.48661</ele>
        <time>2022-03-06T19:56:43Z</time>
      </trkpt>
      <trkpt lat="45.83554" lon="2.95874">
        <ele>1036.251965</ele>
        <time>2022-03-06T20:00:13Z</time>
      </trkpt>
      <trkpt lat="45.83629" lon="2.95918">
        <ele>1036.165462</ele>
        <time>2022-03-06T20:01:36Z</time>
      </trkpt>
      <trkpt lat="45.83638" lon="2.95918">
        <ele>1036.155758</ele>
        <time>2022-03-06T20:01:46Z</time>
      </trkpt>
      <trkpt lat="45.83668" lon="2.95955">
        <ele>1036.113011</ele>
        <time>2022-03-06T20:02:27Z</time>
      </trkpt>
      <trkpt lat="45.83684" lon="2.95981">
        <ele>1036.087356</ele>
        <time>2022-03-06T20:02:53Z</time>
      </trkpt>
      <trkpt lat="45.83716" lon="2.96014">
        <ele>1037.802215</ele>
        <time>2022-03-06T20:03:37Z</time>
      </trkpt>
      <trkpt lat="45.83731" lon="2.96056">
        <ele>1040.450415</ele>
        <time>2022-03-06T20:04:15Z</time>
      </trkpt>
      <trkpt lat="45.83735" lon="2.96156">
        <ele>1046.144539</ele>
        <time>2022-03-06T20:05:44Z</time>
      </trkpt>
      <trkpt lat="45.83743" lon="2.962">
        <ele>1048.719385</ele>
        <time>2022-03-06T20:06:28Z</time>
      </trkpt>
      <trkpt lat="45.8377" lon="2.9622">
        <ele>1051.632393</ele>
        <time>2022-03-06T20:07:14Z</time>
      </trkpt>
      <trkpt lat="45.8385" lon="2.96232">
        <ele>1063.673946</ele>
        <time>2022-03-06T20:09:22Z</time>
      </trkpt>
      <trkpt lat="45.83939" lon="2.96205">
        <ele>1077.410919</ele>
        <time>2022-03-06T20:11:58Z</time>
      </trkpt>
      <trkpt lat="45.8407" lon="2.9625">
        <ele>1098.770843</ele>
        <time>2022-03-06T20:15:57Z</time>
      </trkpt>
      <trkpt lat="45.84132" lon="2.96323">
        <ele>1109.803993</ele>
        <time>2022-03-06T20:18:01Z</time>
      </trkpt>
      <trkpt lat="45.84194" lon="2.96366">
        <ele>1117.150705</ele>
        <time>2022-03-06T20:19:39Z</time>
      </trkpt>
      <trkpt lat="45.84294" lon="2.96491">
        <ele>1127.745637</ele>
        <time>2022-03-06T20:22:28Z</time>
      </trkpt>
      <trkpt lat="45.84353" lon="2.96515">
        <ele>1130.306152</ele>
        <time>2022-03-06T20:23:37Z</time>
      </trkpt>
      <trkpt lat="45.84391" lon="2.96507">
        <ele>1131.905922</ele>
        <time>2022-03-06T20:24:18Z</time>
      </trkpt>
      <trkpt lat="45.84389" lon="2.96461">
        <ele>1132.981519</ele>
        <time>2022-03-06T20:24:52Z</time>
      </trkpt>
      <trkpt lat="45.84439" lon="2.96437">
        <ele>1133.176289</ele>
        <time>2022-03-06T20:25:44Z</time>
      </trkpt>
      <trkpt lat="45.84484" lon="2.96516">
        <ele>1133.444989</ele>
        <time>2022-03-06T20:26:56Z</time>
      </trkpt>
      <trkpt lat="45.84526" lon="2.96522">
        <ele>1133.601294</ele>
        <time>2022-03-06T20:27:37Z</time>
      </trkpt>
      <trkpt lat="45.84549" lon="2.96568">
        <ele>1133.882322</ele>
        <time>2022-03-06T20:28:18Z</time>
      </trkpt>
      <trkpt lat="45.84582" lon="2.96584">
        <ele>1134.168288</ele>
        <time>2022-03-06T20:28:55Z</time>
      </trkpt>
      <trkpt lat="45.8461" lon="2.96645">
        <ele>1134.579147</ele>
        <time>2022-03-06T20:29:47Z</time>
      </trkpt>
      <trkpt lat="45.84659" lon="2.96665">
        <ele>1134.996818</ele>
        <time>2022-03-06T20:30:41Z</time>
      </trkpt>
      <trkpt lat="45.84705" lon="2.96814">
        <ele>1134.363624</ele>
        <time>2022-03-06T20:32:36Z</time>
      </trkpt>
      <trkpt lat="45.84792" lon="2.96886">
        <ele>1132.283813</ele>
        <time>2022-03-06T20:34:21Z</time>
      </trkpt>
      <trkpt lat="45.84834" lon="2.96889">
        <ele>1129.313155</ele>
        <time>2022-03-06T20:35:08Z</time>
      </trkpt>
      <trkpt lat="45.84868" lon="2.96859">
        <ele>1126.528759</ele>
        <time>2022-03-06T20:35:54Z</time>
      </trkpt>
      <trkpt lat="45.84898" lon="2.968">
        <ele>1122.998764</ele>
        <time>2022-03-06T20:36:54Z</time>
      </trkpt>
      <trkpt lat="45.84911" lon="2.96756">
        <ele>1120.141168</ele>
        <time>2022-03-06T20:37:34Z</time>
      </trkpt>
      <trkpt lat="45.8502" lon="2.96694">
        <ele>1104.867055</ele>
        <time>2022-03-06T20:39:56Z</time>
      </trkpt>
      <trkpt lat="45.85103" lon="2.96587">
        <ele>1086.45198</ele>
        <time>2022-03-06T20:42:28Z</time>
      </trkpt>
      <trkpt lat="45.85164" lon="2.96404">
        <ele>1059.230131</ele>
        <time>2022-03-06T20:45:57Z</time>
      </trkpt>
      <trkpt lat="45.85217" lon="2.96476">
        <ele>1047.182584</ele>
        <time>2022-03-06T20:47:48Z</time>
      </trkpt>
      <trkpt lat="45.85265" lon="2.96604">
        <ele>1031.696015</ele>
        <time>2022-03-06T20:49:54Z</time>
      </trkpt>
      <trkpt lat="45.85294" lon="2.9666">
        <ele>1028.010467</ele>
        <time>2022-03-06T20:50:50Z</time>
      </trkpt>
      <trkpt lat="45.85241" lon="2.9683">
        <ele>1018.356834</ele>
        <time>2022-03-06T20:53:18Z</time>
      </trkpt>
      <trkpt lat="45.85248" lon="2.9691">
        <ele>1015.036744</ele>
        <time>2022-03-06T20:54:19Z</time>
      </trkpt>
      <trkpt lat="45.85243" lon="2.97025">
        <ele>1010.227602</ele>
        <time>2022-03-06T20:55:48Z</time>
      </trkpt>
      <trkpt lat="45.85191" lon="2.97181">
        <ele>997.82997</ele>
        <time>2022-03-06T20:58:08Z</time>
      </trkpt>
      <trkpt lat="45.85086" lon="2.9734">
        <ele>975.872923</ele>
        <time>2022-03-06T21:01:26Z</time>
      </trkpt>
      <trkpt lat="45.85094" lon="2.97354">
        <ele>973.582852</ele>
        <time>2022-03-06T21:01:47Z</time>
      </trkpt>
      <trkpt lat="45.85129" lon="2.97381">
        <ele>966.323043</ele>
        <time>2022-03-06T21:02:45Z</time>
      </trkpt>
      <trkpt lat="45.8522" lon="2.9754">
        <ele>943.597134</ele>
        <time>2022-03-06T21:06:04Z</time>
      </trkpt>
      <trkpt lat="45.85251" lon="2.97598">
        <ele>936.471034</ele>
        <time>2022-03-06T21:07:08Z</time>
      </trkpt>
      <trkpt lat="45.85346" lon="2.9773">
        <ele>924.060687</ele>
        <time>2022-03-06T21:09:41Z</time>
      </trkpt>
      <trkpt lat="45.85383" lon="2.97806">
        <ele>919.847514</ele>
        <time>2022-03-06T21:10:52Z</time>
      </trkpt>
      <trkpt lat="45.85432" lon="2.97814">
        <ele>916.527486</ele>
        <time>2022-03-06T21:11:46Z</time>
      </trkpt>
      <trkpt lat="45.85463" lon="2.97832">
        <ele>914.088041</ele>
        <time>2022-03-06T21:12:24Z</time>
      </trkpt>
      <trkpt lat="45.85549" lon="2.97889">
        <ele>907.272141</ele>
        <time>2022-03-06T21:14:14Z</time>
      </trkpt>
      <trkpt lat="45.85636" lon="2.97972">
        <ele>903.019202</ele>
        <time>2022-03-06T21:16:17Z</time>
      </trkpt>
      <trkpt lat="45.85667" lon="2.98056">
        <ele>901.37871</ele>
        <time>2022-03-06T21:17:25Z</time>
      </trkpt>
      <trkpt lat="45.85701" lon="2.98063">
        <ele>900.518537</ele>
        <time>2022-03-06T21:18:03Z</time>
      </trkpt>
      <trkpt lat="45.85721" lon="2.98029">
        <ele>901.987451</ele>
        <time>2022-03-06T21:18:40Z</time>
      </trkpt>
      <trkpt lat="45.85736" lon="2.98017">
        <ele>903.407204</ele>
        <time>2022-03-06T21:19:01Z</time>
      </trkpt>
      <trkpt lat="45.85795" lon="2.98031">
        <ele>908.395984</ele>
        <time>2022-03-06T21:20:18Z</time>
      </trkpt>
      <trkpt lat="45.85835" lon="2.98055">
        <ele>911.954919</ele>
        <time>2022-03-06T21:21:15Z</time>
      </trkpt>
      <trkpt lat="45.85872" lon="2.981">
        <ele>916.023113</ele>
        <time>2022-03-06T21:22:23Z</time>
      </trkpt>
      <trkpt lat="45.85873" lon="2.98114">
        <ele>916.858977</ele>
        <time>2022-03-06T21:22:37Z</time>
      </trkpt>
      <trkpt lat="45.85856" lon="2.9816">
        <ele>919.952055</ele>
        <time>2022-03-06T21:23:25Z</time>
      </trkpt>
      <trkpt lat="45.85811" lon="2.98224">
        <ele>925.383561</ele>
        <time>2022-03-06T21:24:46Z</time>
      </trkpt>
      <trkpt lat="45.85799" lon="2.98279">
        <ele>928.829064</ele>
        <time>2022-03-06T21:25:37Z</time>
      </trkpt>
      <trkpt lat="45.85809" lon="2.98337">
        <ele>931.83146</ele>
        <time>2022-03-06T21:26:28Z</time>
      </trkpt>
      <trkpt lat="45.85861" lon="2.9841">
        <ele>936.162284</ele>
        <time>2022-03-06T21:27:58Z</time>
      </trkpt>
      <trkpt lat="45.85861" lon="2.98426">
        <ele>936.840435</ele>
        <time>2022-03-06T21:28:12Z</time>
      </trkpt>
      <trkpt lat="45.85872" lon="2.98478">
        <ele>939.067542</ele>
        <time>2022-03-06T21:28:56Z</time>
      </trkpt>
      <trkpt lat="45.859" lon="2.9856">
        <ele>941.682139</ele>
        <time>2022-03-06T21:30:11Z</time>
      </trkpt>
      <trkpt lat="45.85908" lon="2.98617">
        <ele>942.294159</ele>
        <time>2022-03-06T21:30:54Z</time>
      </trkpt>
      <trkpt lat="45.85906" lon="2.98705">
        <ele>943.226525</ele>
        <time>2022-03-06T21:31:56Z</time>
      </trkpt>
      <trkpt lat="45.85924" lon="2.98723">
        <ele>943.552218</ele>
        <time>2022-03-06T21:32:18Z</time>
      </trkpt>
      <trkpt lat="45.85931" lon="2.98725">
        <ele>943.663752</ele>
        <time>2022-03-06T21:32:25Z</time>
      </trkpt>
      <trkpt lat="45.85956" lon="2.98735">
        <ele>943.973738</ele>
        <time>2022-03-06T21:32:52Z</time>
      </trkpt>
      <trkpt lat="45.85999" lon="2.98707">
        <ele>943.483387</ele>
        <time>2022-03-06T21:33:39Z</time>
      </trkpt>
      <trkpt lat="45.86019" lon="2.98664">
        <ele>943.110774</ele>
        <time>2022-03-06T21:34:16Z</time>
      </trkpt>
      <trkpt lat="45.8601" lon="2.98577">
        <ele>942.47971</ele>
        <time>2022-03-06T21:35:18Z</time>
      </trkpt>
      <trkpt lat="45.86017" lon="2.98562">
        <ele>942.346202</ele>
        <time>2022-03-06T21:35:32Z</time>
      </trkpt>
      <trkpt lat="45.86048" lon="2.98544">
        <ele>941.311241</ele>
        <time>2022-03-06T21:36:07Z</time>
      </trkpt>
      <trkpt lat="45.86101" lon="2.9855">
        <ele>937.995395</ele>
        <time>2022-03-06T21:37:03Z</time>
      </trkpt>
      <trkpt lat="45.86141" lon="2.98569">
        <ele>935.394505</ele>
        <time>2022-03-06T21:37:50Z</time>
      </trkpt>
      <trkpt lat="45.86162" lon="2.98582">
        <ele>934.019895</ele>
        <time>2022-03-06T21:38:16Z</time>
      </trkpt>
      <trkpt lat="45.86184" lon="2.98607">
        <ele>932.260789</ele>
        <time>2022-03-06T21:38:50Z</time>
      </trkpt>
      <trkpt lat="45.86195" lon="2.98627">
        <ele>931.150648</ele>
        <time>2022-03-06T21:39:11Z</time>
      </trkpt>
      <trkpt lat="45.86228" lon="2.98649">
        <ele>925.514335</ele>
        <time>2022-03-06T21:39:55Z</time>
      </trkpt>
      <trkpt lat="45.86247" lon="2.98655">
        <ele>922.238268</ele>
        <time>2022-03-06T21:40:20Z</time>
      </trkpt>
      <trkpt lat="45.86274" lon="2.98664">
        <ele>917.724787</ele>
        <time>2022-03-06T21:40:58Z</time>
      </trkpt>
      <trkpt lat="45.86339" lon="2.98671">
        <ele>907.081468</ele>
        <time>2022-03-06T21:42:26Z</time>
      </trkpt>
      <trkpt lat="45.86351" lon="2.98668">
        <ele>905.239129</ele>
        <time>2022-03-06T21:42:41Z</time>
      </trkpt>
      <trkpt lat="45.8638" lon="2.98644">
        <ele>899.450115</ele>
        <time>2022-03-06T21:43:33Z</time>
      </trkpt>
      <trkpt lat="45.86411" lon="2.98642">
        <ele>894.004359</ele>
        <time>2022-03-06T21:44:21Z</time>
      </trkpt>
      <trkpt lat="45.8645" lon="2.98623">
        <ele>886.769876</ele>
        <time>2022-03-06T21:45:17Z</time>
      </trkpt>
      <trkpt lat="45.86604" lon="2.98665">
        <ele>861.352446</ele>
        <time>2022-03-06T21:48:42Z</time>
      </trkpt>
      <trkpt lat="45.86621" lon="2.98662">
        <ele>858.961703</ele>
        <time>2022-03-06T21:49:04Z</time>
      </trkpt>
      <trkpt lat="45.86672" lon="2.98578">
        <ele>848.267649</ele>
        <time>2022-03-06T21:50:42Z</time>
      </trkpt>
      <trkpt lat="45.86734" lon="2.98504">
        <ele>839.296694</ele>
        <time>2022-03-06T21:52:19Z</time>
      </trkpt>
      <trkpt lat="45.86747" lon="2.98482">
        <ele>837.276086</ele>
        <time>2022-03-06T21:52:43Z</time>
      </trkpt>
      <trkpt lat="45.86763" lon="2.9843">
        <ele>833.260827</ele>
        <time>2022-03-06T21:53:32Z</time>
      </trkpt>
      <trkpt lat="45.868" lon="2.98361">
        <ele>827.087297</ele>
        <time>2022-03-06T21:54:43Z</time>
      </trkpt>
      <trkpt lat="45.86824" lon="2.98339">
        <ele>825.579466</ele>
        <time>2022-03-06T21:55:16Z</time>
      </trkpt>
      <trkpt lat="45.86858" lon="2.98316">
        <ele>823.741637</ele>
        <time>2022-03-06T21:55:58Z</time>
      </trkpt>
      <trkpt lat="45.86868" lon="2.98313">
        <ele>823.21975</ele>
        <time>2022-03-06T21:56:10Z</time>
      </trkpt>
      <trkpt lat="45.86932" lon="2.9825">
        <ele>819.434348</ele>
        <time>2022-03-06T21:57:34Z</time>
      </trkpt>
      <trkpt lat="45.87114" lon="2.9818">
        <ele>815.241692</ele>
        <time>2022-03-06T22:00:48Z</time>
      </trkpt>
      <trkpt lat="45.87126" lon="2.98163">
        <ele>814.946077</ele>
        <time>2022-03-06T22:01:05Z</time>
      </trkpt>
      <trkpt lat="45.87127" lon="2.98158">
        <ele>814.868112</ele>
        <time>2022-03-06T22:01:10Z</time>
      </trkpt>
      <trkpt lat="45.87131" lon="2.98145">
        <ele>814.554982</ele>
        <time>2022-03-06T22:01:19Z</time>
      </trkpt>
      <trkpt lat="45.87128" lon="2.981">
        <ele>813.507169</ele>
        <time>2022-03-06T22:01:52Z</time>
      </trkpt>
      <trkpt lat="45.87153" lon="2.98114">
        <ele>812.62258</ele>
        <time>2022-03-06T22:02:21Z</time>
      </trkpt>
      <trkpt lat="45.872" lon="2.982">
        <ele>810.126958</ele>
        <time>2022-03-06T22:03:42Z</time>
      </trkpt>
      <trkpt lat="45.87225" lon="2.98319">
        <ele>806.382856</ele>
        <time>2022-03-06T22:05:17Z</time>
      </trkpt>
      <trkpt lat="45.87223" lon="2.98406">
        <ele>803.368317</ele>
        <time>2022-03-06T22:06:24Z</time>
      </trkpt>
      <trkpt lat="45.87254" lon="2.98449">
        <ele>801.216999</ele>
        <time>2022-03-06T22:07:12Z</time>
      </trkpt>
      <trkpt lat="45.87246" lon="2.98512">
        <ele>799.164955</ele>
        <time>2022-03-06T22:08:02Z</time>
      </trkpt>
      <trkpt lat="45.8729" lon="2.98567">
        <ele>796.804831</ele>
        <time>2022-03-06T22:09:05Z</time>
      </trkpt>
      <trkpt lat="45.87269" lon="2.98633">
        <ele>794.769409</ele>
        <time>2022-03-06T22:10:00Z</time>
      </trkpt>
      <trkpt lat="45.87265" lon="2.98707">
        <ele>792.708111</ele>
        <time>2022-03-06T22:10:56Z</time>
      </trkpt>
      <trkpt lat="45.87268" lon="2.98763">
        <ele>791.812313</ele>
        <time>2022-03-06T22:11:38Z</time>
      </trkpt>
      <trkpt lat="45.8726" lon="2.98937">
        <ele>789.043296</ele>
        <time>2022-03-06T22:13:44Z</time>
      </trkpt>
      <trkpt lat="45.87269" lon="2.99001">
        <ele>788.188559</ele>
        <time>2022-03-06T22:14:30Z</time>
      </trkpt>
      <trkpt lat="45.87265" lon="2.99037">
        <ele>787.781899</ele>
        <time>2022-03-06T22:14:57Z</time>
      </trkpt>
      <trkpt lat="45.8723" lon="2.99007">
        <ele>787.143573</ele>
        <time>2022-03-06T22:15:38Z</time>
      </trkpt>
      <trkpt lat="45.87229" lon="2.99006">
        <ele>787.117855</ele>
        <time>2022-03-06T22:15:40Z</time>
      </trkpt>
      <trkpt lat="45.87222" lon="2.99007">
        <ele>787.004019</ele>
        <time>2022-03-06T22:15:48Z</time>
      </trkpt>
      <trkpt lat="45.87152" lon="2.9907">
        <ele>785.592464</ele>
        <time>2022-03-06T22:17:14Z</time>
      </trkpt>
      <trkpt lat="45.87121" lon="2.99121">
        <ele>783.556123</ele>
        <time>2022-03-06T22:18:04Z</time>
      </trkpt>
      <trkpt lat="45.87112" lon="2.9916">
        <ele>782.320484</ele>
        <time>2022-03-06T22:18:35Z</time>
      </trkpt>
      <trkpt lat="45.87113" lon="2.99178">
        <ele>781.770554</ele>
        <time>2022-03-06T22:18:49Z</time>
      </trkpt>
      <trkpt lat="45.87131" lon="2.99226">
        <ele>780.160212</ele>
        <time>2022-03-06T22:19:30Z</time>
      </trkpt>
      <trkpt lat="45.87152" lon="2.99254">
        <ele>778.899502</ele>
        <time>2022-03-06T22:20:02Z</time>
      </trkpt>
      <trkpt lat="45.87157" lon="2.99283">
        <ele>778.011123</ele>
        <time>2022-03-06T22:20:25Z</time>
      </trkpt>
      <trkpt lat="45.87166" lon="2.99326">
        <ele>775.704648</ele>
        <time>2022-03-06T22:21:00Z</time>
      </trkpt>
      <trkpt lat="45.87164" lon="2.99342">
        <ele>774.847906</ele>
        <time>2022-03-06T22:21:13Z</time>
      </trkpt>
      <trkpt lat="45.87148" lon="2.99369">
        <ele>773.035933</ele>
        <time>2022-03-06T22:21:41Z</time>
      </trkpt>
      <trkpt lat="45.87118" lon="2.994">
        <ele>770.24149</ele>
        <time>2022-03-06T22:22:25Z</time>
      </trkpt>
      <trkpt lat="45.87072" lon="2.99421">
        <ele>766.657362</ele>
        <time>2022-03-06T22:23:21Z</time>
      </trkpt>
      <trkpt lat="45.87084" lon="2.99432">
        <ele>765.585146</ele>
        <time>2022-03-06T22:23:37Z</time>
      </trkpt>
      <trkpt lat="45.87088" lon="2.99444">
        <ele>764.92158</ele>
        <time>2022-03-06T22:23:48Z</time>
      </trkpt>
      <trkpt lat="45.87084" lon="2.99522">
        <ele>760.241237</ele>
        <time>2022-03-06T22:24:51Z</time>
      </trkpt>
      <trkpt lat="45.8708" lon="2.9956">
        <ele>757.891984</ele>
        <time>2022-03-06T22:25:23Z</time>
      </trkpt>
      <trkpt lat="45.87083" lon="2.99641">
        <ele>752.984854</ele>
        <time>2022-03-06T22:26:29Z</time>
      </trkpt>
      <trkpt lat="45.87079" lon="2.99817">
        <ele>742.647301</ele>
        <time>2022-03-06T22:28:54Z</time>
      </trkpt>
      <trkpt lat="45.87078" lon="2.99846">
        <ele>740.997093</ele>
        <time>2022-03-06T22:29:17Z</time>
      </trkpt>
      <trkpt lat="45.87088" lon="3.00056">
        <ele>729.716362</ele>
        <time>2022-03-06T22:32:06Z</time>
      </trkpt>
      <trkpt lat="45.87082" lon="3.00125">
        <ele>726.288651</ele>
        <time>2022-03-06T22:33:02Z</time>
      </trkpt>
      <trkpt lat="45.87086" lon="3.00331">
        <ele>716.71176</ele>
        <time>2022-03-06T22:35:43Z</time>
      </trkpt>
      <trkpt lat="45.87097" lon="3.00519">
        <ele>708.0874</ele>
        <time>2022-03-06T22:38:12Z</time>
      </trkpt>
      <trkpt lat="45.87092" lon="3.00554">
        <ele>706.315852</ele>
        <time>2022-03-06T22:38:40Z</time>
      </trkpt>
      <trkpt lat="45.87081" lon="3.0058">
        <ele>704.826477</ele>
        <time>2022-03-06T22:39:04Z</time>
      </trkpt>
      <trkpt lat="45.87057" lon="3.006">
        <ele>702.873244</ele>
        <time>2022-03-06T22:39:36Z</time>
      </trkpt>
      <trkpt lat="45.87043" lon="3.00621">
        <ele>701.434527</ele>
        <time>2022-03-06T22:40:00Z</time>
      </trkpt>
      <trkpt lat="45.87046" lon="3.00732">
        <ele>695.925679</ele>
        <time>2022-03-06T22:41:28Z</time>
      </trkpt>
      <trkpt lat="45.87057" lon="3.0076">
        <ele>694.220402</ele>
        <time>2022-03-06T22:41:54Z</time>
      </trkpt>
      <trkpt lat="45.87089" lon="3.00767">
        <ele>691.784043</ele>
        <time>2022-03-06T22:42:30Z</time>
      </trkpt>
      <trkpt lat="45.87107" lon="3.00769">
        <ele>690.42025</ele>
        <time>2022-03-06T22:42:51Z</time>
      </trkpt>
      <trkpt lat="45.87121" lon="3.0079">
        <ele>688.866551</ele>
        <time>2022-03-06T22:43:15Z</time>
      </trkpt>
      <trkpt lat="45.87137" lon="3.00874">
        <ele>684.319674</ele>
        <time>2022-03-06T22:44:25Z</time>
      </trkpt>
      <trkpt lat="45.87159" lon="3.01074">
        <ele>674.01247</ele>
        <time>2022-03-06T22:47:08Z</time>
      </trkpt>
      <trkpt lat="45.87171" lon="3.01124">
        <ele>671.304263</ele>
        <time>2022-03-06T22:47:50Z</time>
      </trkpt>
      <trkpt lat="45.87198" lon="3.01186">
        <ele>668.428994</ele>
        <time>2022-03-06T22:48:47Z</time>
      </trkpt>
      <trkpt lat="45.87208" lon="3.01238">
        <ele>666.412483</ele>
        <time>2022-03-06T22:49:29Z</time>
      </trkpt>
      <trkpt lat="45.87212" lon="3.01321">
        <ele>663.343779</ele>
        <time>2022-03-06T22:50:32Z</time>
      </trkpt>
      <trkpt lat="45.8724" lon="3.0142">
        <ele>659.270651</ele>
        <time>2022-03-06T22:51:54Z</time>
      </trkpt>
      <trkpt lat="45.8724" lon="3.01512">
        <ele>655.697587</ele>
        <time>2022-03-06T22:53:04Z</time>
      </trkpt>
      <trkpt lat="45.87228" lon="3.01559">
        <ele>653.753616</ele>
        <time>2022-03-06T22:53:43Z</time>
      </trkpt>
      <trkpt lat="45.87213" lon="3.01608">
        <ele>651.639739</ele>
        <time>2022-03-06T22:54:26Z</time>
      </trkpt>
      <trkpt lat="45.87185" lon="3.01626">
        <ele>649.65892</ele>
        <time>2022-03-06T22:55:00Z</time>
      </trkpt>
      <trkpt lat="45.87169" lon="3.01647">
        <ele>648.044094</ele>
        <time>2022-03-06T22:55:25Z</time>
      </trkpt>
      <trkpt lat="45.87143" lon="3.01716">
        <ele>644.031639</ele>
        <time>2022-03-06T22:56:28Z</time>
      </trkpt>
      <trkpt lat="45.87124" lon="3.01762">
        <ele>641.279354</ele>
        <time>2022-03-06T22:57:12Z</time>
      </trkpt>
      <trkpt lat="45.8712" lon="3.01833">
        <ele>637.670759</ele>
        <time>2022-03-06T22:58:08Z</time>
      </trkpt>
      <trkpt lat="45.87123" lon="3.0189">
        <ele>635.216774</ele>
        <time>2022-03-06T22:58:54Z</time>
      </trkpt>
      <trkpt lat="45.87176" lon="3.01994">
        <ele>629.699054</ele>
        <time>2022-03-06T23:00:34Z</time>
      </trkpt>
      <trkpt lat="45.87208" lon="3.02004">
        <ele>627.720162</ele>
        <time>2022-03-06T23:01:10Z</time>
      </trkpt>
      <trkpt lat="45.87213" lon="3.0202">
        <ele>626.978877</ele>
        <time>2022-03-06T23:01:23Z</time>
      </trkpt>
      <trkpt lat="45.87243" lon="3.02293">
        <ele>615.503579</ele>
        <time>2022-03-06T23:04:58Z</time>
      </trkpt>
      <trkpt lat="45.87239" lon="3.0232">
        <ele>613.934795</ele>
        <time>2022-03-06T23:05:21Z</time>
      </trkpt>
      <trkpt lat="45.87217" lon="3.02365">
        <ele>610.917504</ele>
        <time>2022-03-06T23:06:04Z</time>
      </trkpt>
      <trkpt lat="45.87157" lon="3.02446">
        <ele>604.295929</ele>
        <time>2022-03-06T23:07:39Z</time>
      </trkpt>
      <trkpt lat="45.87147" lon="3.02503">
        <ele>600.732775</ele>
        <time>2022-03-06T23:08:29Z</time>
      </trkpt>
      <trkpt lat="45.87151" lon="3.02638">
        <ele>590.730407</ele>
        <time>2022-03-06T23:10:24Z</time>
      </trkpt>
      <trkpt lat="45.87139" lon="3.02678">
        <ele>587.542052</ele>
        <time>2022-03-06T23:11:00Z</time>
      </trkpt>
      <trkpt lat="45.87125" lon="3.0273">
        <ele>583.364894</ele>
        <time>2022-03-06T23:11:48Z</time>
      </trkpt>
      <trkpt lat="45.87116" lon="3.02761">
        <ele>581.335843</ele>
        <time>2022-03-06T23:12:15Z</time>
      </trkpt>
      <trkpt lat="45.87106" lon="3.02813">
        <ele>578.284423</ele>
        <time>2022-03-06T23:13:00Z</time>
      </trkpt>
      <trkpt lat="45.871" lon="3.02835">
        <ele>576.962078</ele>
        <time>2022-03-06T23:13:20Z</time>
      </trkpt>
      <trkpt lat="45.87093" lon="3.02864">
        <ele>575.250121</ele>
        <time>2022-03-06T23:13:45Z</time>
      </trkpt>
      <trkpt lat="45.87107" lon="3.02864">
        <ele>574.161917</ele>
        <time>2022-03-06T23:14:01Z</time>
      </trkpt>
      <trkpt lat="45.87095" lon="3.02888">
        <ele>572.531529</ele>
        <time>2022-03-06T23:14:24Z</time>
      </trkpt>
      <trkpt lat="45.87085" lon="3.02916">
        <ele>570.752772</ele>
        <time>2022-03-06T23:14:49Z</time>
      </trkpt>
      <trkpt lat="45.87079" lon="3.02918">
        <ele>570.238962</ele>
        <time>2022-03-06T23:14:56Z</time>
      </trkpt>
      <trkpt lat="45.8703" lon="3.03066">
        <ele>564.283628</ele>
        <time>2022-03-06T23:17:01Z</time>
      </trkpt>
      <trkpt lat="45.87023" lon="3.03096">
        <ele>563.330412</ele>
        <time>2022-03-06T23:17:25Z</time>
      </trkpt>
      <trkpt lat="45.87066" lon="3.03116">
        <ele>561.385344</ele>
        <time>2022-03-06T23:18:13Z</time>
      </trkpt>
      <trkpt lat="45.87077" lon="3.03121">
        <ele>560.897581</ele>
        <time>2022-03-06T23:18:25Z</time>
      </trkpt>
      <trkpt lat="45.87137" lon="3.03128">
        <ele>558.528285</ele>
        <time>2022-03-06T23:19:31Z</time>
      </trkpt>
      <trkpt lat="45.87158" lon="3.03139">
        <ele>557.707463</ele>
        <time>2022-03-06T23:19:54Z</time>
      </trkpt>
      <trkpt lat="45.8718" lon="3.03159">
        <ele>556.711395</ele>
        <time>2022-03-06T23:20:23Z</time>
      </trkpt>
      <trkpt lat="45.87186" lon="3.0317">
        <ele>556.344088</ele>
        <time>2022-03-06T23:20:33Z</time>
      </trkpt>
      <trkpt lat="45.8719" lon="3.0318">
        <ele>556.037336</ele>
        <time>2022-03-06T23:20:42Z</time>
      </trkpt>
      <trkpt lat="45.87195" lon="3.03188">
        <ele>555.752138</ele>
        <time>2022-03-06T23:20:50Z</time>
      </trkpt>
      <trkpt lat="45.87205" lon="3.0326">
        <ele>553.834391</ele>
        <time>2022-03-06T23:21:45Z</time>
      </trkpt>
      <trkpt lat="45.87203" lon="3.0328">
        <ele>553.465124</ele>
        <time>2022-03-06T23:22:00Z</time>
      </trkpt>
      <trkpt lat="45.87194" lon="3.03274">
        <ele>553.465124</ele>
        <time>2022-03-06T23:22:11Z</time>
      </trkpt>
      <trkpt lat="45.87183" lon="3.03277">
        <ele>553.465124</ele>
        <time>2022-03-06T23:22:23Z</time>
      </trkpt>
      <trkpt lat="45.87159" lon="3.03318">
        <ele>553.465124</ele>
        <time>2022-03-06T23:23:03Z</time>
      </trkpt>
      <trkpt lat="45.87154" lon="3.03362">
        <ele>553.465124</ele>
        <time>2022-03-06T23:23:36Z</time>
      </trkpt>
      <trkpt lat="45.87172" lon="3.03354">
        <ele>553.465124</ele>
        <time>2022-03-06T23:23:55Z</time>
      </trkpt>
      <trkpt lat="45.87213" lon="3.03396">
        <ele>563.902805</ele>
        <time>2022-03-05T14:43:43Z</time>
      </trkpt>
      <trkpt lat="45.87265" lon="3.03363">
        <ele>563.902805</ele>
        <time>2022-03-05T14:44:51Z</time>
      </trkpt>
      <trkpt lat="45.87271" lon="3.03387">
        <ele>563.902805</ele>
        <time>2022-03-05T14:45:12Z</time>
      </trkpt>
      <trkpt lat="45.87273" lon="3.03394">
        <ele>563.902805</ele>
        <time>2022-03-05T14:45:20Z</time>
      </trkpt>
      <trkpt lat="45.87284" lon="3.03394">
        <ele>564.017521</ele>
        <time>2022-03-05T14:45:35Z</time>
      </trkpt>
      <trkpt lat="45.87306" lon="3.03403">
        <ele>566.66322</ele>
        <time>2022-03-05T14:46:05Z</time>
      </trkpt>
      <trkpt lat="45.87325" lon="3.03437">
        <ele>570.170015</ele>
        <time>2022-03-05T14:46:46Z</time>
      </trkpt>
      <trkpt lat="45.87332" lon="3.03427">
        <ele>571.333398</ele>
        <time>2022-03-05T14:47:05Z</time>
      </trkpt>
      <trkpt lat="45.87345" lon="3.03427">
        <ele>572.805049</ele>
        <time>2022-03-05T14:47:22Z</time>
      </trkpt>
      <trkpt lat="45.87347" lon="3.03427">
        <ele>573.094787</ele>
        <time>2022-03-05T14:47:26Z</time>
      </trkpt>
      <trkpt lat="45.87365" lon="3.03439">
        <ele>575.33483</ele>
        <time>2022-03-05T14:47:57Z</time>
      </trkpt>
      <trkpt lat="45.87381" lon="3.03459">
        <ele>577.772787</ele>
        <time>2022-03-05T14:48:25Z</time>
      </trkpt>
      <trkpt lat="45.8741" lon="3.03467">
        <ele>581.195379</ele>
        <time>2022-03-05T14:49:10Z</time>
      </trkpt>
      <trkpt lat="45.87434" lon="3.03474">
        <ele>584.052152</ele>
        <time>2022-03-05T14:49:50Z</time>
      </trkpt>
      <trkpt lat="45.87526" lon="3.03531">
        <ele>593.878023</ele>
        <time>2022-03-05T14:52:09Z</time>
      </trkpt>
      <trkpt lat="45.87557" lon="3.03597">
        <ele>599.239704</ele>
        <time>2022-03-05T14:53:21Z</time>
      </trkpt>
      <trkpt lat="45.87601" lon="3.03658">
        <ele>603.422033</ele>
        <time>2022-03-05T14:54:34Z</time>
      </trkpt>
      <trkpt lat="45.87615" lon="3.03681">
        <ele>604.287025</ele>
        <time>2022-03-05T14:54:59Z</time>
      </trkpt>
      <trkpt lat="45.87653" lon="3.03699">
        <ele>605.929921</ele>
        <time>2022-03-05T14:55:46Z</time>
      </trkpt>
      <trkpt lat="45.87718" lon="3.03711">
        <ele>608.585549</ele>
        <time>2022-03-05T14:56:59Z</time>
      </trkpt>
      <trkpt lat="45.87726" lon="3.03716">
        <ele>608.934632</ele>
        <time>2022-03-05T14:57:09Z</time>
      </trkpt>
      <trkpt lat="45.87755" lon="3.03712">
        <ele>609.365541</ele>
        <time>2022-03-05T14:57:39Z</time>
      </trkpt>
      <trkpt lat="45.87774" lon="3.03699">
        <ele>609.222322</ele>
        <time>2022-03-05T14:58:02Z</time>
      </trkpt>
      <trkpt lat="45.8793" lon="3.03666">
        <ele>607.685847</ele>
        <time>2022-03-05T15:00:45Z</time>
      </trkpt>
      <trkpt lat="45.87967" lon="3.03669">
        <ele>606.269873</ele>
        <time>2022-03-05T15:01:25Z</time>
      </trkpt>
      <trkpt lat="45.87993" lon="3.03661">
        <ele>605.23649</ele>
        <time>2022-03-05T15:01:55Z</time>
      </trkpt>
      <trkpt lat="45.88063" lon="3.03653">
        <ele>602.550416</ele>
        <time>2022-03-05T15:03:11Z</time>
      </trkpt>
      <trkpt lat="45.88106" lon="3.03656">
        <ele>600.745205</ele>
        <time>2022-03-05T15:03:58Z</time>
      </trkpt>
      <trkpt lat="45.88185" lon="3.0364">
        <ele>596.791781</ele>
        <time>2022-03-05T15:05:25Z</time>
      </trkpt>
      <trkpt lat="45.88211" lon="3.03645">
        <ele>595.47537</ele>
        <time>2022-03-05T15:05:54Z</time>
      </trkpt>
      <trkpt lat="45.88225" lon="3.03647">
        <ele>594.777106</ele>
        <time>2022-03-05T15:06:10Z</time>
      </trkpt>
      <trkpt lat="45.88264" lon="3.03664">
        <ele>592.749973</ele>
        <time>2022-03-05T15:06:55Z</time>
      </trkpt>
      <trkpt lat="45.8829" lon="3.03685">
        <ele>591.928708</ele>
        <time>2022-03-05T15:07:28Z</time>
      </trkpt>
      <trkpt lat="45.8838" lon="3.03741">
        <ele>589.919416</ele>
        <time>2022-03-05T15:09:14Z</time>
      </trkpt>
      <trkpt lat="45.88413" lon="3.03754">
        <ele>589.210425</ele>
        <time>2022-03-05T15:09:50Z</time>
      </trkpt>
      <trkpt lat="45.88433" lon="3.03771">
        <ele>588.726116</ele>
        <time>2022-03-05T15:10:15Z</time>
      </trkpt>
      <trkpt lat="45.88452" lon="3.03793">
        <ele>590.575651</ele>
        <time>2022-03-05T15:10:43Z</time>
      </trkpt>
      <trkpt lat="45.88461" lon="3.03795">
        <ele>591.302437</ele>
        <time>2022-03-05T15:10:54Z</time>
      </trkpt>
      <trkpt lat="45.88476" lon="3.03769">
        <ele>593.183036</ele>
        <time>2022-03-05T15:11:21Z</time>
      </trkpt>
      <trkpt lat="45.88483" lon="3.03766">
        <ele>593.787037</ele>
        <time>2022-03-05T15:11:30Z</time>
      </trkpt>
      <trkpt lat="45.88431" lon="3.03697">
        <ele>599.563924</ele>
        <time>2022-03-05T15:13:02Z</time>
      </trkpt>
      <trkpt lat="45.88376" lon="3.0361">
        <ele>608.616184</ele>
        <time>2022-03-05T15:15:07Z</time>
      </trkpt>
      <trkpt lat="45.88371" lon="3.03585">
        <ele>611.254929</ele>
        <time>2022-03-05T15:15:35Z</time>
      </trkpt>
      <trkpt lat="45.88374" lon="3.03562">
        <ele>613.66486</ele>
        <time>2022-03-05T15:16:03Z</time>
      </trkpt>
      <trkpt lat="45.8841" lon="3.03508">
        <ele>621.341409</ele>
        <time>2022-03-05T15:17:27Z</time>
      </trkpt>
      <trkpt lat="45.88411" lon="3.03482">
        <ele>624.103493</ele>
        <time>2022-03-05T15:18:00Z</time>
      </trkpt>
      <trkpt lat="45.88397" lon="3.03421">
        <ele>630.673371</ele>
        <time>2022-03-05T15:19:16Z</time>
      </trkpt>
      <trkpt lat="45.88327" lon="3.03299">
        <ele>645.784178</ele>
        <time>2022-03-05T15:22:20Z</time>
      </trkpt>
      <trkpt lat="45.88288" lon="3.03211">
        <ele>655.262903</ele>
        <time>2022-03-05T15:24:01Z</time>
      </trkpt>
      <trkpt lat="45.88239" lon="3.0314">
        <ele>660.253233</ele>
        <time>2022-03-05T15:25:29Z</time>
      </trkpt>
      <trkpt lat="45.88176" lon="3.03041">
        <ele>667.067392</ele>
        <time>2022-03-05T15:27:21Z</time>
      </trkpt>
    </trkseg>
  </trk>
  <trk>
    <name><![CDATA[J7]]></name>
    <extensions>
      <line xmlns="http://www.topografix.com/GPX/gpx_style/0/2">
        <color>aa7941</color>
        <width>4</width>
      </line>
    </extensions>
    <trkseg>
      <trkpt lat="45.88176" lon="3.03041">
        <ele>667.067392</ele>
        <time>2022-03-05T15:27:21Z</time>
      </trkpt>
      <trkpt lat="45.88137" lon="3.02952">
        <ele>672.226904</ele>
        <time>2022-03-05T15:28:50Z</time>
      </trkpt>
      <trkpt lat="45.88118" lon="3.02807">
        <ele>679.37784</ele>
        <time>2022-03-05T15:30:56Z</time>
      </trkpt>
      <trkpt lat="45.88128" lon="3.02792">
        <ele>680.42988</ele>
        <time>2022-03-05T15:31:15Z</time>
      </trkpt>
      <trkpt lat="45.88142" lon="3.02782">
        <ele>682.269955</ele>
        <time>2022-03-05T15:31:35Z</time>
      </trkpt>
      <trkpt lat="45.88227" lon="3.02761">
        <ele>692.041065</ele>
        <time>2022-03-05T15:33:33Z</time>
      </trkpt>
      <trkpt lat="45.88253" lon="3.02764">
        <ele>694.981964</ele>
        <time>2022-03-05T15:34:11Z</time>
      </trkpt>
      <trkpt lat="45.88299" lon="3.02748">
        <ele>700.263195</ele>
        <time>2022-03-05T15:35:27Z</time>
      </trkpt>
      <trkpt lat="45.88306" lon="3.02724">
        <ele>702.243768</ele>
        <time>2022-03-05T15:35:51Z</time>
      </trkpt>
      <trkpt lat="45.88296" lon="3.02699">
        <ele>704.363277</ele>
        <time>2022-03-05T15:36:23Z</time>
      </trkpt>
      <trkpt lat="45.8825" lon="3.02625">
        <ele>711.946007</ele>
        <time>2022-03-05T15:38:00Z</time>
      </trkpt>
      <trkpt lat="45.88232" lon="3.02581">
        <ele>715.836351</ele>
        <time>2022-03-05T15:38:49Z</time>
      </trkpt>
      <trkpt lat="45.88231" lon="3.02562">
        <ele>717.270839</ele>
        <time>2022-03-05T15:39:06Z</time>
      </trkpt>
      <trkpt lat="45.88277" lon="3.02467">
        <ele>723.021724</ele>
        <time>2022-03-05T15:40:48Z</time>
      </trkpt>
      <trkpt lat="45.88297" lon="3.02441">
        <ele>724.422269</ele>
        <time>2022-03-05T15:41:19Z</time>
      </trkpt>
      <trkpt lat="45.88402" lon="3.02392">
        <ele>730.021511</ele>
        <time>2022-03-05T15:43:23Z</time>
      </trkpt>
      <trkpt lat="45.8841" lon="3.02379">
        <ele>730.4905</ele>
        <time>2022-03-05T15:43:38Z</time>
      </trkpt>
      <trkpt lat="45.88423" lon="3.02372">
        <ele>730.993849</ele>
        <time>2022-03-05T15:43:53Z</time>
      </trkpt>
      <trkpt lat="45.88571" lon="3.0236">
        <ele>736.269457</ele>
        <time>2022-03-05T15:46:42Z</time>
      </trkpt>
      <trkpt lat="45.88633" lon="3.0222">
        <ele>736.820635</ele>
        <time>2022-03-05T15:48:43Z</time>
      </trkpt>
      <trkpt lat="45.88839" lon="3.02147">
        <ele>733.829759</ele>
        <time>2022-03-05T15:52:26Z</time>
      </trkpt>
      <trkpt lat="45.88942" lon="3.02125">
        <ele>733.223308</ele>
        <time>2022-03-05T15:54:14Z</time>
      </trkpt>
      <trkpt lat="45.89059" lon="3.02016">
        <ele>734.21498</ele>
        <time>2022-03-05T15:56:38Z</time>
      </trkpt>
      <trkpt lat="45.89061" lon="3.02015">
        <ele>734.272614</ele>
        <time>2022-03-05T15:56:41Z</time>
      </trkpt>
      <trkpt lat="45.89179" lon="3.01947">
        <ele>737.86243</ele>
        <time>2022-03-05T15:59:04Z</time>
      </trkpt>
      <trkpt lat="45.89183" lon="3.01944">
        <ele>737.990776</ele>
        <time>2022-03-05T15:59:09Z</time>
      </trkpt>
      <trkpt lat="45.89183" lon="3.01917">
        <ele>738.490667</ele>
        <time>2022-03-05T15:59:30Z</time>
      </trkpt>
      <trkpt lat="45.89179" lon="3.01893">
        <ele>738.941885</ele>
        <time>2022-03-05T15:59:50Z</time>
      </trkpt>
      <trkpt lat="45.89185" lon="3.01778">
        <ele>740.977596</ele>
        <time>2022-03-05T16:01:17Z</time>
      </trkpt>
      <trkpt lat="45.89182" lon="3.01742">
        <ele>741.628709</ele>
        <time>2022-03-05T16:01:45Z</time>
      </trkpt>
      <trkpt lat="45.89153" lon="3.01601">
        <ele>743.863326</ele>
        <time>2022-03-05T16:03:34Z</time>
      </trkpt>
      <trkpt lat="45.89144" lon="3.0148">
        <ele>745.459064</ele>
        <time>2022-03-05T16:05:04Z</time>
      </trkpt>
      <trkpt lat="45.8911" lon="3.01392">
        <ele>746.888044</ele>
        <time>2022-03-05T16:06:19Z</time>
      </trkpt>
      <trkpt lat="45.89127" lon="3.01371">
        <ele>747.392393</ele>
        <time>2022-03-05T16:06:43Z</time>
      </trkpt>
      <trkpt lat="45.89183" lon="3.01312">
        <ele>748.975094</ele>
        <time>2022-03-05T16:07:58Z</time>
      </trkpt>
      <trkpt lat="45.89204" lon="3.01282">
        <ele>749.636122</ele>
        <time>2022-03-05T16:08:29Z</time>
      </trkpt>
      <trkpt lat="45.89232" lon="3.01214">
        <ele>751.024079</ele>
        <time>2022-03-05T16:09:30Z</time>
      </trkpt>
      <trkpt lat="45.89285" lon="3.01131">
        <ele>753.239198</ele>
        <time>2022-03-05T16:10:56Z</time>
      </trkpt>
      <trkpt lat="45.89407" lon="3.00864">
        <ele>759.71057</ele>
        <time>2022-03-05T16:15:01Z</time>
      </trkpt>
      <trkpt lat="45.89479" lon="3.00758">
        <ele>762.986906</ele>
        <time>2022-03-05T16:16:56Z</time>
      </trkpt>
      <trkpt lat="45.89504" lon="3.00728">
        <ele>764.053831</ele>
        <time>2022-03-05T16:17:33Z</time>
      </trkpt>
      <trkpt lat="45.89568" lon="3.0068">
        <ele>766.435825</ele>
        <time>2022-03-05T16:18:54Z</time>
      </trkpt>
      <trkpt lat="45.89596" lon="3.00649">
        <ele>767.232072</ele>
        <time>2022-03-05T16:19:33Z</time>
      </trkpt>
      <trkpt lat="45.89642" lon="3.00529">
        <ele>769.274219</ele>
        <time>2022-03-05T16:21:17Z</time>
      </trkpt>
      <trkpt lat="45.89686" lon="3.00409">
        <ele>770.086115</ele>
        <time>2022-03-05T16:22:56Z</time>
      </trkpt>
      <trkpt lat="45.89766" lon="3.00222">
        <ele>768.253653</ele>
        <time>2022-03-05T16:25:31Z</time>
      </trkpt>
      <trkpt lat="45.89795" lon="3.00184">
        <ele>766.139153</ele>
        <time>2022-03-05T16:26:14Z</time>
      </trkpt>
      <trkpt lat="45.89801" lon="3.00199">
        <ele>765.50184</ele>
        <time>2022-03-05T16:26:27Z</time>
      </trkpt>
      <trkpt lat="45.89977" lon="3.00088">
        <ele>754.256217</ele>
        <time>2022-03-05T16:30:07Z</time>
      </trkpt>
      <trkpt lat="45.90003" lon="3.00091">
        <ele>752.574695</ele>
        <time>2022-03-05T16:30:36Z</time>
      </trkpt>
      <trkpt lat="45.90047" lon="3.0012">
        <ele>749.354673</ele>
        <time>2022-03-05T16:31:32Z</time>
      </trkpt>
      <trkpt lat="45.90069" lon="3.00122">
        <ele>747.929455</ele>
        <time>2022-03-05T16:31:56Z</time>
      </trkpt>
      <trkpt lat="45.90072" lon="3.00122">
        <ele>747.73144</ele>
        <time>2022-03-05T16:31:59Z</time>
      </trkpt>
      <trkpt lat="45.90104" lon="3.00121">
        <ele>746.161621</ele>
        <time>2022-03-05T16:32:36Z</time>
      </trkpt>
      <trkpt lat="45.90289" lon="3.00082">
        <ele>737.955598</ele>
        <time>2022-03-05T16:35:58Z</time>
      </trkpt>
      <trkpt lat="45.90338" lon="3.00009">
        <ele>735.56598</ele>
        <time>2022-03-05T16:37:14Z</time>
      </trkpt>
      <trkpt lat="45.90436" lon="2.9984">
        <ele>730.789945</ele>
        <time>2022-03-05T16:39:56Z</time>
      </trkpt>
      <trkpt lat="45.90469" lon="2.99729">
        <ele>728.369307</ele>
        <time>2022-03-05T16:41:26Z</time>
      </trkpt>
      <trkpt lat="45.90513" lon="2.99631">
        <ele>727.3206</ele>
        <time>2022-03-05T16:42:51Z</time>
      </trkpt>
      <trkpt lat="45.90536" lon="2.99627">
        <ele>727.108684</ele>
        <time>2022-03-05T16:43:15Z</time>
      </trkpt>
      <trkpt lat="45.90545" lon="2.99628">
        <ele>727.027285</ele>
        <time>2022-03-05T16:43:24Z</time>
      </trkpt>
      <trkpt lat="45.90556" lon="2.99632">
        <ele>726.926617</ele>
        <time>2022-03-05T16:43:35Z</time>
      </trkpt>
      <trkpt lat="45.90557" lon="2.99636">
        <ele>726.897798</ele>
        <time>2022-03-05T16:43:38Z</time>
      </trkpt>
    </trkseg>
  </trk>
</gpx>